[[{"header":{"parameterUnit":"m.s-1","parameterCategory":1,"la1":30.6,"la2":28.766,"lo1":-90.7593,"lo2":-88.6598,"dx":0.0162,"dy":0.0183,"nx":116,"ny":114,"refTime":"2022-12-31T18:00:00:Z","depth":0,"parameterNumber":2,"parameterNumberName":"U-component_of_WINDS"},"data":[0.0,0.0,0.0,0.0,0.0,0.0,0.0,0.0,0.0,0.0,0.0,0.0,0.0,0.0,0.0,0.0,0.0,0.0,0.0,0.0,0.0,0.0,0.0,0.0,0.0,0.0,0.0,0.0,0.0,0.0,0.0,0.0,0.0,0.0,0.0,0.0,0.0,0.0,0.0,0.0,0.0,0.0,0.0,0.0,0.0,0.0,0.0,0.0,0.0,0.0,0.0,0.0,0.0,0.0,0.0,0.0,0.0,0.0,0.0,0.0,0.0,0.0,0.0,0.0,0.0,0.0,0.0,0.0,0.0,0.0,0.0,0.0,0.0,0.0,0.0,0.0,0.0,0.0,0.0,0.0,0.0,0.0,0.0,0.0,0.0,0.0,0.0,0.0,0.0,0.0,0.0,0.0,0.0,0.0,0.0,0.0,0.0,0.0,0.0,0.0,0.0,0.0,0.0,0.0,0.0,0.0,0.0,0.0,0.0,0.0,0.0,0.0,0.0,0.0,0.0,0.0,0.0,0.0,0.0,0.0,0.0,0.0,0.0,0.0,0.0,0.0,0.0,0.0,0.0,0.0,0.0,0.0,0.0,0.0,0.0,0.0,0.0,0.0,0.0,0.0,0.0,0.0,0.0,0.0,0.0,0.0,0.0,0.0,0.0,0.0,0.0,0.0,0.0,0.0,0.0,0.0,0.0,0.0,0.0,0.0,0.0,0.0,0.0,0.0,0.0,0.0,0.0,0.0,0.0,0.0,0.0,0.0,0.0,0.0,0.0,0.0,0.0,0.0,0.0,0.0,0.0,0.0,0.0,0.0,0.0,0.0,0.0,0.0,0.0,0.0,0.0,0.0,0.0,0.0,0.0,0.0,0.0,0.0,0.0,0.0,0.0,0.0,0.0,0.0,0.0,0.0,0.0,0.0,0.0,0.0,0.0,0.0,0.0,0.0,0.0,0.0,0.0,0.0,0.0,0.0,0.0,0.0,0.0,0.0,0.0,0.0,0.0,0.0,0.0,0.0,0.0,0.0,0.0,0.0,0.0,0.0,0.0,0.0,0.0,0.0,0.0,0.0,0.0,0.0,0.0,0.0,0.0,0.0,0.0,0.0,0.0,0.0,0.0,0.0,0.0,0.0,0.0,0.0,0.0,0.0,0.0,0.0,0.0,0.0,0.0,0.0,0.0,0.0,0.0,0.0,0.0,0.0,0.0,0.0,0.0,0.0,0.0,0.0,0.0,0.0,0.0,0.0,0.0,0.0,0.0,0.0,0.0,0.0,0.0,0.0,0.0,0.0,0.0,0.0,0.0,0.0,0.0,0.0,0.0,0.0,0.0,0.0,0.0,0.0,0.0,0.0,0.0,0.0,0.0,0.0,0.0,0.0,0.0,0.0,0.0,0.0,0.0,0.0,0.0,0.0,0.0,0.0,0.0,0.0,0.0,0.0,0.0,0.0,0.0,0.0,0.0,0.0,0.0,0.0,0.0,0.0,0.0,0.0,0.0,0.0,0.0,0.0,0.0,0.0,0.0,0.0,0.0,0.0,0.0,0.0,0.0,0.0,0.0,0.0,0.0,0.0,0.0,0.0,0.0,0.0,0.0,0.0,0.0,0.0,0.0,0.0,0.0,0.0,0.0,0.0,0.0,0.0,0.0,0.0,0.0,0.0,0.0,0.0,0.0,0.0,0.0,0.0,0.0,0.0,0.0,0.0,0.0,0.0,0.0,0.0,0.0,0.0,0.0,0.0,0.0,0.0,0.0,0.0,0.0,0.0,0.0,0.0,0.0,0.0,0.0,0.0,0.0,0.0,0.0,0.0,0.0,0.0,0.0,0.0,0.0,0.0,0.0,0.0,0.0,0.0,0.0,0.0,0.0,0.0,0.0,0.0,0.0,0.0,0.0,0.0,0.0,0.0,0.0,0.0,0.0,0.0,0.0,0.0,0.0,0.0,0.0,0.0,0.0,0.0,0.0,0.0,0.0,0.0,0.0,0.0,0.0,0.0,0.0,0.0,0.0,0.0,0.0,0.0,0.0,0.0,0.0,0.0,0.0,0.0,0.0,0.0,0.0,0.0,0.0,0.0,0.0,0.0,0.0,0.0,0.0,0.0,0.0,0.0,0.0,0.0,0.0,0.0,0.0,0.0,0.0,0.0,0.0,0.0,0.0,0.0,0.0,0.0,0.0,0.0,0.0,0.0,0.0,0.0,0.0,0.0,0.0,0.0,0.0,0.0,0.0,0.0,0.0,0.0,0.0,0.0,0.0,0.0,0.0,0.0,0.0,0.0,0.0,0.0,0.0,0.0,0.0,0.0,0.0,0.0,0.0,0.0,0.0,0.0,0.0,0.0,0.0,0.0,0.0,0.0,0.0,0.0,0.0,0.0,0.0,0.0,0.0,0.0,0.0,0.0,0.0,0.0,0.0,0.0,0.0,0.0,0.0,0.0,0.0,0.0,0.0,0.0,0.0,0.0,0.0,0.0,0.0,0.0,0.0,0.0,0.0,0.0,0.0,0.0,0.0,0.0,0.0,0.0,0.0,0.0,0.0,0.0,0.0,0.0,0.0,0.0,0.0,0.0,0.0,0.0,0.0,0.0,0.0,0.0,0.0,0.0,0.0,0.0,0.0,0.0,0.0,0.0,0.0,0.0,0.0,0.0,0.0,0.0,0.0,0.0,0.0,0.0,0.0,0.0,0.0,0.0,0.0,0.0,0.0,0.0,0.0,0.0,0.0,0.0,0.0,0.0,0.0,0.0,0.0,0.0,0.0,0.0,0.0,0.0,0.0,0.0,0.0,0.0,0.0,0.0,0.0,0.0,0.0,0.0,0.0,0.0,0.0,0.0,0.0,0.0,0.0,0.0,0.0,0.0,0.0,0.0,0.0,0.0,0.0,0.0,0.0,0.0,0.0,0.0,0.0,0.0,0.0,0.0,0.0,0.0,0.0,0.0,0.0,0.0,0.0,0.0,0.0,0.0,0.0,0.0,0.0,0.0,0.0,0.0,0.0,0.0,0.0,0.0,0.0,0.0,0.0,0.0,0.0,0.0,0.0,0.0,0.0,0.0,0.0,0.0,0.0,0.0,0.0,0.0,0.0,0.0,0.0,0.0,0.0,0.0,0.0,0.0,0.0,0.0,0.0,0.0,0.0,0.0,0.0,0.0,0.0,0.0,0.0,0.0,0.0,0.0,0.0,0.0,0.0,0.0,0.0,0.0,0.0,0.0,0.0,0.0,0.0,0.0,0.0,0.0,0.0,0.0,0.0,0.0,0.0,0.0,0.0,0.0,0.0,0.0,0.0,0.0,0.0,0.0,0.0,0.0,0.0,0.0,0.0,0.0,0.0,0.0,0.0,0.0,0.0,0.0,0.0,0.0,0.0,0.0,0.0,0.0,0.0,0.0,0.0,0.0,0.0,0.0,0.0,0.0,0.0,0.0,0.0,0.0,0.0,0.0,0.0,0.0,0.0,0.0,0.0,0.0,0.0,0.0,0.0,0.0,0.0,0.0,0.0,0.0,0.0,0.0,0.0,0.0,0.0,0.0,0.0,0.0,0.0,0.0,0.0,0.0,0.0,0.0,0.0,0.0,0.0,0.0,0.0,0.0,0.0,0.0,0.0,0.0,0.0,0.0,0.0,0.0,0.0,0.0,0.0,0.0,0.0,0.0,0.0,0.0,0.0,0.0,0.0,0.0,0.0,0.0,0.0,0.0,0.0,0.0,0.0,0.0,0.0,0.0,0.0,0.0,0.0,0.0,0.0,0.0,0.0,0.0,0.0,0.0,0.0,0.0,0.0,0.0,0.0,0.0,0.0,0.0,0.0,0.0,0.0,0.0,0.0,0.0,0.0,0.0,0.0,0.0,0.0,0.0,0.0,0.0,0.0,0.0,0.0,0.0,0.0,0.0,0.0,0.0,0.0,0.0,0.0,0.0,0.0,0.0,0.0,0.0,0.0,0.0,0.0,0.0,0.0,0.0,0.0,0.0,0.0,0.0,0.0,0.0,0.0,0.0,0.0,0.0,0.0,0.0,0.0,0.0,0.0,0.0,0.0,0.0,0.0,0.0,0.0,0.0,0.0,0.0,0.0,0.0,0.0,0.0,0.0,0.0,0.0,0.0,0.0,0.0,0.0,0.0,0.0,0.0,0.0,0.0,0.0,0.0,0.0,0.0,0.0,0.0,0.0,0.0,0.0,0.0,0.0,0.0,0.0,0.0,0.0,0.0,0.0,0.0,0.0,0.0,0.0,0.0,0.0,0.0,0.0,0.0,0.0,0.0,0.0,0.0,0.0,0.0,0.0,0.0,0.0,0.0,0.0,0.0,0.0,0.0,0.0,0.0,0.0,0.0,0.0,0.0,0.0,0.0,0.0,0.0,0.0,0.0,0.0,0.0,0.0,0.0,0.0,0.0,0.0,0.0,0.0,0.0,0.0,0.0,0.0,0.0,0.0,0.0,0.0,0.0,0.0,0.0,0.0,0.0,0.0,0.0,0.0,0.0,0.0,0.0,0.0,0.0,0.0,0.0,0.0,0.0,0.0,0.0,0.0,0.0,0.0,0.0,0.0,0.0,0.0,0.0,0.0,0.0,0.0,0.0,0.0,0.0,0.0,0.0,0.0,0.0,0.0,0.0,0.0,0.0,0.0,0.0,0.0,0.0,0.0,0.0,0.0,0.0,0.0,0.0,0.0,0.0,0.0,0.0,0.0,0.0,0.0,0.0,0.0,0.0,0.0,0.0,0.0,0.0,0.0,0.0,0.0,0.0,0.0,0.0,0.0,0.0,0.0,0.0,0.0,0.0,0.0,0.0,0.0,0.0,0.0,0.0,0.0,0.0,0.0,0.0,0.0,0.0,0.0,0.0,0.0,0.0,0.0,0.0,0.0,0.0,0.0,0.0,0.0,0.0,0.0,0.0,0.0,0.0,0.0,0.0,0.0,0.0,0.0,0.0,0.0,0.0,0.0,0.0,0.0,0.0,0.0,0.0,0.0,0.0,0.0,0.0,0.0,0.0,0.0,0.0,0.0,0.0,0.0,0.0,0.0,0.0,0.0,0.0,0.0,0.0,0.0,0.0,0.0,0.0,0.0,0.0,0.0,0.0,0.0,0.0,0.0,0.0,0.0,0.0,0.0,0.0,0.0,0.0,0.0,0.0,0.0,0.0,0.0,0.0,0.0,0.0,0.0,0.0,0.0,0.0,0.0,0.0,0.0,0.0,0.0,0.0,0.0,0.0,0.0,0.0,0.0,0.0,0.0,0.0,0.0,0.0,0.0,0.0,0.0,0.0,0.0,0.0,0.0,0.0,0.0,0.0,0.0,0.0,0.0,0.0,0.0,0.0,0.0,0.0,0.0,0.0,0.0,0.0,0.0,0.0,0.0,0.0,0.0,0.0,0.0,0.0,0.0,0.0,0.0,0.0,0.0,0.0,0.0,0.0,0.0,0.0,0.0,0.0,0.0,0.0,0.0,0.0,0.0,0.0,0.0,0.0,0.0,0.0,0.0,0.0,0.0,0.0,0.0,0.0,0.0,0.0,0.0,0.0,0.0,0.0,0.0,0.0,0.0,0.0,0.0,0.0,0.0,0.0,0.0,0.0,0.0,0.0,0.0,0.0,0.0,0.0,0.0,0.0,0.0,0.0,0.0,0.0,0.0,0.0,0.0,0.0,0.0,0.0,0.0,0.0,0.0,0.0,0.0,0.0,0.0,0.0,0.0,0.0,0.0,0.0,0.0,0.0,0.0,0.0,0.0,0.0,0.0,0.0,0.0,0.0,0.0,0.0,0.0,0.0,0.0,0.0,0.0,0.0,0.0,0.0,0.0,0.0,0.0,0.0,0.0,0.0,0.0,0.0,0.0,0.0,0.0,0.0,0.0,0.0,0.0,0.0,0.0,0.0,0.0,0.0,0.0,0.0,0.0,0.0,0.0,0.0,0.0,0.0,0.0,0.0,0.0,0.0,0.0,0.0,0.0,0.0,0.0,0.0,0.0,0.0,0.0,0.0,0.0,0.0,0.0,0.0,0.0,0.0,0.0,0.0,0.0,0.0,0.0,0.0,0.0,0.0,0.0,0.0,0.0,0.0,0.0,0.0,0.0,0.0,0.0,0.0,-1.6098,-1.3231,0.0,0.0,0.0,0.0,0.0,0.0,0.0,0.0,0.0,0.0,0.0,0.0,0.0,0.0,0.0,0.0,0.0,0.0,0.0,0.0,0.0,0.0,0.0,0.0,0.0,0.0,0.0,0.0,0.0,0.0,0.0,0.0,0.0,0.0,0.0,0.0,-0.8418,-0.9563,-1.1717,-1.4223,-1.698,-1.5477,-1.3653,-1.1558,0.0,0.0,0.0,0.0,0.0,0.0,0.0,0.0,0.0,0.0,0.0,0.0,0.0,0.0,0.0,0.0,0.0,0.0,0.0,0.0,0.0,0.0,0.0,0.0,0.0,0.0,0.0,0.0,0.0,0.0,0.0,0.0,0.0,0.0,0.0,0.0,0.0,0.0,0.0,0.0,0.0,0.0,0.0,0.0,0.0,0.0,0.0,0.0,0.0,0.0,0.0,0.0,0.0,0.0,0.0,0.0,0.0,0.0,0.0,0.0,0.0,0.0,0.0,0.0,0.0,0.0,0.0,0.0,0.0,0.0,-1.8507,-1.6671,0.0,0.0,0.0,0.0,0.0,0.0,0.0,0.0,0.0,0.0,0.0,0.0,0.0,0.0,0.0,0.0,0.0,0.0,0.0,0.0,0.0,0.0,0.0,-1.1009,-1.0811,-1.0376,-1.0147,-1.0029,0.0,0.0,0.0,0.0,0.0,0.0,-0.8182,-0.8766,-1.005,-1.2039,-1.58,-1.9021,-2.1705,-2.2303,-2.065,-1.7007,-1.4381,0.0,0.0,0.0,0.0,0.0,0.0,0.0,0.0,0.0,0.0,0.0,0.0,0.0,0.0,0.0,0.0,0.0,0.0,0.0,0.0,0.0,0.0,0.0,0.0,0.0,0.0,0.0,0.0,0.0,0.0,0.0,0.0,0.0,0.0,0.0,0.0,0.0,0.0,0.0,0.0,0.0,0.0,0.0,0.0,0.0,0.0,0.0,0.0,0.0,0.0,0.0,0.0,0.0,0.0,0.0,0.0,0.0,0.0,0.0,0.0,0.0,0.0,0.0,-1.9152,-1.9546,-1.9287,-1.949,-2.0742,-2.2708,-2.0735,-2.0533,-2.1323,-1.7521,0.0,0.0,0.0,0.0,0.0,0.0,0.0,0.0,0.0,0.0,0.0,0.0,0.0,0.0,0.0,0.0,0.0,0.0,0.0,0.0,0.0,-1.1911,-1.2149,-1.2073,-1.1629,-1.1135,-1.0629,0.0,0.0,0.0,0.0,-0.8448,-0.8527,-0.9353,-1.0697,-1.2596,-1.9289,-2.3489,-2.5215,-2.557,-2.5407,-2.4673,-2.1167,-1.7848,-1.4916,0.0,0.0,0.0,0.0,0.0,0.0,0.0,0.0,0.0,0.0,0.0,0.0,0.0,0.0,0.0,0.0,0.0,0.0,0.0,0.0,0.0,0.0,0.0,0.0,0.0,0.0,0.0,0.0,0.0,0.0,0.0,0.0,0.0,0.0,0.0,0.0,0.0,0.0,0.0,0.0,0.0,-1.8662,-1.9183,0.0,0.0,0.0,0.0,0.0,0.0,0.0,0.0,0.0,0.0,0.0,0.0,0.0,-1.765,-1.826,-2.0801,-2.2123,-2.224,-2.5518,-2.6415,-2.5203,-2.6127,-2.607,-2.5255,-2.5271,0.0,-2.3659,-2.3163,0.0,0.0,0.0,0.0,0.0,0.0,0.0,0.0,0.0,0.0,0.0,0.0,0.0,0.0,0.0,0.0,0.0,0.0,0.0,0.0,0.0,-1.4267,-1.5016,-1.5754,-1.5582,-1.4759,-1.3157,-1.1893,0.0,0.0,-0.8883,-0.8858,-0.9766,-1.1483,-1.4963,-2.03,-2.4511,-2.7311,-2.8672,-2.9207,-2.882,-2.7601,-2.6651,-2.3584,-1.8997,-1.7554,0.0,0.0,0.0,0.0,0.0,0.0,0.0,0.0,0.0,0.0,0.0,0.0,0.0,0.0,0.0,0.0,0.0,0.0,0.0,0.0,0.0,0.0,0.0,0.0,0.0,0.0,0.0,0.0,0.0,0.0,0.0,0.0,0.0,0.0,0.0,0.0,0.0,0.0,0.0,-1.6124,-1.7582,-1.7856,-1.6873,-1.5373,0.0,0.0,0.0,0.0,0.0,0.0,0.0,0.0,0.0,-1.9695,-1.9919,-2.064,-2.1937,-2.3749,-2.4591,-2.4603,-2.6962,-2.7466,-2.6476,-2.6952,-2.6738,-2.6089,-2.6579,-2.6662,-2.6241,-2.4238,-2.192,-1.9364,0.0,0.0,0.0,0.0,-1.4708,-1.4971,0.0,0.0,0.0,0.0,0.0,0.0,0.0,0.0,0.0,0.0,0.0,0.0,-1.5051,-1.6096,-1.7138,-1.84,-1.8252,-1.7355,-1.5675,-1.3809,-1.2177,-1.0828,-0.9623,-0.965,-1.1042,-1.4216,-1.9179,-2.5952,-2.7764,-2.9139,-3.0092,-3.0583,-2.9932,-2.8466,-2.9365,-2.7151,-2.2702,-2.0967,-1.8828,-1.6307,0.0,0.0,0.0,0.0,0.0,0.0,0.0,0.0,0.0,0.0,0.0,0.0,0.0,0.0,0.0,0.0,0.0,0.0,0.0,0.0,0.0,0.0,0.0,0.0,0.0,0.0,0.0,0.0,0.0,0.0,0.0,0.0,0.0,0.0,0.0,0.0,0.0,-1.6802,-1.779,-1.733,-1.7649,-1.6831,0.0,0.0,0.0,0.0,0.0,0.0,-1.9682,-1.9633,-2.0535,-2.2633,-2.2579,-2.3246,-2.4797,-2.5485,-2.5814,-2.5904,-2.6944,-2.716,-2.6636,-2.6608,-2.6406,-2.6121,-2.6494,-2.7117,-2.7659,-2.5296,-2.3824,-2.2792,-1.9746,-1.7821,-1.6849,-1.7534,-1.7687,-1.8165,0.0,0.0,0.0,0.0,0.0,0.0,0.0,0.0,0.0,0.0,0.0,-1.4006,-1.5332,-1.6374,-1.7394,-1.8391,-1.7729,-1.7289,-1.7371,-1.48,-1.3229,-1.3141,-1.168,-1.1263,-1.2117,-1.7366,-2.1792,-2.5241,-2.6893,-2.7804,-2.8042,-2.7904,-2.7741,-2.7673,-2.772,-2.6926,-2.5441,-2.457,-2.2336,-1.9113,-1.6117,0.0,0.0,0.0,0.0,0.0,0.0,0.0,0.0,0.0,0.0,0.0,0.0,0.0,0.0,0.0,0.0,0.0,0.0,0.0,0.0,0.0,0.0,0.0,0.0,0.0,0.0,0.0,0.0,0.0,0.0,0.0,0.0,0.0,0.0,0.0,0.0,0.0,0.0,-2.0136,-2.1461,0.0,0.0,0.0,0.0,-1.8554,-1.9028,-1.998,-2.139,-2.1702,-2.2516,-2.4062,-2.4723,-2.5062,-2.5163,-2.5402,-2.5722,-2.6162,-2.6504,-2.667,-2.6702,-2.6626,-2.6197,-2.5548,-2.5285,-2.5778,-2.6898,-2.8205,-2.7041,-2.4387,-2.4183,-2.2072,-1.9472,-2.2398,-2.347,-2.3885,0.0,0.0,0.0,-0.9968,-0.9905,-0.9905,-0.9905,-1.0684,-1.1421,-1.1857,-1.3627,-1.5648,-1.7847,-1.8856,-2.0169,-2.2132,-2.1541,-2.0651,-1.9696,-1.7042,-1.5729,-1.6243,-1.3742,-1.4038,-1.7659,-2.2274,-2.5421,-2.7089,-2.9126,-2.9929,-2.9632,-2.998,-2.9749,-2.9142,-2.8676,-2.7942,-2.6997,-2.6154,-2.4811,-2.2911,-1.9821,-1.6834,0.0,0.0,0.0,0.0,0.0,0.0,0.0,0.0,0.0,0.0,0.0,0.0,0.0,0.0,0.0,0.0,0.0,0.0,0.0,0.0,0.0,0.0,0.0,0.0,0.0,0.0,0.0,0.0,0.0,0.0,0.0,0.0,0.0,0.0,0.0,0.0,0.0,-2.0718,-2.2172,0.0,-1.9308,-2.0952,-2.2114,-2.1941,-2.3672,-2.4948,-2.5513,-2.5438,-2.5369,-2.5285,-2.5529,-2.5292,-2.4571,-2.6013,-2.6721,-2.6722,-2.79,-2.8398,-2.8222,-2.7932,-2.7622,-2.7359,-2.6905,-2.7024,-2.7547,-2.7823,-2.7327,-2.6315,-2.5207,-2.4018,-2.295,-2.3451,-2.3728,-2.4115,0.0,0.0,0.0,-0.9993,-0.9905,-0.9905,-0.9905,-1.1023,-1.2046,-1.2535,-1.4519,-1.6777,-1.9048,-1.9949,-2.115,-2.3,-2.2688,-2.1992,-2.1101,-1.8456,-1.7308,-1.812,-1.6154,-1.7266,-2.2043,-2.4889,-2.696,-2.8144,-2.9599,-3.0283,-3.0173,-3.0438,-3.024,-2.9758,-2.9157,-2.8615,-2.8074,-2.7421,-2.6648,-2.5541,-2.2653,-1.9933,-1.7326,0.0,0.0,0.0,0.0,0.0,0.0,0.0,0.0,0.0,0.0,0.0,0.0,0.0,0.0,0.0,0.0,0.0,0.0,0.0,0.0,0.0,0.0,0.0,0.0,0.0,0.0,0.0,0.0,0.0,0.0,0.0,0.0,0.0,0.0,-2.0996,-2.2457,-2.0475,-2.2778,-2.3484,-2.0635,-2.3122,-2.4894,-2.4894,-2.6559,-2.7558,-2.7558,-2.7315,-2.6789,-2.5836,-2.599,-2.5584,-2.4534,-2.6424,-2.7309,-2.7216,-2.8509,-2.9182,-2.9191,-2.8468,-2.8246,-2.8327,-2.7562,-2.7347,-2.7478,-2.7156,-2.709,-2.7063,-2.598,-2.5438,-2.5158,-2.4765,-2.4655,-2.4692,0.0,0.0,-1.057,-1.0018,-0.9931,-0.9931,-0.9931,-1.1362,-1.2712,-1.3518,-1.5439,-1.7306,-1.8764,-1.9452,-2.0091,-2.0767,-2.0757,-2.0954,-2.1431,-1.8917,-1.7791,-1.8679,-1.8997,-2.0906,-2.4744,-2.5133,-2.6218,-2.8207,-2.8133,-2.8539,-2.9327,-2.8995,-2.9015,-2.9317,-2.8892,-2.8694,-2.8698,-2.8503,-2.7884,-2.6727,-2.4437,-2.2928,-2.1464,0.0,0.0,0.0,0.0,0.0,0.0,0.0,0.0,0.0,0.0,0.0,0.0,0.0,0.0,0.0,0.0,0.0,0.0,0.0,0.0,0.0,0.0,0.0,0.0,0.0,0.0,0.0,0.0,0.0,0.0,0.0,0.0,0.0,-2.0685,-2.2116,-2.2373,-1.9875,-2.3671,-2.545,-2.2714,-2.5412,-2.7337,-2.7337,-2.7348,-2.7359,-2.7359,-2.7192,-2.6622,-2.566,-2.6239,-2.6121,-2.5234,-2.6619,-2.7415,-2.7615,-2.8134,-2.8806,-2.9441,-2.8184,-2.7872,-2.825,-2.7054,-2.6544,-2.6544,-2.6544,-2.6534,-2.6524,-2.6794,-2.6435,-2.5903,-2.6632,-2.6615,-2.6115,-1.2215,-1.1738,-1.1173,-1.0582,-1.0482,-1.0482,-1.0482,-1.1896,-1.3271,-1.407,-1.6394,-1.8331,-1.9245,-2.0062,-2.0722,-2.1267,-2.1271,-2.1179,-2.0855,-1.8731,-1.7995,-1.9248,-2.3783,-2.6015,-2.5532,-2.7603,-2.8451,-2.8143,-2.9905,-3.0635,-3.0398,-3.1147,-3.1005,-3.0083,-2.9653,-2.9069,-2.8359,-2.7717,-2.7568,-2.7713,-2.6771,-2.529,-2.3437,0.0,0.0,0.0,0.0,0.0,0.0,0.0,0.0,0.0,0.0,0.0,0.0,0.0,0.0,0.0,0.0,0.0,0.0,0.0,0.0,0.0,0.0,0.0,0.0,0.0,0.0,0.0,0.0,0.0,0.0,0.0,-2.0884,-2.3161,-2.2963,-2.4631,-2.5723,-2.5358,-2.666,-2.7135,-2.6033,-2.7062,-2.7794,-2.7794,-2.8167,-2.8399,-2.8399,-2.8645,-2.8136,-2.6648,-2.7127,-2.6682,-2.5189,-2.6619,-2.7475,-2.7904,-2.8375,-2.8908,-2.9385,-2.837,-2.7967,-2.8026,-2.7541,-2.7299,-2.7309,-2.7119,-2.6876,-2.6562,-2.6615,-2.6474,-2.6325,-2.6552,-2.6522,-2.6428,-1.2438,-1.2153,-1.1751,-1.1171,-1.1071,-1.1071,-1.1071,-1.2504,-1.3878,-1.4662,-1.6841,-1.8743,-1.9869,-2.0514,-2.1067,-2.1565,-2.1617,-2.1193,-2.0111,-1.9513,-2.0303,-2.287,-2.6466,-2.8116,-2.761,-2.884,-2.9274,-2.8916,-3.0199,-3.0856,-3.1033,-3.1889,-3.1687,-3.0608,-3.0282,-2.957,-2.8506,-2.7842,-2.779,-2.8186,-2.8043,-2.7066,-2.5467,-2.3805,-2.2022,-2.0165,-1.8742,-1.7552,-1.6557,-1.6289,0.0,0.0,0.0,0.0,0.0,0.0,0.0,0.0,0.0,0.0,0.0,0.0,0.0,0.0,0.0,0.0,0.0,0.0,0.0,0.0,0.0,0.0,0.0,0.0,-2.3516,-2.5491,-2.5605,-2.6585,-2.7379,-2.7622,-2.7942,-2.8033,-2.7621,-2.8058,-2.8429,-2.8626,-2.8899,-2.911,-2.911,-2.9241,-2.8714,-2.7357,-2.7626,-2.7179,-2.5918,-2.7318,-2.8049,-2.8195,-2.8962,-2.9391,-2.9518,-2.8876,-2.8555,-2.853,-2.8147,-2.8025,-2.8015,-2.7869,-2.7665,-2.7417,0.0,0.0,0.0,0.0,-2.6547,-2.6516,-1.2588,-1.2488,-1.2312,-1.1776,-1.1691,-1.1691,-1.1691,-1.3065,-1.4423,-1.5304,-1.7032,-1.8795,-2.0477,-2.0889,-2.1233,-2.1693,-2.1939,-2.1406,-1.9918,-2.1332,-2.3876,-2.7547,-2.7804,-2.8556,-3.0008,-2.9341,-2.926,-2.9974,-2.9705,-3.0198,-3.1359,-3.1687,-3.1494,-3.0818,-3.072,-3.002,-2.8927,-2.8506,-2.8359,-2.8354,-2.8621,-2.8201,-2.7306,-2.5629,-2.4374,-2.3258,-2.1669,-2.057,-1.9713,-1.8816,0.0,0.0,0.0,0.0,0.0,0.0,0.0,0.0,0.0,0.0,0.0,0.0,0.0,0.0,0.0,0.0,0.0,0.0,0.0,0.0,0.0,0.0,0.0,0.0,-2.6392,-2.8029,-2.8063,-2.7996,-2.7915,-2.7767,-2.8165,-2.8372,-2.8123,-2.856,-2.9066,-2.9456,-2.9489,-2.9489,-2.9489,-2.9304,0.0,0.0,0.0,-2.7731,-2.7085,-2.8254,-2.8735,-2.852,-2.9547,-2.9889,-2.9665,-2.9501,-2.9334,-2.9154,-2.879,-2.8653,-2.87,-2.8562,-2.8462,-2.828,-2.7576,-2.7086,-2.6724,-2.6677,-2.6646,-2.6599,-1.306,-1.3048,-1.2889,-1.2341,-1.2253,-1.2253,-1.2253,-1.3287,-1.4597,-1.5995,-1.7638,-1.9101,-2.0256,-2.0938,-2.1369,-2.1478,-2.2648,-2.329,-2.3022,-2.5316,-2.6771,-2.6998,-2.9415,-3.0385,-2.9561,-3.0104,-3.0202,-2.9856,-3.0401,-3.1021,-3.1729,-3.1814,-3.142,-3.054,-3.037,-2.9938,-2.9349,-2.8695,-2.8505,-2.8631,-2.8684,-2.8361,-2.7839,-2.7601,-2.7255,-2.6806,-2.5782,-2.4982,-2.4315,-2.3711,-2.1976,-2.0044,-1.9643,-1.8752,0.0,0.0,0.0,0.0,0.0,0.0,0.0,0.0,0.0,0.0,0.0,0.0,0.0,0.0,0.0,0.0,0.0,0.0,0.0,-2.3998,-2.6332,-2.8128,-2.85,-2.8411,-2.8266,-2.8287,-2.8662,-2.8903,-2.8661,-2.9099,-2.9379,-2.9478,-2.9489,-2.9489,-2.9489,-2.9812,-2.9548,-2.8535,-2.8943,-2.8828,-2.8053,-2.7902,-2.8332,-2.9185,-2.908,0.0,-2.9451,-2.9473,-2.917,-2.8588,-2.8903,-2.9141,-2.9253,-2.8227,-2.7424,-2.6962,-2.7388,-2.7506,-2.7375,-2.7084,-2.6909,-2.6894,-1.3198,-1.3198,-1.311,-1.2852,-1.2801,-1.2801,-1.2801,-1.3778,-1.4896,-1.5951,-1.7533,-1.883,-1.9605,-2.0257,-2.0588,-2.0474,-2.1105,-2.2182,-2.3713,-2.575,-2.7425,-2.864,-3.0854,-3.1552,-3.0518,-3.0971,-3.1002,-3.0661,-3.1053,-3.1422,-3.1732,-3.1952,-3.1462,-3.0368,-3.0399,-2.9993,-2.928,-2.8953,-2.8835,-2.893,-2.9237,-2.9054,-2.855,-2.8378,-2.8095,-2.7667,-2.7253,-2.6752,-2.6193,-2.5511,-2.4231,-2.2806,-2.2042,-2.1059,-1.9626,0.0,0.0,0.0,0.0,0.0,0.0,0.0,0.0,0.0,0.0,0.0,0.0,0.0,0.0,-1.9177,-2.1219,0.0,-2.4234,-2.6267,-2.7715,-2.86,-2.8731,-2.8956,-2.9024,-2.8648,-2.902,-2.9258,-2.9164,-2.9565,-2.9946,-3.0175,-3.0175,-3.0123,-2.9869,-3.0456,-3.0321,-2.9267,-2.965,-2.967,-2.9225,-2.8769,-2.8881,-2.9623,-2.948,-2.9502,-2.9607,-2.9894,-2.9645,-2.9069,-2.9295,-2.9781,-3.0308,-2.9529,-2.8919,-2.8448,-2.8081,-2.7751,-2.7448,-2.7352,-2.7545,-2.7827,-1.3198,-1.3198,-1.3198,-1.3198,-1.3198,-1.3198,-1.3198,-1.4074,-1.4995,-1.5702,-1.7063,-1.8187,-1.8736,-1.9222,-1.9558,-1.9667,-1.9896,-2.1141,-2.382,-2.5591,-2.7655,-3.0248,-3.1641,-3.2062,-3.1396,-3.1633,-3.166,-3.1475,-3.1528,-3.1604,-3.1856,-3.1922,-3.1358,-3.0271,-3.0451,-3.0043,-2.9211,-2.9159,-2.9157,-2.9237,-2.9754,-2.9537,-2.8865,-2.846,-2.8147,-2.7885,-2.7823,-2.7557,-2.7098,-2.6214,-2.5576,-2.4914,-2.3784,-2.2773,-2.158,-1.9225,-1.885,0.0,0.0,0.0,0.0,0.0,0.0,0.0,0.0,-1.6675,-1.7362,-1.9429,-2.0157,-2.1421,-2.4712,-2.4958,-2.568,-2.8845,-2.9351,-2.9297,-2.92,-2.9724,-2.9918,-2.944,-2.9623,-2.9844,-2.9943,-3.0348,-3.0736,-3.1024,-3.1162,-3.0993,-3.0499,-3.1224,-3.1158,-3.0106,-3.0341,-3.0367,-3.0165,-2.9813,-2.9748,-3.0006,-3.0273,-3.0192,-2.9965,-3.04,-3.0359,-2.9952,-3.0038,-3.074,-3.1734,-3.1251,-3.0884,-3.0489,-2.9251,-2.8354,-2.7736,-2.7688,-2.8089,-2.862,-1.3198,-1.3198,-1.3198,-1.3198,-1.3198,-1.3198,-1.3198,-1.3765,-1.4579,-1.5654,-1.6379,-1.7027,-1.761,-1.7962,-1.87,-2.0092,-2.1651,-2.3278,-2.4933,-2.7295,-2.8939,-2.9577,-3.1052,-3.1482,-3.0754,-3.1795,-3.2031,-3.1337,-3.1511,-3.1864,-3.2291,-3.1637,-3.103,-3.0467,-2.9998,-2.9733,-2.9609,-2.9384,-2.9404,-2.9554,-2.9606,-2.9085,-2.824,-2.7766,-2.8335,-2.9285,-2.875,-2.8518,-2.8344,-2.7442,-2.6505,-2.573,-2.5408,-2.4678,-2.3621,-2.1734,-2.0719,-1.9704,-1.724,-1.7646,-1.8764,-1.8924,-1.9429,-2.1009,0.0,-2.4384,-2.3425,-2.6786,-2.7734,-2.8107,-2.8507,-2.9013,-2.9646,-3.0315,-3.0226,-3.0192,-3.0623,-3.079,-3.1007,-3.1407,-3.1062,-3.1005,-3.1498,-3.1954,-3.2068,-3.1622,-3.2048,-3.2082,-3.1579,-3.2073,-3.1995,-3.1158,-3.1158,-3.0932,-3.0457,-3.0215,-3.0357,-3.0772,-3.0893,-3.0789,-3.0511,-3.076,-3.0803,-3.0796,-3.1213,-3.234,-3.3851,-3.2517,-3.1551,-3.0928,-3.0499,-2.9914,-2.9115,-2.8226,-2.8094,-2.8492,-1.3198,-1.3198,-1.3198,-1.3198,-1.3198,-1.3198,-1.3198,-1.3715,-1.4281,-1.4755,-1.5553,-1.6046,-1.5983,-1.6089,-1.6556,-1.7531,-1.9841,-2.1698,-2.2817,-2.6094,-2.8341,-2.908,-3.0695,-3.1448,-3.1254,-3.2084,-3.2139,-3.1487,-3.1578,-3.1728,-3.1935,-3.1573,-3.1173,-3.0683,-3.0427,-3.017,-2.987,-2.9756,-2.9766,-2.9838,-2.9558,-2.888,-2.7977,-2.7609,-2.7565,-2.7666,-2.7422,-2.729,0.0,-2.758,-2.6822,-2.5661,-2.57,-2.4581,-2.2996,-2.1584,-2.0843,-2.0544,-2.0952,-2.0632,-2.0417,-2.1359,-2.1741,-2.2403,-2.4499,-2.4409,-2.4661,-2.7521,-2.889,-2.9704,-2.9939,-3.0427,-3.0904,-3.0982,-3.0758,-3.0727,-3.1121,-3.1599,-3.2182,-3.3046,-3.3464,-3.3427,-3.2762,-3.3377,-3.35,-3.2645,-3.3078,-3.3019,-3.2205,-3.3216,-3.3131,-3.1555,-3.2403,-3.2453,-3.1617,-3.1396,-3.1538,-3.2018,-3.1499,-3.1165,-3.1082,-3.0988,-3.1437,-3.2342,-3.3821,-3.4734,-3.5149,-3.4667,-3.4198,-3.3645,-3.227,-3.1523,-3.104,-2.9239,-2.9132,-2.984,-1.3198,-1.3198,-1.3198,-1.3198,-1.3198,-1.3198,-1.3198,-1.3571,-1.3909,-1.4091,-1.479,-1.511,-1.4727,-1.4532,-1.472,-1.5424,-1.7978,-1.9971,-2.1024,-2.4471,-2.6982,-2.8187,-2.9455,-3.0475,-3.1115,-3.1476,-3.1639,-3.1534,-3.1422,-3.1487,-3.1618,-3.1385,-3.1011,-3.0444,-3.0204,-2.9772,-2.9228,-2.9104,-2.9052,-2.9041,-2.9093,-2.8465,-2.7547,-2.7437,-2.676,-2.5803,-2.5763,-2.568,-2.565,-2.5972,-2.529,-2.4331,-2.4461,-2.3207,-2.1626,-2.1294,-2.0619,-2.0333,-2.2109,-2.2191,-2.203,-2.3051,-2.4002,-2.4565,-2.4284,-2.4839,-2.5945,-2.7911,-2.9207,-3.0148,-3.0589,-3.1026,-3.1339,-3.1472,-3.1425,-3.147,-3.1746,-3.2547,-3.3386,-3.4093,-3.5296,-3.5532,-3.426,-3.4827,-3.4731,-3.3527,-3.4213,-3.4201,-3.3209,-3.4353,-3.4272,-3.2616,-3.3437,-3.3458,-3.2633,-3.2404,-3.2513,-3.2898,-3.2321,-3.1937,-3.1833,-3.2041,-3.2853,-3.423,-3.5776,-3.6694,-3.7103,-3.677,-3.6573,-3.6275,-3.4166,-3.3167,-3.2613,-3.0422,-3.0136,-3.0859,-1.3198,-1.3198,-1.3198,-1.3198,-1.3198,-1.3198,-1.3198,-1.3223,-1.3428,-1.4009,-1.4141,-1.4141,-1.4128,-1.3596,-1.3704,-1.4821,-1.7087,-1.9126,-2.0691,-2.3062,-2.5108,-2.67,-2.6937,-2.7866,-2.9637,-2.9625,-3.0173,-3.1302,-3.103,-3.116,-3.1556,-3.0846,-3.0192,-2.9515,-2.8694,-2.8,-2.7361,-2.6915,-2.6718,-2.6801,-2.7831,-2.7622,-2.6697,-2.7074,-2.6145,-2.4585,-2.4213,-2.409,-2.377,-2.1879,-2.1282,-2.1325,-2.1246,-2.0537,-2.0012,-2.1534,-2.0362,-1.8574,-1.8565,-2.0918,-2.3402,-2.3773,-2.6614,-2.9023,-2.8051,-2.8084,-2.8554,-2.9602,-3.0034,-3.0306,-3.0814,-3.1128,-3.1427,-3.1901,-3.2261,-3.2521,-3.2738,-3.3895,-3.4641,-3.4433,-3.6042,-3.694,-3.636,-3.6336,-3.5699,-3.4114,-3.5423,-3.5843,-3.4787,-3.5243,-3.5332,-3.4707,-3.4012,-3.3449,-3.3193,-3.2966,-3.3005,-3.3211,-3.3515,-3.338,-3.2905,-3.4317,-3.5532,-3.6502,-3.6279,-3.7839,-4.0404,-3.8448,-3.7943,-3.8147,-3.6183,-3.4748,-3.3602,-3.1606,-3.0859,-3.0883,-1.3727,-1.3483,-1.3328,-1.3727,-1.3483,-1.3198,-1.3198,-1.3198,-1.3261,-1.3483,-1.3509,0.0,0.0,0.0,0.0,0.0,-1.6197,-1.7798,-1.886,-2.1655,-2.3849,-2.5175,-2.6444,-2.7958,-2.9754,-2.9331,-2.9458,-3.0175,-2.9656,-2.9589,-3.006,-2.9753,-2.9712,-2.9795,-2.9038,-2.8489,-2.8088,-2.7922,-2.7767,-2.7646,-2.7512,-2.6805,-2.5837,-2.6062,-2.4551,-2.2277,0.0,-2.173,-2.1902,-2.1569,-2.0945,-2.0293,-1.9987,-1.9005,-1.7902,-1.7638,-1.8406,-1.9706,-2.1297,-2.3539,-2.5818,-2.7237,-2.8789,-2.9772,-2.9148,-2.933,-2.9693,-3.0011,-2.9453,-2.8974,-2.9238,-2.9942,-3.056,-3.0878,-3.2545,-3.3867,-3.4076,-3.5149,-3.5913,-3.5967,-3.6839,-3.7278,-3.6701,-3.7148,-3.694,-3.5701,-3.6423,-3.6615,-3.5905,-3.6374,-3.6239,-3.5384,-3.4902,-3.4682,-3.4717,-3.3832,-3.3996,-3.5254,-3.5625,-3.4799,-3.2975,-3.59,-3.7315,-3.7542,-3.8838,-4.0381,-4.1852,-4.0771,-4.0376,-4.0336,-3.8236,-3.6827,-3.5716,-3.3651,-3.2855,-3.2685,-1.4311,-1.4061,-1.3873,-1.4078,-1.3778,0.0,0.0,0.0,0.0,0.0,0.0,0.0,0.0,0.0,0.0,0.0,0.0,-1.6616,-1.7772,-1.9893,-2.1721,-2.316,-2.3944,-2.5155,-2.6907,-2.6278,-2.6566,-2.7829,-2.7861,-2.8313,-2.9218,-2.9379,-2.9506,-2.9534,-2.8899,-2.8292,-2.7683,-2.7313,-2.7116,-2.691,-2.6028,-2.5226,-2.4536,-2.4331,-2.2551,0.0,-1.9475,-1.8991,-1.872,-1.8851,-1.8592,-1.8109,-1.7605,-1.7083,-1.6621,-1.6424,-1.7962,-2.0466,-2.3878,-2.5641,-2.6999,-2.9121,-2.9782,-2.985,-2.9444,-2.967,-3.0034,-3.0274,-2.9071,-2.8116,-2.8635,-2.9554,-3.0008,-2.9457,-3.1854,-3.3701,-3.3482,-3.4499,-3.5419,-3.6026,-3.6996,-3.7394,-3.687,-3.7359,-3.7284,-3.6318,-3.702,-3.724,-3.6711,-3.6831,-3.6593,-3.59,-3.525,-3.5132,-3.5538,-3.434,-3.4462,-3.5907,-3.6061,-3.5332,-3.3926,-3.6532,-3.7886,-3.8277,-4.0067,-4.1503,-4.2556,-4.2135,-4.1966,-4.1765,-3.9815,-3.8376,-3.7063,-3.499,-3.3877,-3.319,-1.4941,-1.4928,-1.4739,0.0,0.0,0.0,0.0,0.0,0.0,0.0,0.0,0.0,0.0,0.0,0.0,0.0,0.0,0.0,-1.736,-1.7884,-1.8911,-2.0669,-1.9761,-1.9994,-2.1616,-2.1044,-2.1935,-2.446,-2.5704,-2.7117,-2.8626,-2.9203,-2.9121,-2.849,-2.7974,-2.7148,-2.601,-2.5052,-2.4647,-2.4551,-2.346,-2.3009,-2.2889,-2.2092,-2.0357,-1.8249,-1.7543,-1.6161,-1.4585,-1.4083,-1.4488,-1.5127,-1.465,-1.5264,-1.644,-1.8021,-1.9217,-2.1087,-2.6002,-2.7106,-2.7332,-2.9465,-2.9839,-2.9571,-2.9272,-2.9478,-2.9884,-3.0327,-2.8847,-2.7732,-2.856,-2.9584,-2.9636,-2.7782,-3.0449,-3.2438,-3.146,-3.2483,-3.3688,-3.4777,-3.6476,-3.737,-3.6906,-3.7096,-3.692,-3.6161,-3.7256,-3.7738,-3.7216,-3.6687,-3.6398,-3.6411,-3.5161,-3.4843,-3.5615,-3.4725,-3.461,-3.5306,-3.516,-3.5331,-3.5802,-3.653,-3.7619,-3.8911,-4.0114,-4.1387,-4.2669,-4.264,-4.2626,-4.2511,-4.0976,-3.9446,-3.7841,-3.5846,-3.4192,-3.2753,0.0,0.0,0.0,0.0,0.0,0.0,0.0,0.0,0.0,0.0,0.0,0.0,0.0,0.0,0.0,0.0,0.0,0.0,-1.5566,-1.6575,-1.7617,-1.861,-1.9296,-2.0391,-2.1997,-2.1243,-2.1367,-2.2432,-2.2488,-2.2883,-2.3656,-2.3697,-2.3963,-2.438,-2.3682,-2.3228,-2.2927,-2.267,-2.2484,-2.2317,-2.2201,-2.1784,-2.1347,-2.1448,-1.9867,-1.7542,-1.7317,-1.5841,-1.4059,-1.4212,-1.5295,-1.6988,-1.9282,-1.9715,-1.959,-2.0595,-2.3247,-2.6152,-2.7466,-2.9613,-3.1494,-3.1518,-3.1483,-3.1268,-3.0583,-3.1701,-3.2015,-2.898,-2.7634,-2.6041,-2.299,-2.5138,-2.7265,-2.6888,-3.1344,-3.4804,-3.4743,-3.5236,-3.5738,-3.6244,-3.6711,-3.712,-3.737,-3.7447,-3.7387,-3.7203,-3.716,-3.7133,-3.718,-3.6904,-3.6614,-3.6411,-3.586,-3.5809,-3.6207,-3.7085,-3.7294,-3.6712,-3.8254,-3.8725,-3.8286,-3.9074,-3.9948,-4.0917,-4.1821,-4.2881,-4.3919,-4.3455,-4.3259,-4.3202,-4.2331,-4.1324,-4.0137,-3.9047,-3.8156,-3.7293,0.0,0.0,0.0,0.0,0.0,0.0,0.0,0.0,0.0,0.0,0.0,0.0,0.0,0.0,0.0,0.0,0.0,0.0,0.0,-1.5579,-1.616,-1.6557,-1.7046,-1.7714,-1.8634,-1.818,-1.8398,-1.9421,-1.9667,-2.0275,-2.1287,-2.1426,-2.1765,-2.2233,-2.1812,-2.1654,-2.1634,-2.1389,-2.1227,0.0,0.0,-1.9809,-1.9176,-1.8936,-1.7563,-1.5754,-1.5719,-1.5516,-1.5426,-1.6594,-1.8035,-1.9574,-2.0941,-2.139,-2.1754,-2.3708,-2.5959,-2.8151,-2.9704,-3.1136,-3.2206,-3.21,-3.2089,-3.1636,-2.9905,-3.0749,-3.0652,-2.6273,-2.4543,-2.3021,-2.0327,-2.3504,-2.63,-2.5395,-3.096,-3.5131,-3.4645,-3.5286,-3.5977,-3.6395,-3.687,-3.7275,-3.7572,-3.7488,-3.7546,-3.7773,-3.7497,-3.7384,-3.7517,-3.6973,-3.6563,-3.6411,-3.6002,-3.62,-3.7057,-3.7978,-3.8386,-3.8249,-3.9459,-3.983,-3.9407,-3.9972,-4.0782,-4.1815,-4.2363,-4.3286,-4.4383,-4.4031,-4.3891,-4.3863,-4.3512,-4.2533,-4.1247,-4.0559,-3.9645,-3.8548,0.0,0.0,0.0,0.0,0.0,0.0,0.0,0.0,0.0,-1.4136,-1.3687,-1.3616,-1.4148,-1.428,0.0,0.0,0.0,0.0,0.0,0.0,-1.484,-1.4896,-1.4387,-1.4141,-1.4186,-1.4217,-1.4884,-1.6296,-1.7226,-1.8422,-1.9858,-2.0313,-2.054,-2.054,-2.054,-2.0571,-2.06,-2.0079,-1.9924,-1.9912,-1.837,-1.7492,-1.6944,0.0,-1.4698,-1.3802,-1.3708,-1.5123,-1.7387,-1.9536,-2.1266,-2.2418,-2.1947,-2.2464,-2.3886,-2.6982,-2.8091,-2.8932,-3.197,-3.2019,-3.1402,-3.1995,-3.2264,-3.1551,-2.84,-2.8592,-2.8015,-2.3015,-2.0984,-1.983,-1.8958,-2.2746,-2.5563,-2.414,-2.9861,-3.417,-3.335,-3.4275,-3.5298,-3.5931,-3.6752,-3.731,-3.7435,-3.7216,-3.7312,-3.7841,-3.7878,-3.7878,-3.7878,-3.6991,-3.6485,-3.6507,-3.5939,-3.6362,-3.7996,-3.8229,-3.8874,-3.9955,-3.9968,-4.0055,-4.0277,-4.028,-4.1015,-4.2343,-4.2548,-4.3334,-4.4397,-4.4326,-4.4294,-4.4364,-4.4266,-4.3261,-4.1822,-4.1355,-4.0194,-3.8762,0.0,0.0,0.0,0.0,0.0,0.0,0.0,0.0,0.0,0.0,-1.6224,-1.4645,0.0,0.0,0.0,0.0,0.0,0.0,0.0,0.0,0.0,-1.4871,-1.4387,-1.4299,-1.4752,-1.4765,-1.4896,-1.5185,-1.5372,-1.5602,-1.5894,-1.5982,-1.6035,-1.6035,-1.6035,-1.6026,-1.6033,-1.5932,-1.6149,-1.6491,-1.5699,-1.5592,-1.577,-1.4569,-1.398,0.0,-1.3238,-1.4661,-1.7098,-1.9304,-2.1876,-2.4634,-2.7152,-2.8208,-2.8709,-2.9706,-3.0878,-3.198,-3.2412,-3.2679,-3.2757,-3.2512,-3.3054,-3.2627,-2.8554,-2.9141,-2.8411,-2.0991,-1.9781,-1.9078,-1.5674,-1.851,-2.2317,-2.5211,-2.8991,-3.2644,-3.5687,-3.5392,-3.5144,-3.5931,-3.5777,-3.5902,-3.6537,-3.6552,-3.6759,-3.7288,-3.7324,-3.7324,-3.7324,-3.6952,-3.6807,-3.7036,-3.6117,-3.6597,-3.8604,-3.9515,-4.0636,-4.1922,-4.1687,-4.2397,-4.3859,-4.2324,-4.2527,-4.4008,-4.4012,-4.4209,-4.4369,-4.3863,-4.3808,-4.4026,-4.3524,-4.3318,-4.3278,-4.3399,-4.3078,-4.2602,0.0,0.0,0.0,0.0,0.0,0.0,0.0,-1.7664,-1.8608,-2.0732,-1.9927,-1.8798,-1.7869,-1.6542,-1.5806,0.0,0.0,0.0,0.0,0.0,0.0,-1.4896,-1.4651,-1.4639,-1.4884,-1.4896,-1.5035,-1.5324,0.0,-1.5035,-1.5311,-1.5022,-1.4896,-1.4896,-1.4896,-1.5047,-1.5324,-1.5324,-1.5454,-1.5698,-1.5693,-1.5296,-1.4673,-1.4369,-1.3873,0.0,-1.2564,-1.4307,-1.6966,-1.7458,-2.0737,-2.5104,-2.8153,-2.957,-3.0224,-3.0711,-3.1789,-3.2771,-3.266,-3.2621,-3.2629,-3.27,-3.3656,-3.2991,-2.7023,-2.723,-2.6322,-1.8041,-1.6696,-1.6315,-1.4192,-1.7124,-2.0695,-2.3091,-2.7846,-3.1926,-3.3901,-3.5704,-3.6613,-3.6057,-3.7093,-3.7494,-3.65,-3.7136,-3.7506,-3.722,-3.7192,-3.7312,-3.7589,-3.6946,-3.6804,-3.718,-3.5905,-3.6739,-3.9991,-4.0005,-4.1164,-4.3454,-4.3313,-4.3714,-4.4551,-4.364,-4.3681,-4.4411,-4.4676,-4.4676,-4.4583,-4.4259,-4.4176,-4.4106,-4.3273,-4.315,-4.3444,-4.3504,-4.3547,-4.3571,0.0,0.0,0.0,0.0,0.0,0.0,0.0,-1.9911,-2.0833,-2.3196,-2.3384,-2.2815,-2.1607,-1.8539,-1.6602,0.0,0.0,0.0,0.0,0.0,0.0,0.0,0.0,0.0,-1.5076,0.0,0.0,-1.5517,-1.511,0.0,0.0,0.0,0.0,0.0,-1.4896,-1.5135,-1.5517,-1.5517,-1.558,0.0,0.0,-1.5255,-1.427,0.0,0.0,0.0,0.0,-1.3739,-1.5948,-1.5808,-1.8912,-2.3343,-2.6269,-2.8321,-2.9809,-3.0392,-3.1308,-3.2235,-3.2687,-3.265,-3.257,-3.3136,-3.4375,-3.3523,-2.605,-2.5512,-2.4213,-1.5827,-1.3968,-1.374,-1.3429,-1.6085,-1.884,-2.0407,-2.5376,-2.9652,-3.1333,-3.4981,-3.7184,-3.6495,-3.8704,-3.9449,-3.7268,-3.8241,-3.8642,-3.7929,-3.7988,-3.8002,-3.7846,-3.7212,-3.6885,-3.7012,-3.5701,-3.6912,-4.0974,-4.017,-4.1342,-4.4504,-4.4411,-4.4504,-4.463,-4.4597,-4.4583,-4.4723,-4.5032,-4.5138,-4.4986,-4.4609,-4.4351,-4.4083,-4.3004,-4.2799,-4.2999,-4.3069,-4.3269,-4.3537,0.0,0.0,0.0,0.0,0.0,0.0,0.0,-2.0277,-2.2263,-2.6794,-2.5358,-2.4167,-2.4874,-2.1655,-1.8835,0.0,0.0,0.0,0.0,0.0,0.0,0.0,0.0,0.0,0.0,0.0,0.0,-1.4959,-1.4909,0.0,0.0,0.0,0.0,0.0,0.0,-1.4941,-1.4959,-1.4959,0.0,0.0,0.0,0.0,0.0,0.0,0.0,0.0,0.0,-1.2565,-1.2768,-1.5879,-1.704,-1.776,-2.1163,-2.4596,-2.7485,-2.8307,-2.9266,-3.0419,-3.2343,-3.322,-3.3684,-3.4356,-3.5547,-3.468,-2.7537,-2.6009,-2.3857,-1.5766,-1.3525,-1.3013,-1.2959,-1.3624,-1.5278,-1.8726,-2.0134,-2.3123,-2.9851,-3.234,-3.4542,-3.747,-3.9206,-3.995,-3.9377,-3.9459,-3.9672,-4.0073,-4.0543,-3.9779,-3.7392,-3.7879,-3.768,-3.6522,-3.5869,-3.711,-4.0435,-4.038,-4.182,-4.4751,-4.4504,-4.4737,-4.5413,-4.5124,-4.5261,-4.5656,-4.5535,-4.558,-4.5615,-4.4265,-4.3633,-4.3459,-4.2396,-4.2036,-4.2194,-4.2716,-4.3141,-4.3473,0.0,0.0,0.0,0.0,0.0,0.0,-2.0376,-2.0439,-2.2122,-2.765,-2.719,-2.6483,-2.6802,-2.4368,-2.1223,-1.7621,0.0,0.0,0.0,0.0,0.0,0.0,0.0,0.0,0.0,0.0,-1.5856,-1.5856,-1.5856,0.0,0.0,0.0,0.0,0.0,0.0,-1.5856,-1.5856,-1.5856,0.0,0.0,0.0,0.0,0.0,0.0,0.0,0.0,0.0,0.0,-1.3008,-1.4172,-1.5571,-1.6856,-1.7038,-1.9432,-2.2812,-2.6151,-2.8116,-2.9721,-3.1783,-3.3312,-3.4416,-3.4844,-3.462,-3.2889,-2.7413,-2.4583,-2.1396,-1.5348,-1.3467,-1.2901,-1.2887,-1.2914,-1.3622,-1.5752,-1.7361,-1.9635,-2.3325,-2.8344,-3.2112,-3.3372,-3.7651,-4.0094,-3.9168,-3.9934,-4.03,-3.9882,-4.1085,-4.0702,-3.8182,-3.8135,-3.7939,-3.7494,-3.6874,-3.8138,-4.1455,-4.1421,-4.246,-4.4551,-4.4457,-4.4551,-4.4862,-4.5032,-4.5201,-4.5384,-4.5761,-4.5911,-4.5793,-4.4805,-4.4175,-4.3783,-4.2417,-4.2121,-4.2475,-4.2501,-4.2693,-4.2995,0.0,0.0,0.0,0.0,0.0,-1.7814,-2.1008,-2.081,-2.2171,-2.7407,-2.7578,-2.7275,-2.7458,-2.5047,-2.2034,-1.8587,-1.7178,0.0,0.0,0.0,0.0,0.0,0.0,0.0,0.0,0.0,-1.6588,-1.6773,-1.6773,-1.6773,0.0,0.0,-1.6663,-1.65,0.0,0.0,0.0,0.0,0.0,0.0,0.0,0.0,0.0,0.0,0.0,0.0,0.0,0.0,0.0,0.0,0.0,-1.6035,-1.4565,-1.6029,-1.9158,-2.3609,-2.6607,-2.9016,-3.1428,-3.3773,-3.5674,-3.6282,-3.4748,-3.2028,-2.7878,-2.3898,-1.9772,-1.5079,-1.3467,-1.2788,-1.2485,-1.2342,-1.2447,-1.298,-1.4544,-1.6486,-1.8676,-2.4259,-2.8436,-2.936,-3.4256,-3.7763,-3.8207,-4.0703,-4.1778,-4.0595,-4.1794,-4.1496,-3.9019,-3.8748,-3.8486,-3.8101,-3.7601,-3.8838,-4.1873,-4.1873,-4.2752,-4.4583,-4.4551,-4.469,-4.5046,-4.5216,-4.5475,-4.5761,-4.621,-4.6255,-4.5947,-4.5142,-4.4414,-4.3701,-4.2424,-4.2136,-4.2384,-4.201,-4.2023,-4.2237,0.0,0.0,0.0,0.0,0.0,0.0,-2.1079,-2.1486,-2.2738,-2.6248,-2.6093,-2.591,-2.662,-2.307,-2.0623,-2.0584,-1.8063,0.0,0.0,0.0,0.0,0.0,0.0,0.0,0.0,0.0,-1.6798,-1.7398,-1.7398,-1.7398,-1.7398,-1.7398,-1.7074,-1.65,0.0,0.0,0.0,0.0,0.0,0.0,0.0,0.0,0.0,0.0,0.0,0.0,0.0,0.0,0.0,0.0,0.0,0.0,0.0,-1.5266,-1.7284,-2.0642,-2.4329,-2.804,-3.1408,-3.4825,-3.7811,-3.9111,-3.6647,-3.2964,-2.9453,-2.4751,-1.9772,-1.5079,-1.3467,-1.2569,-1.152,-1.1518,-1.1456,-1.0743,-1.1089,-1.3057,-1.7677,-2.0297,-2.3063,-2.6459,-2.8879,-3.2109,-3.6673,-4.1931,-4.442,-4.2875,-4.3235,-4.2301,-3.9629,-3.9953,-3.9468,-3.7848,-3.7776,-3.8866,-4.1107,-4.1351,-4.2707,-4.5078,-4.4876,-4.5427,-4.655,-4.6016,-4.6343,-4.7251,-4.7019,-4.6661,-4.6192,-4.5084,-4.3956,-4.2948,-4.2254,-4.1852,-4.1562,-4.1022,-4.1033,-4.1309,0.0,0.0,0.0,0.0,0.0,0.0,0.0,-1.9678,-2.0493,-2.4177,-2.3809,-2.3742,-2.5114,-2.275,-2.0795,-2.0105,-1.7869,0.0,0.0,0.0,0.0,0.0,0.0,0.0,0.0,-1.7191,-1.7576,-1.8481,-1.8857,-1.9233,-1.9635,-1.8857,-1.8204,-1.7639,-1.6839,-1.65,0.0,0.0,0.0,0.0,0.0,0.0,-1.5276,0.0,0.0,0.0,0.0,0.0,0.0,0.0,0.0,0.0,0.0,0.0,0.0,-1.7708,-2.0495,-2.3473,-2.548,-2.7945,-3.0049,-3.0278,-2.8176,-2.572,-2.4466,-2.0364,-1.6296,-1.4464,-1.3467,-1.2702,-1.2113,-1.1495,-1.1312,-1.2049,-1.1573,-1.1936,-1.4219,-2.1283,-2.6531,-2.7301,-3.49,-4.044,-4.1432,-4.3562,-4.4309,-4.2978,-4.2859,-4.2119,-4.0412,-4.0456,-4.0087,-3.9073,-3.9285,-4.0295,-4.2117,-4.2935,-4.3901,-4.496,-4.5333,-4.5671,-4.6076,-4.6254,-4.6535,-4.6785,-4.6442,-4.6469,-4.6587,-4.4914,-4.4145,-4.3996,-4.2911,-4.2135,-4.1686,-4.1826,-4.1485,-4.1109,0.0,0.0,0.0,0.0,0.0,0.0,0.0,-1.8776,-1.9369,-2.2013,-2.1517,-2.1759,-2.3906,-2.1524,-1.9879,-2.008,-1.7882,0.0,0.0,0.0,0.0,0.0,0.0,0.0,-1.7329,-1.7149,-1.8003,-1.9923,-2.0075,-2.0627,-2.1581,-2.0876,-1.981,-1.8456,-1.7754,-1.7089,0.0,0.0,0.0,0.0,0.0,0.0,-1.5543,0.0,0.0,0.0,0.0,0.0,0.0,0.0,0.0,0.0,0.0,0.0,0.0,0.0,-1.7231,-1.9458,-2.2399,-2.524,-2.7329,-2.706,-2.4727,-2.2393,-2.1923,-1.8189,-1.4619,-1.3987,-1.335,-1.2728,-1.2226,-1.1507,-1.1195,-1.182,-1.1198,-1.1878,-1.5341,-2.147,-2.6506,-2.887,-3.6865,-4.2034,-4.1588,-4.3951,-4.486,-4.3369,-4.3085,-4.2416,-4.1095,-4.1039,-4.0808,-4.0357,-4.0363,-4.1295,-4.3184,-4.3729,-4.4527,-4.5566,-4.5842,-4.6106,-4.6388,-4.6535,-4.6683,-4.6844,-4.6574,-4.6571,0.0,-4.5028,-4.4383,-4.4216,-4.2795,-4.1949,-4.1542,-4.1284,-4.0998,-4.0783,0.0,0.0,0.0,0.0,0.0,0.0,0.0,-1.8693,-1.9237,-1.986,-1.9324,-1.9907,-2.261,-1.9525,-1.8066,-2.0129,0.0,0.0,0.0,0.0,0.0,0.0,0.0,0.0,-1.7322,-1.6873,-1.8229,-2.1493,-2.1119,-2.1744,-2.3346,-2.3296,-2.1816,-1.9171,-1.9096,-1.8105,0.0,0.0,0.0,0.0,-1.65,-1.6139,0.0,0.0,0.0,0.0,0.0,0.0,0.0,0.0,0.0,0.0,0.0,0.0,0.0,0.0,0.0,0.0,0.0,-2.5222,-2.7814,-2.7471,-2.4709,-2.1862,-2.1082,-1.769,0.0,-1.3672,-1.3174,-1.271,-1.207,-1.1645,-1.121,-1.0659,-1.0433,-1.281,-1.9922,-2.1855,-2.492,-3.139,-3.6145,-3.8677,-3.8186,-4.3251,-4.5754,-4.3896,-4.3641,-4.2996,-4.1687,-4.1615,-4.1657,-4.1741,-4.1195,-4.1919,-4.4155,-4.3876,-4.4691,-4.658,-4.6373,-4.6624,-4.7251,-4.6858,-4.6858,-4.7266,-4.7249,-4.6862,-4.6294,-4.5349,-4.4555,-4.3831,-4.2096,-4.1364,-4.1119,-3.9799,-3.978,-4.0329,0.0,0.0,0.0,0.0,0.0,0.0,0.0,0.0,0.0,0.0,-1.8053,-1.7804,-1.81,-1.7246,-1.6896,0.0,0.0,0.0,0.0,0.0,0.0,0.0,0.0,0.0,-1.6722,-1.7438,-1.902,-2.1493,-2.2648,-2.4054,-2.5695,-2.5222,-2.3552,-2.0865,-2.0012,-1.8455,0.0,0.0,0.0,0.0,-1.65,-1.6139,0.0,0.0,0.0,0.0,-1.3128,-1.3154,0.0,0.0,0.0,0.0,0.0,0.0,0.0,0.0,-1.501,-1.556,-1.63,0.0,-1.8003,-1.7579,-1.6792,-1.6069,0.0,-1.477,-1.375,-1.3545,-1.3174,-1.3051,-1.3468,-1.2817,-1.2483,-1.3236,-1.2825,-1.467,-2.1174,-2.9934,-3.6166,-3.7572,-4.2071,-4.3184,-3.8295,-4.2615,-4.5133,-4.3523,-4.3206,-4.2616,-4.1643,-4.1615,-4.2139,-4.3262,-4.2697,-4.2878,-4.3936,-4.4589,-4.5403,-4.639,-4.6839,-4.7019,-4.7019,-4.7077,-4.7077,-4.6989,-4.6685,-4.6612,-4.6661,-4.512,-4.4262,-4.3887,-4.2416,-4.1189,-4.0194,-4.0347,-4.0123,-3.9797,0.0,0.0,0.0,0.0,0.0,0.0,0.0,0.0,0.0,0.0,0.0,0.0,0.0,0.0,0.0,0.0,0.0,0.0,0.0,0.0,0.0,0.0,0.0,-1.6635,-1.6911,-1.7513,-1.9271,-2.2246,-2.312,-2.4845,-2.7241,-2.664,-2.4895,-2.2133,-1.9761,-1.7877,0.0,0.0,0.0,-1.65,-1.65,0.0,0.0,0.0,0.0,0.0,-1.3128,-1.3333,0.0,-1.4175,-1.493,-1.5699,0.0,0.0,0.0,0.0,-1.4314,-1.4205,-1.3826,-1.4631,-1.5433,-1.4831,-1.4689,-1.464,-1.4445,-1.3955,-1.3447,-1.3262,-1.3037,-1.3076,-1.3704,-1.4944,-1.5352,-1.387,-1.6925,-2.106,-2.5404,-3.2061,-3.7462,-4.0091,-4.1736,-4.2586,-4.2568,-4.4312,-4.4987,-4.3835,-4.3835,-4.3344,-4.218,-4.2378,-4.2975,-4.3927,-4.4048,-4.4378,-4.4953,-4.5186,-4.5812,-4.677,-4.683,-4.6759,-4.6615,-4.636,-4.6169,-4.601,-4.5684,-4.5686,-4.5808,-4.4555,-4.3991,-4.3842,-4.2105,-4.0962,-4.0212,-3.9885,-3.9906,-4.0044,0.0,0.0,0.0,0.0,0.0,0.0,0.0,0.0,0.0,0.0,0.0,0.0,0.0,0.0,0.0,0.0,0.0,0.0,0.0,0.0,0.0,0.0,-1.6909,-1.6948,-1.7637,-1.7551,-1.9309,-2.2982,-2.3233,-2.4888,-2.7846,-2.772,-2.6038,-2.2945,-1.9359,-1.7287,-1.65,-1.65,-1.6457,-1.638,-1.6466,0.0,0.0,0.0,0.0,0.0,0.0,0.0,0.0,-1.4623,-1.5452,-1.6346,-1.5631,0.0,0.0,0.0,0.0,0.0,-1.314,-1.519,-1.6887,-1.5393,-1.5127,-1.5107,-1.4687,-1.4033,-1.3418,-1.3135,-1.3076,-1.3461,-1.4637,-1.7152,-1.7986,-1.4715,-2.1856,-2.8677,-3.1166,-3.3489,-3.654,-4.0892,-3.9921,-4.0985,-4.6358,-4.6075,-4.5182,-4.4353,-4.475,-4.4345,-4.2897,-4.3387,-4.3917,-4.4355,-4.5125,-4.573,-4.6225,-4.5727,-4.6034,-4.7145,-4.6591,-4.6219,-4.6072,-4.5364,-4.5072,-4.5134,-4.498,-4.4912,-4.4942,-4.4057,-4.3785,-4.3731,-4.1656,-4.079,-4.0515,-3.9184,-3.9457,-4.0238,0.0,0.0,0.0,0.0,0.0,0.0,0.0,0.0,0.0,0.0,0.0,0.0,0.0,0.0,0.0,0.0,0.0,0.0,0.0,0.0,0.0,-1.7947,-1.7463,-1.7674,-1.8744,-1.8317,-1.951,-2.2406,-2.3835,-2.531,-2.6788,-2.8561,-2.7168,-2.2995,-2.0539,-1.8342,-1.65,-1.65,-1.6216,-1.5776,-1.6281,0.0,0.0,0.0,0.0,0.0,0.0,0.0,0.0,-1.4226,-1.4804,-1.562,-1.4461,0.0,0.0,0.0,0.0,0.0,-1.4226,-1.7521,-1.9458,-1.4521,-1.3799,-1.4192,-1.3799,-1.3603,-1.3594,-1.386,-1.3919,-1.5355,-2.0148,-1.8061,-1.6718,-1.9975,-2.6352,-3.2444,-3.6924,-4.3248,-4.5959,-4.1865,-4.4414,-4.4943,-4.0887,-4.391,-4.558,-4.4396,-4.4661,-4.4516,-4.3517,-4.3843,-4.4473,-4.53,-4.5446,-4.573,-4.6225,-4.6344,-4.6444,-4.6429,-4.6324,-4.5896,-4.5218,-4.5224,-4.5451,-4.5847,-4.5804,-4.5986,-4.6167,-4.4425,-4.3702,-4.3511,-4.1735,-4.07,-4.0166,-3.9763,-3.9266,-3.8756,0.0,0.0,0.0,0.0,0.0,0.0,0.0,0.0,0.0,0.0,0.0,0.0,0.0,0.0,0.0,0.0,0.0,0.0,0.0,0.0,0.0,-1.896,-1.8783,-1.8891,-1.9423,-1.9788,-2.133,-2.4092,-2.5473,-2.6879,-2.8284,-2.7469,-2.5372,-2.2146,-1.9924,-1.8041,-1.65,-1.65,-1.6139,-1.5654,0.0,0.0,0.0,0.0,0.0,0.0,0.0,0.0,0.0,0.0,-1.4956,-1.5919,-1.4425,0.0,0.0,0.0,0.0,0.0,-1.3619,-1.5749,-1.7629,-1.683,-1.9262,-2.1808,-2.1735,-2.1356,-2.0517,-1.8766,-1.8346,-1.9152,-2.2016,-2.3036,-2.5642,-3.2306,-3.1333,-3.1496,-3.6596,-3.8392,-3.9308,-3.9754,-4.1266,-4.2482,-4.301,-4.4686,-4.5653,-4.5409,-4.5445,-4.5287,-4.4719,-4.4704,-4.502,-4.5685,-4.5745,-4.5866,-4.621,-4.6314,-4.6314,-4.6109,-4.5505,-4.4997,-4.4601,-4.4229,-4.4314,-4.4758,-4.4374,-4.4371,-4.4542,-4.3057,-4.2725,-4.2968,-4.1509,-4.0825,-4.059,-4.0143,-3.9259,-3.8373,0.0,0.0,0.0,0.0,0.0,0.0,0.0,0.0,0.0,0.0,0.0,0.0,0.0,0.0,0.0,0.0,0.0,0.0,0.0,0.0,-1.7812,-1.9369,-1.9677,-2.0227,-2.1134,-2.1627,-2.3226,-2.5988,-2.6854,-2.8072,-2.9528,-2.6578,-2.3941,-2.1594,-1.951,-1.7802,-1.65,-1.65,-1.6139,-1.5632,0.0,0.0,0.0,0.0,0.0,0.0,0.0,0.0,0.0,0.0,0.0,0.0,0.0,0.0,0.0,-1.3457,-1.3105,-1.312,-1.3389,-1.4807,-1.6874,-1.9769,-2.2955,-2.5915,-2.807,-2.7289,-2.5678,-2.4124,-2.3683,-2.3695,-2.413,-2.7338,-3.204,-3.8434,-3.4061,-3.1635,-3.6875,-3.5148,-3.4987,-3.9536,-3.958,-4.1071,-4.5723,-4.5919,-4.5903,-4.6282,-4.6215,-4.5986,-4.5636,-4.5449,-4.5536,-4.5956,-4.587,-4.5916,-4.6035,-4.5977,-4.5843,-4.5758,-4.4885,-4.431,-4.4037,-4.3543,-4.3515,-4.38,-4.343,-4.3343,-4.3376,-4.2199,-4.2199,-4.2872,-4.1612,-4.1202,-4.1228,-4.0344,-3.9385,-3.8553,0.0,0.0,0.0,0.0,0.0,0.0,0.0,0.0,0.0,0.0,0.0,0.0,0.0,0.0,0.0,0.0,0.0,0.0,0.0,0.0,-1.7093,-1.8258,-1.9287,-2.1486,-2.5099,-2.374,-2.4349,-2.7168,-2.7278,-2.7871,-2.8913,-2.7168,-2.4915,-2.2184,-2.0451,-1.8505,-1.65,-1.65,-1.6139,-1.561,-1.5654,0.0,0.0,0.0,0.0,0.0,0.0,0.0,0.0,0.0,0.0,0.0,0.0,0.0,-1.4133,-1.4046,-1.3743,-1.3721,-1.4912,-1.7752,-2.0714,-2.2138,-1.9406,-1.8403,-2.6345,-2.5055,-2.346,-2.7962,-2.8873,-2.8813,-2.8672,-2.8075,-2.78,-2.8289,-3.2076,-3.6684,-4.163,-4.3313,-4.4258,-4.4657,-4.511,-4.5388,-4.5458,-4.6284,-4.6649,-4.6324,-4.6458,-4.627,-4.5622,-4.5756,-4.5957,-4.6165,-4.583,-4.5608,-4.5652,-4.5219,-4.5005,-4.506,-4.4998,-4.4396,-4.3379,-4.3947,-4.4231,-4.4265,-4.4682,-4.4825,-4.4724,-4.3242,-4.3135,-4.3772,-4.2505,-4.2,-4.1852,-4.0385,-3.9656,-3.9259,0.0,0.0,0.0,0.0,0.0,0.0,0.0,0.0,0.0,0.0,0.0,0.0,0.0,0.0,0.0,0.0,0.0,0.0,0.0,-1.65,-1.7314,-1.911,-1.9939,-2.1506,-2.3973,-2.4808,-2.6402,-2.885,-2.885,-2.8699,-2.836,-2.5661,-2.3276,-2.1232,-1.9183,-1.784,-1.7036,-1.6651,-1.6136,-1.5545,-1.5584,-1.5016,0.0,0.0,0.0,0.0,0.0,0.0,0.0,0.0,-1.4092,-1.4711,-1.3972,-1.3892,-1.4007,-1.3506,-1.3242,-1.3223,-1.3711,-1.7267,-2.0936,-2.1551,-2.1043,-2.2571,-3.0936,-3.1825,-3.0937,-3.1174,-3.2195,-3.2224,-2.9481,-3.2074,-3.3884,-3.1703,-3.5137,-3.8859,-4.0931,-4.2091,-4.305,-4.4012,-4.472,-4.5206,-4.5372,-4.6447,-4.7103,-4.695,-4.6841,-4.6696,-4.6401,-4.6359,-4.6373,-4.6447,-4.6048,-4.5751,-4.5593,-4.5143,-4.4929,-4.4971,-4.457,-4.4232,-4.3943,-4.4197,-4.446,-4.4724,-4.4601,-4.4418,-4.4081,-4.2845,-4.2723,-4.3293,-4.2559,-4.1978,-4.1362,-4.0351,-3.9444,-3.8649,0.0,0.0,0.0,0.0,0.0,0.0,0.0,0.0,0.0,0.0,0.0,0.0,0.0,0.0,0.0,0.0,0.0,0.0,-1.65,-1.65,-1.7275,-1.897,-1.9748,-2.0928,-2.2556,-2.5071,-2.7243,-2.9001,-2.9528,-2.895,-2.7256,-2.4632,-2.2711,-2.1343,-1.9158,-1.8265,-1.8378,-1.7438,-1.6677,-1.6045,-1.5531,-1.4824,0.0,0.0,0.0,0.0,0.0,0.0,0.0,0.0,-1.3671,-1.4272,-1.353,-1.3584,-1.3821,-1.3408,-1.4236,-1.5306,-1.5306,-1.8042,-2.1285,-2.2915,-2.3328,-2.5526,-3.3988,-3.5204,-3.4794,-3.5791,-3.5425,-3.4153,-3.1521,-3.387,-3.5549,-3.3629,-3.6659,-3.9432,-3.9907,-4.0563,-4.1518,-4.2992,-4.3868,-4.4659,-4.5343,-4.6535,-4.7251,-4.7164,-4.7019,-4.6887,-4.68,-4.6668,-4.655,-4.6387,-4.5953,-4.555,-4.5173,-4.4882,-4.4742,-4.4798,-4.4477,-4.4426,-4.4631,-4.484,-4.4893,-4.4783,-4.4654,-4.4244,-4.3527,-4.2783,-4.2728,-4.3056,-4.2494,-4.2067,-4.1623,-4.0882,-4.0047,-3.9222,0.0,0.0,0.0,0.0,0.0,0.0,0.0,0.0,0.0,0.0,0.0,0.0,0.0,0.0,0.0,0.0,0.0,0.0,-1.65,-1.65,-1.6773,-1.7373,-1.8406,-1.9773,-2.1433,-2.4484,-2.6453,-2.7304,-2.8976,-2.8323,-2.5548,-2.4481,-2.3678,-2.2995,-2.0803,-2.0125,-2.0566,-1.8907,-1.789,-1.7235,-1.5417,-1.4709,-1.4571,0.0,0.0,0.0,0.0,0.0,0.0,0.0,-1.3232,-1.3052,-1.3841,-1.3812,-1.3594,-1.3977,-1.7123,-2.0431,-2.0431,-2.08,-2.2257,-2.6886,-2.559,-2.5555,-3.4411,-3.3319,-3.3022,-4.2111,-3.8727,-3.4418,-3.5454,-3.2576,-3.0466,-3.1763,-3.5608,-3.8617,-3.9091,-3.9936,-4.0971,-4.2257,-4.3279,-4.4303,-4.5298,-4.655,-4.7164,-4.6916,-4.6916,-4.68,-4.6594,-4.6594,-4.6446,-4.6025,-4.5526,-4.4979,-4.4332,-4.4317,-4.4302,-4.4332,-4.4783,-4.5096,-4.5334,-4.6022,-4.5603,-4.4377,-4.5005,-4.4541,-4.3305,-4.329,-4.329,-4.3215,-4.243,-4.2486,-4.2882,-4.2032,-4.1663,-4.1513,0.0,0.0,0.0,0.0,0.0,0.0,0.0,0.0,0.0,0.0,0.0,0.0,0.0,0.0,0.0,0.0,0.0,0.0,-1.65,-1.65,-1.6575,-1.6773,-1.7852,-1.8458,-1.853,-2.1339,-2.4372,-2.7577,-2.8152,-2.709,-2.4456,-2.3697,-2.2857,-2.1945,-2.128,-2.0439,-1.9459,-1.8581,-1.7855,-1.7206,-1.5725,-1.4916,-1.4518,0.0,0.0,0.0,0.0,0.0,0.0,0.0,0.0,0.0,-1.3779,-1.3902,-1.3926,-1.3901,-1.4687,-1.5514,-1.5227,-2.0362,-2.5435,-2.3799,-2.8164,-3.3641,-3.662,-3.6356,-3.6721,-4.1189,-3.8332,-3.456,-3.3068,-3.3859,-3.4044,-3.1965,-3.56,-3.861,-3.8309,-4.0021,-4.1607,-4.2514,-4.3836,-4.5132,-4.6344,-4.6785,-4.6931,-4.6727,-4.68,-4.6873,-4.68,-4.7106,-4.7118,-4.6664,-4.607,-4.5477,-4.4813,-4.4188,-4.4268,-4.5005,-4.4654,-4.5012,-4.6022,-4.619,-4.607,-4.5708,-4.5424,-4.4811,-4.3917,-4.2887,-4.2475,-4.2485,-4.2664,-4.2469,-4.2175,-4.295,-4.2514,-4.149,0.0,0.0,0.0,0.0,0.0,0.0,0.0,0.0,-1.9708,-1.9708,-1.9225,-1.8893,0.0,0.0,0.0,-1.7626,-1.7126,-1.6816,-1.6816,-1.6616,-1.66,-1.6861,-1.7513,-1.8277,-1.9103,-2.1435,-2.3644,-2.5728,-2.5908,-2.4979,-2.3012,-2.3326,-2.3351,-2.3125,-2.2911,-2.2009,-2.0572,-1.9582,-1.8392,-1.7018,-1.6232,-1.5448,-1.4719,0.0,0.0,0.0,0.0,0.0,0.0,0.0,0.0,0.0,-1.3118,-1.327,-1.3709,-1.5437,-1.6359,-1.7462,-2.0493,-2.4866,-2.8565,-2.8681,-3.2259,-3.6333,-3.8491,-3.9494,-4.0308,-4.1436,-3.8859,-3.6033,-3.4947,-3.5488,-3.5699,-3.4456,-3.6423,-3.8174,-3.8252,-4.0082,-4.1748,-4.2615,-4.4153,-4.557,-4.6653,-4.68,-4.6668,-4.6447,-4.6712,-4.6887,-4.68,-4.7251,-4.7083,-4.6288,-4.5932,-4.5255,-4.4322,-4.3788,-4.4003,-4.49,-4.443,-4.4803,-4.5918,-4.5918,-4.5783,-4.5484,-4.4811,-4.4287,-4.3798,-4.2609,-4.2114,-4.2084,-4.2034,-4.181,-4.1758,-4.3192,-4.2947,-4.1919,0.0,0.0,0.0,0.0,0.0,0.0,0.0,-1.9708,-1.9708,-1.9708,-1.9281,-1.8968,0.0,0.0,0.0,-1.8185,-1.7646,-1.7312,-1.7312,-1.6795,-1.6773,-1.7373,-1.7493,-1.8885,-2.1745,-2.33,-2.3522,-2.2435,-2.2866,-2.2532,-2.1526,-2.3218,-2.4544,-2.5515,-2.5068,-2.413,-2.2769,-2.1162,-1.8994,-1.6681,-1.6666,-1.602,-1.4982,-1.4314,0.0,0.0,0.0,0.0,0.0,0.0,0.0,0.0,-1.2214,-1.2262,-1.3124,-1.7381,-2.0045,-2.3247,-3.0601,-3.1318,-3.1409,-3.7468,-3.6743,-3.5625,-3.9821,-4.2127,-4.3115,-4.2244,-3.9947,-3.8355,-3.9184,-3.7196,-3.6074,-3.8071,-3.7763,-3.7653,-3.8585,-4.0254,-4.1666,-4.2518,-4.4382,-4.5838,-4.6535,-4.6594,-4.6506,-4.621,-4.6624,-4.68,-4.6639,-4.7077,-4.6711,-4.5397,-4.5334,-4.4691,-4.3394,-4.3319,-4.3618,-4.4317,-4.4069,-4.4366,-4.5214,-4.5259,-4.4945,-4.4272,-4.3574,-4.326,-4.3115,-4.2218,-4.1843,-4.1798,-4.0915,-4.0969,-4.1691,-4.3061,-4.3214,-4.2808,0.0,0.0,0.0,0.0,0.0,0.0,-1.9708,-1.9708,-1.9708,-1.9708,-1.9603,-1.953,-1.953,-1.9043,0.0,-1.8727,-1.7847,-1.7312,-1.7312,-1.6795,-1.6773,-1.7373,-1.8199,-1.9392,-2.0997,-2.0836,-2.0656,-2.0512,-2.2132,-2.2449,-2.1549,-2.3208,-2.4356,-2.4976,-2.529,-2.3813,-2.1041,-1.9371,-1.7524,-1.5775,-1.5666,-1.5266,-1.4651,-1.4087,-1.3165,0.0,0.0,0.0,0.0,0.0,0.0,0.0,-1.2281,-1.2333,-1.2508,-1.3971,-1.7172,-2.0405,-2.1158,-2.6526,-3.2008,-3.2529,-3.5904,-3.919,-3.9597,-4.0723,-4.1497,-4.0925,-4.01,-3.9181,-3.8174,-3.745,-3.7312,-3.8243,-3.8252,-3.8148,-3.8194,-4.0797,-4.2519,-4.2066,-4.489,-4.68,-4.6639,-4.6594,-4.6506,-4.621,-4.6491,-4.6712,-4.6844,-4.7279,-4.7021,-4.5888,-4.5687,-4.5068,-4.3838,-4.3479,-4.3618,-4.4302,-4.3713,-4.3802,-4.4541,-4.4914,-4.478,-4.4246,-4.3468,-4.2823,-4.2218,-4.0683,-4.0059,-4.0127,-4.0901,-4.1663,-4.2524,-4.382,-4.4622,-4.4925,0.0,0.0,0.0,0.0,0.0,0.0,0.0,0.0,-1.9708,-1.9708,-1.9708,-1.9708,-1.9708,-1.9442,0.0,0.0,-1.84,-1.7847,-1.7333,-1.7034,-1.7042,-1.7373,-1.8423,-1.9175,-1.9557,-1.9682,-1.9501,-1.9044,-2.0097,-2.0774,-2.1093,-2.2267,-2.3527,-2.48,-2.4534,-2.2977,-2.0519,-1.9112,-1.7453,-1.5758,-1.5931,-1.5546,-1.4755,-1.3959,-1.2936,-1.1846,-1.1428,0.0,0.0,0.0,0.0,0.0,0.0,0.0,-1.2105,-1.4647,-1.6219,-1.8204,-2.3235,-2.7186,-3.0392,-3.2452,-3.5565,-3.7998,-3.7637,-3.8652,-3.9498,-3.9143,-3.9017,-3.8698,-3.771,-3.7126,-3.716,-3.8337,-3.7831,-3.7565,-3.853,-4.08,-4.2328,-4.2323,-4.5068,-4.674,-4.6167,-4.6417,-4.6418,-4.5962,-4.6447,-4.68,-4.6873,-4.7236,-4.6888,-4.5704,-4.5582,-4.4922,-4.3666,-4.3429,-4.3469,-4.3838,-4.3374,-4.313,-4.3055,-4.333,-4.3341,-4.3065,-4.2109,-4.1558,-4.1224,-3.9914,-3.958,-4.0032,-4.0557,-4.1237,-4.2046,-4.3401,-4.405,-4.4101,0.0,0.0,0.0,0.0,0.0,0.0,0.0,0.0,0.0,-1.9708,-1.9708,-1.9708,-1.9708,-1.9708,-1.953,0.0,0.0,0.0,-1.7504,-1.7363,-1.7364,-1.7546,-1.8405,-1.8743,-1.8517,-1.9175,-1.9103,-1.8278,-1.8048,-1.8871,-2.0611,-2.1224,-2.2636,-2.4605,-2.3462,-2.2011,-2.0341,-1.8885,-1.722,-1.5535,-1.5905,-1.5426,-1.4408,-1.3546,-1.25,-1.1408,-1.0957,-1.0801,-1.0811,-1.0889,0.0,0.0,0.0,0.0,-1.1718,-1.5578,-1.5813,-1.6923,-2.6544,-2.8163,-2.8495,-3.416,-3.5638,-3.5678,-3.5787,-3.7019,-3.8048,-3.765,-3.7834,-3.7895,-3.7397,-3.6582,-3.6619,-3.8415,-3.7279,-3.6998,-3.9262,-4.0804,-4.2039,-4.2872,-4.5141,-4.6417,-4.5857,-4.6329,-4.6461,-4.5871,-4.6547,-4.696,-4.7004,-4.7103,-4.6576,-4.5334,-4.5185,-4.4541,-4.3305,-4.329,-4.329,-4.329,-4.3115,-4.2614,-4.177,-4.1612,-4.1568,-4.1524,-4.0446,-4.0051,-4.0149,-3.93,-3.9431,-4.0198,-4.0075,-4.0654,-4.1655,-4.2703,-4.297,-4.285,0.0,0.0,0.0,0.0,0.0,0.0,0.0,0.0,0.0,0.0,-1.9708,-1.9708,-1.9708,-1.9708,-1.9672,-1.9603,-1.9169,-1.8631,-1.8027,0.0,0.0,-1.8066,-1.8242,-1.8752,-1.9747,-1.887,-1.8602,-1.8961,-1.7909,-1.85,-2.0611,-2.1224,-2.2422,-2.4067,-2.2925,-2.1432,-1.9641,-1.6692,-1.4693,-1.3454,-1.3191,-1.267,-1.2079,-1.2099,-1.1654,-1.0937,-1.0537,-1.0391,-1.044,-1.0781,-1.0908,0.0,0.0,0.0,-1.1042,-1.164,-1.4478,-1.7522,-1.7984,-2.2548,-2.8679,-3.4807,-3.6322,-3.6348,-3.6585,-3.7684,-3.8487,-3.7746,-3.798,-3.7975,-3.6685,-3.6332,-3.6786,-3.8349,-3.7759,-3.7867,-3.9974,-4.1664,-4.2828,-4.3211,-4.5391,-4.677,-4.6476,-4.6901,-4.7076,-4.6754,-4.7061,-4.7337,-4.7495,-4.6841,-4.6097,-4.5319,-4.4751,-4.4092,-4.3305,-4.329,-4.329,-4.329,-4.325,-4.2842,-4.2006,-4.1101,-4.0681,-4.0598,-3.9557,-3.9087,-3.903,-3.815,-3.8318,-3.9169,-3.9639,-4.1198,-4.3107,-4.2493,-4.318,-4.4224,0.0,0.0,0.0,0.0,0.0,0.0,0.0,0.0,0.0,0.0,0.0,-1.9708,-1.9708,-1.9708,-1.9584,-1.9281,-1.9314,-1.8987,-1.8165,-1.7625,-1.7315,-1.725,-1.7262,-1.7498,-1.8042,-1.7507,-1.7378,-1.7652,-1.6804,-1.7857,-2.0655,-2.0596,-2.1606,-2.3409,-2.1681,-2.0466,-1.9556,-1.6601,-1.5041,-1.4472,-1.3337,-1.4518,-1.6562,-1.2776,-1.3022,-1.4956,-1.1511,-1.0303,-1.0361,-1.0762,-1.0752,-1.0596,-1.084,0.0,0.0,0.0,-1.1633,-1.4295,-1.9137,-2.4821,-3.065,-3.5903,-3.7293,-3.7261,-3.6893,-3.7255,-3.7714,-3.7724,-3.7581,-3.722,-3.6243,-3.5643,-3.5865,-3.7771,-3.7416,-3.7789,-4.0378,-4.1573,-4.2635,-4.392,-4.5315,-4.628,-4.6582,-4.7113,-4.7216,-4.6612,-4.7128,-4.7467,-4.7424,-4.6924,-4.6296,-4.5556,-4.4994,-4.4255,-4.3305,-4.329,-4.329,-4.329,-4.2679,-4.2056,-4.134,-4.0275,-3.9697,-3.9552,-3.8451,-3.7986,-3.8,-3.811,-3.8924,-4.0191,-4.0915,-4.2353,-4.392,-4.2682,-4.2743,-4.3323,0.0,0.0,0.0,0.0,0.0,0.0,0.0,0.0,0.0,0.0,0.0,-1.9708,-1.9708,0.0,0.0,0.0,-1.9262,-1.9114,-1.8165,-1.7463,-1.6909,-1.6522,-1.65,-1.65,-1.65,-1.6368,-1.6362,-1.65,-1.5969,-1.7334,-2.0465,-1.9999,-2.0991,-2.3032,-2.1214,-2.0125,-1.9447,-1.6838,-1.5728,-1.5653,-1.4962,-1.702,-2.008,-1.5918,-1.6768,-1.9456,-1.3852,-1.1856,-1.1741,-1.1109,-1.0703,-1.0498,-1.0811,-1.0381,0.0,0.0,0.0,-1.122,-1.999,-2.467,-2.8616,-3.4995,-3.6309,-3.6296,-3.7099,-3.6991,-3.6952,-3.7738,-3.7061,-3.6306,-3.6424,-3.5665,-3.5641,-3.7407,-3.7523,-3.83,-4.0916,-4.1668,-4.2639,-4.4463,-4.5294,-4.5953,-4.6629,-4.7237,-4.7284,-4.6518,-4.7038,-4.7366,-4.7207,-4.6783,-4.6245,-4.553,-4.503,-4.4266,-4.3305,-4.329,-4.316,-4.2917,-4.2125,-4.1263,-4.0376,-3.9571,-3.8958,-3.8529,-3.7656,-3.7349,-3.7533,-3.8456,-3.9789,-4.1326,-4.1903,-4.3236,-4.4569,-4.2491,-4.2153,-4.251,0.0,0.0,0.0,0.0,0.0,0.0,0.0,0.0,0.0,0.0,0.0,-1.9708,-1.9708,-1.9244,-1.893,-1.8893,-1.893,-1.8688,-1.8145,-1.7105,-1.6543,-1.65,-1.65,0.0,-1.65,-1.6003,-1.5977,-1.65,-1.5952,-1.7109,-1.9849,-1.9811,-2.0991,-2.3083,-2.2443,-2.1001,-1.8908,-1.6713,-1.5784,-1.5961,-1.7911,-1.8707,-1.9094,-2.2422,-2.3705,-2.305,-1.7913,-1.6087,-1.5547,-1.2071,-1.0889,-1.0879,-1.0878,-1.0605,-1.0185,0.0,0.0,0.0,-1.6438,-1.7183,-1.8884,-3.0373,-3.1885,-3.1914,-3.7278,-3.7412,-3.6786,-3.8041,-3.6483,-3.5533,-3.7515,-3.7338,-3.7034,-3.7526,-3.874,-4.0209,-4.1825,-4.2573,-4.3366,-4.4547,-4.5437,-4.6246,-4.6812,-4.7307,-4.7394,-4.6915,-4.6901,-4.6916,-4.6916,-4.6135,-4.5485,-4.5042,-4.4392,-4.3805,-4.3305,-4.329,-4.2818,-4.1868,-4.1824,-4.0896,-3.9281,-3.9252,-3.8635,-3.7667,-3.7394,-3.7512,-3.7929,-3.8996,-4.0318,-4.1661,-4.1691,-4.332,-4.5185,-4.1544,-4.1486,-4.2781,0.0,0.0,0.0,0.0,0.0,0.0,0.0,0.0,0.0,0.0,0.0,0.0,0.0,-1.9225,-1.8893,-1.8893,-1.8593,-1.8018,-1.7127,-1.6718,-1.6193,-1.55,-1.5806,-1.5994,-1.5994,-1.5462,-1.5462,-1.5994,-1.5097,-1.6078,-1.8781,-1.9145,-1.9885,-2.0951,-2.079,-2.0263,-1.9346,-1.6809,-1.5752,-1.598,-1.8825,-2.2115,-2.5135,-2.322,-2.5701,-2.9218,-2.1486,-1.8137,-1.7172,-1.5945,-1.3452,-1.0908,-1.0908,-1.0244,-0.9326,-0.8597,-0.8568,-0.9974,-1.5407,-1.7148,-1.9288,-2.708,-3.0355,-3.2133,-3.3784,-3.537,-3.7004,-3.8654,-3.7542,-3.6691,-3.8341,-3.7299,-3.6818,-3.8712,-3.9452,-4.0348,-4.1867,-4.2782,-4.3634,-4.459,-4.548,-4.6169,-4.6676,-4.6876,-4.6749,-4.6306,-4.6407,-4.6557,-4.6697,-4.6226,-4.5739,-4.5209,-4.465,-4.3737,-4.2377,-4.2189,-4.169,-4.0979,-4.0256,-3.9741,-3.9375,-3.8801,-3.8207,-3.7625,-3.7495,-3.7749,-3.8201,-3.8982,-4.0234,-4.175,-4.2124,-4.3196,-4.4159,-4.1337,-4.0753,-4.1198,0.0,0.0,0.0,0.0,0.0,0.0,0.0,0.0,-1.9708,-1.9708,0.0,0.0,0.0,0.0,-1.8554,-1.838,-1.7867,-1.7263,-1.6539,-1.6336,-1.5834,-1.4928,-1.5248,-1.5437,-1.5437,-1.4916,-1.4884,-1.5437,-1.4538,-1.5299,-1.7652,-1.8204,-1.8857,-1.9522,-1.9158,-1.9196,-1.9409,-1.7388,-1.6434,-1.6679,-2.1307,-2.4536,-2.6497,-2.6101,-2.8161,-3.0494,-2.4326,-2.133,-2.0396,-2.0903,-1.8777,-1.5654,-1.4082,-1.1374,-0.8652,-0.7924,-0.8217,-0.9518,-1.2757,-1.4598,-1.7014,-2.2975,-2.582,-2.8132,-3.1843,-3.3647,-3.5577,-3.9226,-3.8891,-3.8509,-4.036,-3.9244,-3.8283,-3.9085,-4.0055,-4.1068,-4.2049,-4.2906,-4.3759,-4.4674,-4.5565,-4.6282,-4.6803,-4.665,-4.6394,-4.6147,-4.6012,-4.606,-4.6343,-4.6194,-4.58,-4.5084,-4.4484,-4.3412,-4.1824,-4.1596,-4.1013,-3.9955,-3.9736,-3.9671,-3.9717,-3.9631,-3.9111,-3.8332,-3.8457,-3.8816,-3.9344,-3.9985,-4.1498,-4.3364,-4.3678,-4.4346,-4.4818,-4.209,-4.1459,-4.1767,0.0,0.0,0.0,0.0,0.0,0.0,0.0,0.0,-1.9738,-1.9768,0.0,0.0,0.0,0.0,0.0,-1.7365,-1.6846,-1.6527,-1.6467,-1.5979,-1.5437,-1.4859,0.0,0.0,-1.489,-1.438,-1.4349,-1.489,-1.4349,-1.4896,-1.6437,-1.7049,-1.7903,-1.8857,-1.7827,-1.794,-1.887,-1.8318,-1.7804,-1.8027,-2.5367,-2.5673,-2.2705,-3.1436,-3.1542,-2.6954,-2.66,-2.5919,-2.5372,-2.6603,-2.6396,-2.4753,-2.0104,-1.3923,-0.8307,-0.7846,-0.8047,-0.8404,0.0,0.0,0.0,-1.7838,-1.7939,-1.9529,-3.1357,-3.2158,-3.2378,-3.9509,-4.0261,-4.0525,-4.3415,-4.3166,-4.153,-3.857,-4.0629,-4.2578,-4.2427,-4.3033,-4.3845,-4.487,-4.5776,-4.6561,-4.7219,-4.6666,-4.6375,-4.6565,-4.5698,-4.5405,-4.5851,-4.5896,-4.5463,-4.4634,-4.376,-4.2857,-4.1863,-4.178,-4.0871,-3.9025,-4.0389,-4.0762,-4.0219,-4.1611,-4.1388,-3.9853,-4.0229,-4.071,-4.1288,-4.2064,-4.3986,-4.6511,-4.6257,-4.6803,-4.726,-4.3748,-4.3585,-4.4657,0.0,0.0,0.0,0.0,0.0,-2.0587,-2.1066,-2.0737,-2.0602,0.0,0.0,0.0,-1.9899,-1.919,-1.8548,-1.7989,-1.7819,-1.7052,-1.5459,-1.5208,-1.4695,-1.3704,-1.4079,-1.4311,-1.4311,-1.4179,-1.4179,-1.4311,-1.4179,-1.4343,-1.4771,-1.5739,-1.6321,-1.6622,-1.6722,-1.671,-1.655,-1.5638,-1.5929,-1.7448,-2.2071,-2.5501,-2.8056,-3.0444,-3.3475,-3.5973,-3.2261,-2.9183,-2.7232,-2.9363,-2.4625,-1.721,-1.3379,-1.044,-0.8307,-0.7846,-0.8236,-0.8691,-0.8061,0.0,0.0,0.0,0.0,0.0,-2.1138,-2.4417,-2.8475,-3.4673,-3.5691,-3.7006,-4.1801,-4.237,-4.1627,-4.0073,-4.1801,-4.3214,-4.2874,-4.3945,-4.4845,-4.4973,-4.6194,-4.6905,-4.6621,-4.6271,-4.6012,-4.5887,-4.5449,-4.5405,-4.5851,-4.5288,-4.4696,-4.4178,-4.417,-4.3631,-4.2466,-4.1803,-4.1407,-4.1346,-4.0524,-4.0748,-4.1882,-4.1519,-4.1037,-4.0447,-4.0271,-4.106,-4.2466,-4.1902,-4.2898,-4.4749,-4.5024,-4.5301,-4.5361,-4.3714,-4.3149,-4.3056,0.0,0.0,-2.0333,-2.1006,-2.156,-2.2054,-2.2428,-2.2158,-2.1964,0.0,0.0,0.0,-2.0391,-2.0497,-1.9994,-1.8371,-1.8228,-1.7281,-1.5041,-1.4896,-1.4393,-1.3248,-1.3778,-1.4103,-1.4103,-1.4103,-1.4103,-1.4103,-1.3858,-1.3614,-1.3413,-1.4507,-1.4909,-1.467,-1.4983,-1.5196,-1.5246,-1.3477,-1.4006,-1.6492,-2.186,-2.4804,-2.6308,-3.015,-3.2621,-3.3997,-3.3314,-3.1345,-2.9643,-3.3564,-2.8033,-1.9067,-1.6574,-1.2743,-0.907,-0.8422,-0.8867,-0.9385,-0.8685,-0.9028,-0.967,-0.9991,0.0,0.0,-1.9977,-2.3343,-2.7633,-3.5544,-3.7419,-3.8709,-4.1937,-4.2622,-4.242,-4.1628,-4.2541,-4.3213,-4.2867,-4.3863,-4.4703,-4.4988,-4.6273,-4.6867,-4.6226,-4.6124,-4.6057,-4.5874,-4.5638,-4.561,-4.5785,-4.4858,-4.4362,-4.4449,-4.4402,-4.3983,-4.3166,-4.2514,-4.2269,-4.2282,-4.1468,-4.1666,-4.2792,-4.2313,-4.1838,-4.1346,-4.1287,-4.1844,-4.2887,-4.2965,-4.4072,-4.5718,-4.6135,-4.6307,-4.6217,-4.5443,-4.4743,-4.4123,0.0,0.0,-2.0957,-2.1769,-2.2906,-2.3789,-2.4014,-2.3924,-2.367,0.0,-2.2596,-2.2017,-2.1671,-2.243,-2.1869,-1.9043,-1.8605,-1.7476,-1.5143,-1.4921,-1.4393,-1.3248,-1.3778,-1.4103,-1.4103,-1.4103,-1.4103,-1.4103,-1.3509,-1.2947,-1.2513,-1.3544,-1.3677,-1.311,-1.311,-1.3629,-1.4387,-1.2053,-1.2704,-1.5907,-2.267,-2.3478,-2.1594,-3.0019,-3.0565,-2.7455,-3.2208,-3.2808,-3.2073,-3.7058,-3.3468,-2.6523,-2.454,-1.8524,-1.1837,-0.9759,-1.0175,-1.1084,-0.9977,-0.9718,-1.001,-1.1092,-1.0293,0.0,-2.2506,-2.4456,-2.6927,-3.7004,-3.9813,-4.0585,-4.1218,-4.156,-4.1667,-4.1383,-4.1607,-4.2007,-4.251,-4.32,-4.3965,-4.4818,-4.6043,-4.6621,-4.6116,-4.6228,-4.6279,-4.627,-4.6048,-4.5794,-4.5475,-4.4549,-4.4338,-4.4983,-4.4626,-4.4315,-4.4091,-4.3779,-4.3287,-4.2623,-4.2824,-4.3105,-4.3396,-4.3661,-4.3372,-4.2732,-4.2931,-4.2993,-4.3166,-4.478,-4.6402,-4.7902,-4.8409,-4.862,-4.8543,-4.7942,-4.7234,-4.659,-1.9708,-2.0243,-2.1226,-2.2936,-2.3872,-2.4933,-2.6581,-2.5899,-2.5555,-2.6522,-2.5667,-2.5311,-2.6127,-2.4631,-2.31,-2.2026,-2.0545,-1.8502,-1.5729,-1.5135,-1.4393,-1.3248,-1.3778,-1.4103,-1.4103,-1.4103,-1.4103,-1.4103,-1.3509,-1.3148,-1.3048,-1.3278,-1.3077,-1.2563,-1.2563,-1.2441,-1.2246,-1.2537,-1.4947,-1.8541,-1.8095,-2.0965,-2.5865,-2.8767,-3.2025,-3.5136,-3.5646,-3.4511,-3.2614,-3.1875,-3.1686,-3.0455,-2.304,-2.2403,-2.2494,-1.2866,-1.3681,-1.661,-1.154,-1.04,-1.0537,-1.0108,-1.0254,0.0,-1.26,-1.4034,-1.65,-2.1702,-2.3607,-2.5672,-3.003,-3.0518,-3.0494,-3.1344,-3.3565,-3.686,-4.1682,-4.3325,-4.4165,-4.441,-4.5566,-4.6403,-4.6461,-4.63,-4.6315,-4.6491,-4.5859,-4.517,-4.4613,-4.4459,-4.4403,-4.438,-4.5358,-4.5885,-4.5814,-4.4926,-4.4559,-4.4706,-4.4002,-4.4226,-4.5246,-4.4443,-4.4585,-4.5375,-4.4617,-4.4565,-4.511,-4.599,-4.6545,-4.7006,-4.8142,-4.862,-4.8604,-4.8466,-4.7716,-4.677,-1.9768,-2.0767,-2.2203,-2.3812,-2.5211,-2.6662,-2.8349,-2.8034,-2.7829,-2.8513,-2.8322,-2.7989,-2.7574,-2.6418,-2.4758,-2.2526,-2.0941,-1.894,-1.6281,-1.5342,-1.4532,-1.369,-1.3946,-1.4242,-1.4488,-1.4242,-1.4103,-1.4103,-1.3232,-1.2497,-1.1958,-1.2262,-1.3315,-1.4842,-1.2574,-1.2975,-1.5251,-1.2911,-1.3785,-1.696,-1.934,-2.413,-3.0072,-3.2228,-3.5065,-3.7963,-3.8295,-3.7518,-3.6227,-3.5392,-3.2659,-2.9308,-2.7687,-2.6166,-2.3657,-1.6984,-1.7466,-1.8846,-1.2871,-1.124,-1.1182,-1.0956,-1.0741,0.0,0.0,-1.4325,-1.6047,-2.0835,-2.2233,-2.3456,-2.6265,-2.6995,-2.738,-2.8121,-3.1577,-3.4636,-3.6088,-4.0051,-4.2898,-4.3135,-4.4675,-4.5537,-4.4994,-4.5845,-4.6447,-4.6594,-4.5757,-4.5183,-4.5084,-4.4835,-4.4854,-4.5237,-4.5841,-4.6321,-4.6738,-4.6038,-4.5511,-4.5293,-4.4539,-4.4476,-4.4986,-4.4242,-4.4632,-4.5866,-4.5334,-4.5241,-4.5493,-4.6168,-4.6205,-4.5926,-4.7017,-4.7656,-4.787,-4.7074,-4.6226,-4.5386,-1.9842,-2.122,-2.2862,-2.4022,-2.5989,-2.7824,-2.9037,-2.9337,-2.9517,-2.9729,-3.041,-3.0398,-2.9059,-2.8803,-2.7433,-2.4218,-2.2722,-2.0758,-1.7942,-1.6648,-1.5853,-1.5531,-1.4587,-1.4708,-1.597,-1.4639,-1.3934,-1.3934,-1.2793,-1.1789,-1.0883,-1.1374,-1.3308,-1.6243,-1.3343,-1.4245,-1.7636,-1.3964,-1.4031,-1.713,-2.2977,-2.7275,-3.0628,-3.4406,-3.6552,-3.7758,-3.9974,-4.0442,-4.0034,-4.0052,-3.4795,-2.8756,-3.1719,-2.9407,-2.4677,-2.0213,-2.0708,-2.1227,-1.4411,-1.2393,-1.221,-1.2194,-1.1599,-1.1992,0.0,0.0,0.0,-2.1642,-2.2617,-2.2746,-2.3098,-2.392,-2.4709,-2.52,-2.9302,-3.1589,-2.9197,-3.4716,-3.9219,-3.9762,-4.2771,-4.4107,-4.2361,-4.3751,-4.5198,-4.6197,-4.463,-4.4251,-4.5686,-4.5253,-4.5318,-4.6159,-4.6108,-4.6372,-4.7064,-4.6703,-4.615,-4.5346,-4.5009,-4.4825,-4.4662,-4.4344,-4.4818,-4.5933,-4.5795,-4.5631,-4.5465,-4.5782,-4.5561,-4.5137,-4.591,-4.658,-4.6875,-4.5534,-4.4589,-4.392,-1.9842,-2.0827,-2.2059,-2.2793,-2.5024,-2.6971,-2.7705,-2.8323,-2.9116,-3.0253,-3.1485,-3.2643,-3.3594,-3.314,-3.2345,-3.1378,-2.9659,-2.6797,-2.2533,-2.0799,-2.0132,-2.054,-1.6419,-1.5936,-1.9874,-1.5585,-1.3303,-1.3303,-1.2228,-1.1613,-1.1487,-1.1565,-1.185,-1.2412,-1.557,-1.5576,-1.3412,-1.6983,-2.1411,-2.613,-2.6969,-2.4691,-2.1579,-2.846,-3.2217,-3.4531,-4.0007,-4.1789,-4.1149,-3.8574,-3.6959,-3.481,-2.7921,-3.1413,-3.5094,-2.012,-2.2295,-2.7275,-1.6751,-1.4133,-1.4072,-1.2574,-1.2944,-1.3126,-1.1055,0.0,-1.2192,-1.2141,0.0,-1.2935,-1.3833,0.0,0.0,-1.6008,-2.008,-2.3331,-2.3904,-2.766,-3.0725,-3.1838,-3.8437,-4.1688,-3.8552,-3.8193,-4.0104,-4.4734,-4.0688,-4.0149,-4.5035,-4.5223,-4.5356,-4.5765,-4.6104,-4.6388,-4.6668,-4.6474,-4.6052,-4.5468,-4.6008,-4.628,-4.6328,-4.6289,-4.6585,-4.7074,-4.6477,-4.6097,-4.5849,-4.4901,-4.4798,-4.532,-4.5849,-4.6103,-4.6087,-4.5486,-4.473,-4.389,-1.9768,-2.11,-2.2373,-2.2643,-2.4223,-2.5929,-2.7375,-2.9445,-3.0926,-3.1047,-3.2258,-3.2939,-3.2561,-3.1561,-3.0936,-3.1046,-2.9683,-2.7464,-2.4202,-2.276,-2.1004,-1.8655,-1.6579,-1.6051,-1.7273,-1.4898,-1.336,-1.2739,-1.1623,-1.0922,-1.0608,-1.0608,-1.2357,-1.5572,-1.7397,-1.9356,-2.132,-2.1301,-2.2264,-2.3823,-2.4517,-2.2825,-2.1082,-3.2241,-3.7844,-4.0092,-4.2614,-4.37,-4.3785,-4.3113,-3.8636,-3.3835,-3.6371,-3.4621,-3.0672,-2.5345,-2.5205,-2.4887,-1.6415,-1.6622,-1.8323,-1.436,-1.5842,-1.7097,-1.2589,-1.1218,-1.0947,-1.1107,0.0,0.0,0.0,0.0,0.0,0.0,-1.816,-2.0748,-1.9136,-2.4338,-2.875,-2.9921,-3.2877,-3.5361,-3.6755,-3.735,-3.9613,-4.437,-4.151,-4.1411,-4.5647,-4.6249,-4.6407,-4.6211,-4.6282,-4.6298,-4.6333,-4.61,-4.5776,-4.5321,-4.5897,-4.6315,-4.6603,-4.6484,-4.6732,-4.7247,-4.6346,-4.5415,-4.4449,-4.4242,-4.3745,-4.3278,-4.3841,-4.4071,-4.3962,-4.3024,-4.2231,-4.1443,-1.9708,-2.1026,-2.2164,-2.2164,-2.337,-2.5076,-2.727,-2.946,-3.1017,-3.1451,-3.2333,-3.2689,-3.1954,-3.1725,-3.1769,-3.211,-3.1879,-3.0581,-2.7792,-2.5778,-2.3689,-2.1495,-1.8247,-1.6984,-1.799,-1.5238,-1.3258,-1.219,-1.1034,-1.0356,-1.0119,-0.9968,-1.2191,-1.6361,-1.7832,-2.1133,-2.5573,-2.4354,-2.4368,-2.5269,-2.6175,-2.6578,-2.7645,-3.6413,-4.1759,-4.4574,-4.4618,-4.5054,-4.5506,-4.4946,-3.9639,-3.438,-4.0662,-3.6627,-2.9706,-3.0304,-2.9353,-2.6473,-1.891,-2.0018,-2.1898,-1.5836,-1.7028,-1.8423,-1.373,-1.2031,-1.1559,-1.2032,-1.1964,0.0,0.0,0.0,-1.3171,-1.3773,0.0,-1.8569,-1.6144,-2.071,-2.4644,-2.5574,-2.6739,-2.9367,-3.4145,-3.4522,-3.6787,-4.248,-4.0618,-4.1334,-4.6151,-4.6983,-4.7113,-4.6542,-4.6298,-4.61,-4.592,-4.5807,-4.5688,-4.5659,-4.6004,-4.6376,-4.68,-4.6519,-4.6417,-4.6412,-4.5337,-4.4227,-4.3185,-4.2994,-4.2456,-4.1796,-4.1873,-4.1902,-4.181,-4.1096,-4.0383,-3.962,-1.9708,-2.0273,-2.0763,-2.0763,-2.2353,-2.4522,-2.7195,-2.7151,-2.7919,-3.1092,-3.1543,-3.2166,-3.3726,-3.6362,-3.7867,-3.7568,-3.9474,-3.9071,-3.5214,-3.0987,-3.0186,-3.3665,-2.271,-1.9453,-2.5815,-1.7584,-1.2699,-1.1628,-1.0483,-1.0181,-1.0656,-1.0131,-1.0379,-1.1443,-1.6258,-1.9045,-2.0448,-2.5094,-3.0443,-3.5817,-3.5934,-3.8731,-4.2381,-3.8167,-3.9927,-4.4735,-4.4889,-4.5431,-4.5302,-4.086,-3.9683,-3.9339,-3.4995,-3.6373,-3.8586,-3.3285,-3.5109,-3.663,-2.6534,-2.4571,-2.3685,-1.6479,-1.5089,-1.4855,-1.2409,-1.3,-1.3925,-1.3356,-1.4528,-1.5438,-1.4905,-1.4591,-1.4402,-1.4298,-1.4802,0.0,0.0,-1.547,-1.536,-1.5712,-2.0093,-2.4949,-2.9652,-2.7252,-2.9083,-3.7933,-3.5763,-3.764,-4.5962,-4.6919,-4.6919,-4.6346,-4.5972,-4.5735,-4.5515,-4.5515,-4.595,-4.6842,-4.6857,-4.6991,-4.7247,-4.6876,-4.5849,-4.4347,-4.3241,-4.2784,-4.26,-4.0938,-4.0902,-4.1848,-4.0429,-3.9873,-3.9978,-4.0719,-4.0368,-3.9417,-2.0363,-2.0902,-2.1081,-2.0183,-2.1321,-2.3236,-2.5869,-2.7575,-2.9295,-3.1293,-3.1944,-3.2557,-3.3403,-3.4695,-3.5803,-3.6545,-3.7662,-3.7101,-3.4293,-3.1889,-3.0252,-2.9474,-2.3767,-2.1194,-2.2443,-1.8261,-1.4927,-1.2663,-1.1927,-1.1475,-1.1286,-1.1111,-1.1552,-1.2659,-1.7413,-2.1931,-2.6128,-2.8461,-3.1834,-3.5545,-3.5173,-3.6929,-3.9921,-4.0697,-4.2241,-4.4,-4.3776,-4.4413,-4.5062,-4.3399,-4.1353,-3.9756,-4.1022,-3.8832,-3.5837,-3.6224,-3.5589,-3.3895,-2.9795,-3.1721,-3.2644,-2.3137,-2.3134,-2.3389,-1.561,-1.4581,-1.4903,-1.3566,-1.4929,-1.5917,-1.4614,-1.4561,-1.4764,-1.4923,-1.5082,-1.5023,0.0,-1.3666,-1.3554,-1.4819,-1.9272,-2.2592,-2.3526,-2.6616,-3.0934,-3.6563,-3.7652,-4.0743,-4.6931,-4.717,-4.7078,-4.7017,-4.6226,-4.5441,-4.4658,-4.5075,-4.5175,-4.5008,-4.557,-4.5694,-4.5384,-4.477,-4.3878,-4.2773,-4.1701,-4.0974,-4.0563,-4.0222,-4.0118,-4.0162,-4.0039,-3.9661,-3.9236,-3.9663,-3.9217,-3.8408,-2.1111,-2.1216,-2.1141,-2.0513,-2.1695,-2.355,-2.5944,-2.8173,-3.0251,-3.2045,-3.2715,-3.325,-3.3867,-3.4983,-3.6005,-3.6713,-3.7759,-3.7373,-3.503,-3.3439,-3.1859,-3.0033,-2.6513,-2.4464,-2.4244,-2.0694,-1.7659,-1.5235,-1.3511,-1.25,-1.2165,-1.1791,-1.1986,-1.283,-1.608,-2.1472,-2.8188,-2.925,-3.282,-3.7731,-3.7631,-3.8241,-3.9493,-4.229,-4.2567,-4.1532,-4.2544,-4.3564,-4.4495,-4.4798,-4.3422,-4.2089,-4.5019,-4.2462,-3.8731,-4.0845,-3.9622,-3.711,-3.4734,-3.6908,-3.7672,-2.8716,-2.8669,-2.8523,-1.9768,-1.8542,-1.8819,-1.7242,-1.7359,-1.8175,-1.9656,-1.7763,-1.6349,-1.7545,-1.6508,-1.5052,0.0,-1.2948,-1.3049,-1.4294,-1.7437,-2.0291,-2.2402,-2.4469,-2.9085,-3.7315,-3.7685,-4.0515,-4.7347,-4.7446,-4.7369,-4.7513,-4.6518,-4.5534,-4.4658,-4.5096,-4.5013,-4.4454,-4.4715,-4.4555,-4.3998,-4.3126,-4.2273,-4.1464,-4.0388,-3.9838,-3.9687,-3.9475,-3.9426,-3.9406,-3.9348,-3.9271,-3.9221,-3.9122,-3.8736,-3.8237,-2.1829,-2.1256,-2.1107,-2.1814,-2.3379,-2.5247,-2.739,-2.8786,-3.0551,-3.319,-3.3736,-3.4286,-3.5311,-3.7311,-3.8422,-3.8158,-3.9812,-3.9837,-3.7399,-3.5623,-3.4968,-3.5546,-3.0834,-2.9104,-3.102,-2.47,-2.0625,-1.8995,-1.5152,-1.3248,-1.3173,-1.2165,-1.1727,-1.1866,-1.2617,-1.7927,-2.6419,-2.7601,-3.3629,-4.238,-4.3088,-4.2598,-4.1571,-4.2862,-4.0844,-3.771,-4.1392,-4.3022,-4.3619,-4.4849,-4.5534,-4.6027,-4.6402,-4.6668,-4.6829,-4.6638,-4.6741,-4.5927,-4.1271,-4.022,-3.9006,-3.3078,-3.1542,-3.0061,-2.4609,-2.4645,-2.5439,-2.4063,-2.1996,-2.2415,-2.8975,-2.3737,-1.9197,-2.1549,-1.866,-1.5355,-1.3282,-1.3212,-1.3516,-1.3906,-1.4891,-1.8268,-2.5288,-2.1016,-2.4041,-3.913,-3.5746,-3.7307,-4.7178,-4.7448,-4.7432,-4.7741,-4.6804,-4.6017,-4.541,-4.5358,-4.5263,-4.5037,-4.4256,-4.3603,-4.3125,-4.1947,-4.0998,-4.0305,-3.9262,-3.9242,-3.99,-3.8696,-3.8827,-3.9643,-3.8448,-3.8707,-3.9701,-3.9096,-3.8919,-3.8919,-2.1829,-2.2742,-2.3962,-2.5136,-2.4522,-2.5046,-2.8558,-2.9359,-3.0655,-3.3845,-3.4701,-3.5527,-3.6811,-3.7453,-3.7561,-3.7052,-3.7614,-3.7453,-3.6184,-3.5311,-3.5304,-3.6279,-3.2835,-3.1123,-3.1581,-2.586,-2.194,-2.0093,-1.6298,-1.4036,-1.3185,-1.291,-1.2601,-1.2287,-1.3288,-1.869,-2.7112,-2.7972,-3.3993,-4.2879,-4.1832,-4.0358,-3.9,-4.0861,-3.9491,-3.7125,-4.154,-4.3474,-4.3919,-4.4196,-4.4835,-4.5418,-4.5023,-4.5798,-4.6784,-4.6062,-4.6502,-4.6854,-4.527,-4.4862,-4.3681,-3.8567,-3.6509,-3.4494,-2.9656,-2.9517,-2.9922,-2.8161,-2.8614,-2.8548,-2.6053,-2.4188,-2.2277,-2.0065,-1.8342,-1.6899,-1.5846,-1.4953,-1.4805,-1.5831,-1.9177,-2.0279,-1.7365,-2.341,-2.8558,-3.1114,-3.4911,-4.0177,-4.7307,-4.3868,-4.3786,-4.8369,-4.6989,-4.552,-4.4192,-4.3783,-4.291,-4.1596,-4.1775,-4.1133,-3.9807,-3.9804,-3.9344,-3.8572,-3.8408,-3.8498,-3.8667,-3.8333,-3.8658,-3.9329,-3.9011,-3.8953,-3.9096,-3.8976,-3.8919,-3.8808,-2.3475,-2.5001,-2.6742,-2.8083,-2.7149,-2.7178,-2.9996,-3.041,-3.1355,-3.4101,-3.515,-3.6018,-3.7057,-3.7945,-3.8199,-3.7615,-3.7561,-3.6934,-3.5464,-3.5606,-3.5687,-3.5464,-3.4363,-3.3652,-3.3497,-2.9294,-2.5848,-2.331,-1.929,-1.6299,-1.4269,-1.3533,-1.2897,-1.2459,-1.3528,-1.7826,-2.4586,-2.9389,-3.4883,-4.0421,-4.0914,-4.0482,0.0,-4.0982,-4.0406,-3.9256,-4.209,-4.327,-4.3531,-4.4081,-4.4705,-4.5288,-4.5171,-4.5903,-4.6682,-4.6181,-4.6224,-4.6385,-4.6123,-4.5683,-4.4676,-4.2047,-4.0746,-3.8848,-3.4279,-3.377,-3.3991,-3.2889,-3.2195,-3.1995,-3.2593,-2.8499,-2.369,-1.9497,-1.7933,-1.713,-1.6741,-1.6084,-1.5843,-1.6455,-1.8924,-1.9081,-1.5263,-2.419,-2.9896,-2.9102,-3.2665,-3.7152,-4.2412,-4.147,-4.2555,-4.6493,-4.6141,-4.5097,-4.345,-4.2676,-4.1723,-4.0636,-4.0385,-3.9886,-3.9111,-3.9112,-3.8938,-3.875,-3.8639,-3.8835,-3.9197,-3.8792,-3.903,-3.9625,-3.9493,-3.9401,-3.9254,-3.9097,-3.8996,-3.8822,-2.5854,-2.747,-2.9205,-3.0313,-3.0292,-3.0539,-3.1838,-3.1949,-3.2587,-3.4547,-3.5659,-3.6452,-3.6988,-3.8514,-3.9314,-3.881,-3.8472,-3.7399,-3.5266,-3.6313,-3.6232,-3.4441,-3.5528,-3.6101,-3.5832,-3.3136,-3.0111,-2.6767,-2.2538,-1.874,-1.539,-1.3878,-1.2901,-1.2494,-1.3532,-1.6832,-2.2149,-3.1307,-3.6071,-3.7688,-4.0308,-4.1474,-4.1681,-4.1907,-4.1956,-4.2049,-4.262,-4.2836,-4.3041,-4.4093,-4.4762,-4.5201,-4.5536,-4.5903,-4.6182,-4.605,-4.5595,-4.5127,-4.5084,-4.4313,-4.3589,-4.3806,-4.3647,-4.2396,-3.8382,-3.7653,-3.7787,-3.769,-3.4804,-3.4494,-4.1725,-3.4009,-2.505,-2.0555,-1.8867,-1.8342,-1.8847,-1.8327,-1.7791,-1.7516,-1.8287,0.0,-1.6405,-2.3673,-2.8765,-2.9402,-2.9343,-3.1508,-3.6643,-3.9511,-4.1996,-4.4233,-4.5115,-4.47,-4.2837,-4.1754,-4.1043,-4.0626,-3.9604,-3.9256,-3.9553,-3.9172,-3.9297,-3.9787,-3.9474,-3.9756,-4.0446,-3.963,-3.9639,-4.0187,-3.9935,-3.9798,-3.9668,-3.9329,-3.9016,-3.8828,-2.7151,-2.8816,-3.0238,-3.0462,-3.1794,-3.3256,-3.4526,-3.4297,-3.4678,-3.6626,-3.7938,-3.874,-3.8815,-3.87,-3.8589,-3.8467,-3.8119,-3.7467,-3.6348,-3.7126,-3.7208,-3.6171,-3.6525,-3.6661,-3.6442,-3.3122,-2.9625,-2.6068,-2.2222,-1.8116,-1.3872,-1.33,-1.2902,-1.2698,-1.3659,-1.9159,-2.8035,-3.2601,-3.7084,-4.1029,-4.0308,-4.0442,-4.1059,-4.0907,-4.0797,-4.0845,-4.1937,-4.3034,-4.3913,-4.3612,-4.39,-4.4203,-4.3095,-4.3371,-4.3979,-4.3272,-4.3603,-4.4196,-4.3965,-4.3631,-4.3297,-4.312,-4.2913,-4.2538,-4.1732,-4.1606,-4.1562,-4.1353,-4.0693,-3.9759,-3.8389,-3.4804,-3.0641,-2.64,-2.5786,-2.7003,-3.0265,-2.7015,-2.4147,-2.377,-2.7569,-2.6442,-1.6819,-2.1657,-2.5139,-2.4524,-2.5134,-2.9792,-3.9561,-3.649,-3.8313,-4.675,-4.5864,-4.4046,-4.1466,-4.0324,-3.9211,-3.8143,-3.8467,-3.8478,-3.8274,-3.9059,-3.9541,-3.9816,-3.9923,-4.0149,-4.0476,-4.008,-4.0002,-4.0104,-4.0064,-3.9721,-3.931,-3.9247,-3.8817,-3.8339,-3.0349,-3.0746,-3.1276,-3.2796,-3.3572,-3.4575,-3.6182,-3.6488,-3.6592,-3.6832,-3.7442,-3.7825,-3.7825,-3.8431,-3.8749,-3.845,-3.8224,-3.7874,-3.7261,-3.7632,-3.7715,-3.7427,-3.7414,-3.7235,-3.6839,-3.5015,-3.1681,-2.6822,-2.4109,-2.0083,-1.4827,-1.412,-1.3398,-1.2857,-1.6234,-2.1111,-2.7162,-3.2559,-3.6493,-3.9144,-3.976,-4.0564,-4.1294,-4.0553,-4.0523,-4.0859,-4.0934,-4.1757,-4.2871,-4.3032,-4.3364,-4.3595,-4.2732,-4.2922,-4.3313,-4.278,-4.2854,-4.3085,-4.2955,-4.2553,-4.2095,-4.2109,-4.1936,-4.1762,-4.1645,-4.1688,-4.1759,-4.1756,-4.1736,-4.0705,-3.7332,-3.4412,-3.2001,-3.0464,-2.8396,-2.8433,-3.2637,-3.0777,-2.871,-2.8014,-2.9789,-2.8282,-2.1174,-2.2382,-2.307,0.0,-2.3361,-2.814,-3.6704,-3.5042,-3.6964,-4.381,-4.4237,-4.3025,-4.025,-3.8883,-3.7989,-3.7566,-3.7965,-3.8288,-3.8466,-3.9641,-4.0129,-4.0129,-4.0557,-4.085,-4.0944,-4.085,-4.0527,-4.006,-3.9755,-3.9465,-3.916,-3.8812,-3.8478,-3.8202,-3.2981,-3.2495,-3.2491,-3.4952,-3.5246,-3.563,-3.7158,-3.8084,-3.8226,-3.7153,-3.7015,-3.7015,-3.7015,-3.838,-3.9115,-3.864,-3.8657,-3.8485,-3.8057,-3.8086,-3.8171,-3.82,-3.8033,-3.7661,-3.703,-3.6784,-3.3923,-2.8326,-2.6391,-2.2509,-1.6862,-1.5507,-1.4778,-1.4819,-1.9482,-2.3579,-2.736,-3.2841,-3.6067,-3.7672,-3.9506,-4.0764,-4.1424,-4.0473,-4.0609,-4.1193,-4.0559,-4.0701,-4.1334,-4.2314,-4.2745,-4.2863,-4.2501,-4.2546,-4.2692,-4.2414,-4.2192,-4.1953,-4.1953,-4.1469,-4.0972,-4.1213,-4.1071,-4.0887,-4.073,-4.0816,-4.0986,-4.1129,-4.1437,-4.067,-3.7489,-3.5783,-3.4533,-3.3547,-3.1107,-3.0529,-3.3958,-3.3203,-3.2139,-3.1664,-2.9758,-2.7702,-2.5714,-2.2873,-2.1403,-2.1988,-2.3243,-2.6856,-3.3426,-3.421,-3.6454,-4.0829,-4.1897,-4.1128,-3.8457,-3.7645,-3.7345,-3.7548,-3.8014,-3.8587,-3.9277,-4.0462,-4.0912,-4.0857,-4.1175,-4.127,-4.1123,-4.1007,-4.0523,-3.9842,-3.9233,-3.8986,-3.8928,-3.8391,-3.8289,-3.8391,-3.2723,-3.3403,-3.4078,-3.52,-3.634,-3.7186,-3.7382,-3.8427,-3.9156,-3.9037,-3.901,-3.901,-3.901,-3.9214,-3.9278,-3.9224,-3.9428,-3.9344,-3.8757,-3.8887,-3.8766,-3.8214,-3.82,-3.7786,-3.703,-3.6976,-3.481,-3.0429,-2.7829,-2.4103,-1.941,-1.7161,-1.7821,-2.0928,-2.2352,-2.7526,-3.5167,-3.4873,-3.7233,-4.1066,-4.0324,-4.0322,-4.0703,-4.0594,-4.0849,-4.136,-4.1792,-4.1117,-4.014,-4.1306,-4.1743,-4.1615,-4.0864,-4.0769,-4.0913,-4.0682,-4.0713,-4.0872,-4.0872,-4.0787,-4.073,-4.0744,-4.0744,-4.073,-4.0688,-4.0688,-4.0716,-4.0729,-4.1802,-4.181,-3.8784,-4.2015,-4.2838,-3.5829,-3.7412,-3.9596,-3.973,-3.643,-3.438,-3.5441,-2.9972,-2.6593,-2.7751,-2.0741,-1.9324,-2.7141,-2.4969,-2.6459,-3.3677,-3.3601,-3.6089,-4.2045,-3.9749,-3.742,-3.5352,-3.6978,-3.7639,-3.7356,-3.8706,-3.9684,-4.0312,-4.1189,-4.1823,-4.2179,-4.1418,-4.0782,-4.0187,-3.9634,-3.9373,-3.9218,-3.8551,-3.8289,-3.8289,-3.8217,-3.858,-3.903,-3.6473,-3.5551,-3.5314,-3.7779,-3.7727,-3.7869,-3.9385,-4.0064,-4.039,-4.039,-3.9753,-3.9305,-3.9305,-3.9305,-3.9349,-3.9554,-3.9656,-3.9634,-3.9534,-3.9262,-3.9153,-3.9277,-3.8932,-3.8421,-3.7731,-3.7717,-3.5664,-3.1481,-2.8797,-2.5441,-2.1535,-2.1119,-2.2988,-2.6891,-2.9943,-3.3334,-3.6857,-3.7873,-3.9382,-4.0982,-3.9961,-3.9895,-4.0359,-4.0562,-4.0959,-4.13,-4.0966,-4.0771,-4.0698,-4.056,-4.0519,-4.0504,-4.0443,-4.0306,-4.0111,-3.9856,-3.9718,-3.9647,-3.9772,-3.9998,-4.0196,-4.0322,-4.0506,-4.0702,-4.0702,-4.0702,-4.0702,-4.0702,-4.1607,-4.2079,-4.1238,-4.1106,-4.1103,-4.0886,-3.9794,-3.9733,-4.1886,-4.074,-3.957,-3.9312,-3.6611,-3.4238,-3.2873,-2.6695,-2.3874,-2.6499,-2.1327,-2.2156,-3.156,-3.1866,-3.3135,-3.6105,-3.8735,-3.8282,-3.4587,-3.6915,-3.8079,-3.7898,-3.9387,-4.0251,-4.0508,-4.1456,-4.1913,-4.1909,-4.0552,-3.9877,-3.9717,-3.9329,-3.8971,-3.858,-3.8304,-3.8202,-3.8202,-3.8202,-3.8376,-3.8623,-3.8978,-3.7593,-3.7084,-3.9802,-3.9227,-3.9031,-4.0844,-4.1123,-4.1123,-4.1123,-4.0272,-3.9663,-3.9576,-3.9414,-3.9407,-3.97,-3.973,-3.9848,-3.9996,-3.9515,-3.9403,-3.9867,-3.9207,-3.8627,-3.8266,-3.8171,-3.6602,-3.3537,-3.0997,-2.8316,-2.5588,-2.564,-2.7832,-3.1915,-3.5046,-3.7214,-3.8652,-4.0126,-4.085,-4.093,-4.0148,-4.0155,-4.0646,-4.0958,-4.1293,-4.1469,-4.0728,-4.0678,-4.0886,-4.0265,-3.9816,-3.962,-4.0096,-4.0027,-3.9746,-3.9355,-3.9088,-3.8943,-3.9079,-3.9349,-3.9688,-3.9955,-4.028,-4.0562,-4.0659,-4.0702,-4.083,-4.1227,-4.1695,-4.2322,-4.308,-4.1136,-4.0177,-4.2651,-4.1097,-4.012,-4.1494,-4.181,-4.1339,-3.991,-3.7496,-3.5826,-3.552,-2.9567,-2.6285,-2.7624,-2.1589,-2.1856,-3.1078,-3.1309,-3.2142,-3.4326,-3.8058,-3.834,-3.4735,-3.7244,-3.8628,-3.8749,-4.0075,-4.0658,-4.0713,-4.1366,-4.1456,-4.1072,-3.9891,-3.9302,-3.9188,-3.9051,-3.8676,-3.8202,-3.8202,-3.8202,-3.8202,-3.8202,-3.8356,-3.8597,-3.8905,-3.9282,-3.972,-4.0574,-4.0869,-4.1069,-4.111,-4.1123,-4.1123,-4.1123,-4.085,-4.0561,-4.0241,-3.9658,-3.9407,-3.97,-3.9892,-3.9996,-3.9996,-3.9687,-3.9532,-3.9621,-3.8708,-3.828,-3.8396,-3.8082,-3.7627,-3.712,-3.4912,-3.3337,-3.2319,-3.0432,-3.174,-3.5733,-3.579,-3.8104,-4.1907,-4.1177,-4.1225,-4.1745,-4.1268,-4.1295,-4.1604,-4.1883,-4.193,-4.1869,-4.181,-4.1135,-4.0357,-4.0602,-3.9887,-3.9029,-3.9606,-3.9788,-3.9662,-3.9099,-3.8916,-3.8902,-3.8902,-3.9039,-3.9316,-3.9717,-3.9956,-4.0209,-4.0604,-4.0702,-4.1085,-4.2409,-4.2453,-4.2654,-4.3776,-4.3719,-4.2494,-3.9373,-4.1823,-4.2696,-3.8543,-3.8302,-3.7872,-3.609,-2.9256,-2.7329,-3.4066,-2.6439,-2.4405,-3.2404,-2.8317,-2.7869,-3.3367,-3.2609,-3.4385,-3.9629,-3.7778,-3.6303,-3.5582,-3.7988,-3.9392,-3.9816,-4.0665,-4.1091,-4.1076,-4.0886,-4.0433,-3.9829,-3.9799,-3.9318,-3.8493,-3.8493,-3.8366,-3.8202,-3.8202,-3.8202,-3.8202,-3.8202,-3.876,-3.9379,-4.2139,-4.1813,-4.1707,-4.2358,-4.2025,-4.1856,-4.2263,-4.2187,-4.2043,-4.2043,-4.1474,-4.0849,-4.0308,-3.9903,-3.9649,-3.9628,-3.9703,-3.9848,-3.9996,-3.9214,-3.8842,-3.9091,-3.8619,-3.8349,-3.841,-3.8734,-3.8572,-3.7865,-3.592,-3.5052,-3.5175,-3.5146,-3.6862,-4.0048,-4.0251,-4.0986,-4.192,-4.1055,-4.0897,-4.118,-4.092,-4.1153,-4.1584,-4.1274,-4.1673,-4.2178,-4.1355,-4.1328,-4.164,-4.1481,-4.1182,-4.0822,-4.06,-4.0077,-3.9452,-3.9003,-3.9074,-3.9229,-3.9151,-3.9039,-3.9139,-3.9842,-3.9956,-4.0027,-4.0561,-4.0702,-4.0872,-4.1426,-4.1469,-4.1611,-4.2306,-4.2208,-4.1709,-4.0721,-4.1725,-4.2107,-4.0633,-4.0759,-4.0645,-3.9662,-3.7153,-3.6129,-3.7868,-3.2568,-2.9765,-3.1536,-2.685,-2.5875,-3.0381,-3.2919,-3.4295,-3.4378,-3.7801,-3.8465,-3.5989,-3.8523,-3.9876,-4.0068,-4.092,-4.1073,-4.0606,-4.0274,-4.015,-4.0187,-3.9786,-3.953,-3.9377,-3.9249,-3.8873,-3.8404,-3.8404,-3.8315,-3.8202,-3.8202,-3.8446,-3.8793,-4.4134,-4.3686,-4.3374,-4.3286,-4.2897,-4.2678,-4.2881,-4.2741,-4.2644,-4.2644,-4.1877,-4.1082,-4.04,-3.994,-3.9567,-3.9349,-3.938,-3.9438,-3.9587,-3.8735,-3.8405,-3.876,-3.8256,-3.8214,-3.8735,-3.9008,-3.9015,-3.8736,-3.7681,-3.7479,-3.8031,-3.876,-4.0041,-4.1781,-4.2028,-4.1928,-4.1494,-4.1308,-4.1201,-4.1155,-4.1515,-4.1835,-4.2064,-4.1691,-4.1981,-4.2377,-4.1572,-4.1733,-4.2246,-4.1902,-4.1649,-4.1401,-4.1028,-4.0576,-4.0041,-3.9466,-3.9437,-3.9519,-3.9339,-3.9254,-3.9297,-3.9732,-3.9816,-3.9887,-4.0333,-4.043,-4.0473,-4.0702,-4.0731,-4.0802,-4.0969,-4.0926,-4.0843,-4.0913,-4.1454,-4.1719,-4.1175,-4.1488,-4.0866,-3.8533,-3.7799,-3.7344,-3.6959,-3.4361,-3.2936,-3.3547,-3.0316,-2.9575,-3.2513,-3.2949,-3.3568,-3.4626,-3.8366,-3.9417,-3.7485,-3.9164,-4.0003,-4.0071,-4.0402,-4.049,-4.0259,-3.9862,-3.9891,-4.0259,-4.0074,-3.9906,-3.9799,-3.9671,-3.9176,-3.8478,-3.8478,-3.8366,-3.8202,-3.8277,-3.8427,-3.8612,-4.4879,-4.4968,-4.4751,-4.3519,-4.3499,-4.3526,-4.3032,-4.2887,-4.2887,-4.2887,-4.2104,-4.126,-4.0495,-3.9788,-3.9234,-3.8859,-3.8863,-3.8863,-3.8863,-3.8353,-3.8167,-3.8575,-3.7725,-3.7919,-3.9234,-3.9024,-3.9113,-3.9692,-3.9938,-4.0257,-4.0702,-4.1227,-4.1411,-4.1397,-4.1507,-4.1219,-4.0784,-4.1778,-4.1885,-4.1521,-4.267,-4.3033,-4.2819,-4.2778,-4.2674,-4.2514,-4.2324,-4.2336,-4.2383,-4.2035,-4.1576,-4.1107,-4.1107,-4.1315,-4.1315,-4.0247,-4.0032,-3.9993,-3.9561,-3.9564,-3.9648,-3.948,-3.9578,-3.9788,-3.9958,-3.9996,-4.0039,-4.0215,-4.0273,-4.0107,-3.9775,-3.9857,-3.9953,-3.9953,-4.0901,-4.1322,-4.0314,-4.0556,-3.8999,-3.411,-3.2972,-3.2651,-3.2751,-3.2766,-3.4073,-3.7245,-3.6978,-3.7078,-3.7838,-3.2631,-3.2572,-3.9098,-3.9241,-3.9318,-3.9649,-3.975,-3.9829,-3.9835,-3.941,-3.954,-4.0114,-3.9744,-3.9812,-4.018,-4.0566,-4.0424,-3.9858,-3.9858,-3.9333,-3.8553,-3.8516,-3.8404,-3.8277,-3.8441,-3.8664,-3.887,-4.5124,-4.531,-4.5307,-4.4575,-4.4411,-4.4166,-4.354,-4.297,-4.2609,-4.2609,-4.1634,-4.0794,-4.0353,-3.9427,-3.8741,-3.8389,-3.853,-3.8679,-3.8679,-3.8352,-3.8204,-3.8304,-3.8291,-3.8488,-3.8997,-3.9464,-3.9931,-4.043,-4.0516,-4.0616,-4.0702,-4.1482,-4.1751,-4.1563,-4.1667,-4.1373,-4.0888,-4.1256,-4.1053,-4.0609,-4.1483,-4.2023,-4.2168,-4.1443,-4.1896,-4.2709,-4.2038,-4.2513,-4.3419,-4.3332,-4.3244,-4.3121,-4.3121,-4.2855,-4.227,-4.1031,-4.1182,-4.1508,-4.0378,-3.98,-3.9522,-3.9648,-3.997,-4.019,-4.0025,-3.9996,-3.9996,-4.0083,-3.9709,-3.9324,-3.9074,-3.8705,-3.8382,-3.822,-3.8823,-3.9228,-3.8963,-3.8853,-3.8339,-3.7074,-3.6092,-3.5506,-3.5568,-3.5344,-3.4647,-3.3198,-3.3579,-3.3584,-3.2871,-3.2091,-3.378,-3.8349,-3.9393,-3.9637,-3.9264,-3.9786,-4.0088,-4.0237,-3.9677,-3.9744,-4.0329,-4.0406,-4.0568,-4.0894,-4.1134,-4.0945,-4.0498,-4.0498,-3.9896,-3.8958,-3.8797,-3.8708,-3.8649,-3.8553,-3.8738,-3.9091,-4.5878,-4.5734,-4.5563,-4.5442,-4.5002,-4.4445,-4.3703,-4.328,-4.2922,-4.2693,-4.1649,-4.0802,-4.0374,-3.9342,-3.8477,-3.8083,-3.8194,-3.8298,-3.8298,-3.8148,-3.8135,-3.8349,-3.8512,-3.8827,-3.9261,-3.9672,-3.9966,-4.0199,-4.03,-4.054,-4.0805,-4.1108,-4.1377,-4.1585,-4.1328,-4.0866,-4.0343,-4.0991,-4.0835,-4.0287,-4.1128,-4.1565,-4.1739,-4.1436,-4.1815,-4.248,-4.2268,-4.2885,-4.3777,-4.3457,-4.3552,-4.3777,-4.3457,-4.3145,-4.2691,-4.1688,-4.1756,-4.1988,-4.1035,-4.0189,-3.9514,-3.9394,-3.9196,-3.9174,-3.9579,-3.9483,-3.9374,-3.9634,-3.9136,-3.8564,-3.8269,-3.7703,-3.7205,-3.6928,-3.7695,-3.8226,-3.7908,-3.7962,-3.7928,-3.7612,-3.6603,-3.6065,-3.6271,-3.5974,-3.5149,-3.3753,-3.3887,-3.3754,-3.3205,-3.3475,-3.4799,-3.7397,-3.8063,-3.8745,-3.956,-4.0216,-4.0385,-3.9993,-3.9857,-4.0042,-4.0563,-4.0974,-4.1194,-4.1281,-4.1774,-4.162,-4.0989,-4.0812,-4.0129,-3.9261,-3.8952,-3.8745,-3.8649,-3.8649,-3.9025,-3.9631,-4.6577,-4.6102,-4.5746,-4.6024,-4.5427,-4.4589,-4.3865,-4.3531,-4.3238,-4.28,-4.1673,-4.0742,-4.0341,-3.9196,-3.8344,-3.7992,-3.7946,-3.7946,-3.79,-3.79,-3.8129,-3.8557,-3.8557,-3.8872,-3.9554,-3.9649,-3.9762,-3.9789,-4.0082,-4.0449,-4.0849,-4.0614,-4.0874,-4.1395,-4.0825,-4.024,-3.9765,-4.0714,-4.0731,-4.0137,-4.0909,-4.126,-4.1365,-4.178,-4.2025,-4.2209,-4.2867,-4.3519,-4.4008,-4.3362,-4.3497,-4.381,-4.3213,-4.2955,-4.2792,-4.229,-4.2005,-4.1773,-4.1201,-4.0224,-3.9239,-3.8661,-3.8108,-3.7964,-3.8939,-3.8844,-3.8651,-3.9108,-3.8543,-3.7866,-3.7454,-3.6847,-3.6225,-3.5541,-3.6758,-3.7464,-3.6545,-3.7175,-3.7509,-3.6936,-3.6005,-3.5574,-3.594,-3.5574,-3.5443,-3.5822,-3.5473,-3.5296,-3.5495,-3.5269,-3.5548,-3.6427,-3.6628,-3.7929,-4.036,-4.0829,-4.0675,-3.9927,-4.0261,-4.0661,-4.1106,-4.1661,-4.1848,-4.1722,-4.2427,-4.2254,-4.1462,-4.0881,-4.022,-3.9536,-3.901,-3.8782,-3.8825,-3.9062,-3.9691,-4.0487,-4.6056,-4.6206,-4.6241,-4.5976,-4.5531,-4.502,-4.4387,-4.3294,-4.2459,-4.2188,-4.0756,-3.9799,-3.9878,-3.8786,-3.807,-3.8122,-3.8167,-3.8089,-3.79,-3.79,-3.8129,-3.8557,-3.8395,-3.8517,-3.9011,-3.9523,-4.0113,-4.0784,-4.1059,-4.0946,-4.0594,-4.1231,-4.1263,-4.0738,-4.067,-4.047,-4.0097,-4.0059,-3.9802,-3.9454,-3.983,-4.0127,-4.0482,-4.1292,-4.2072,-4.2881,-4.3688,-4.4579,-4.5221,-4.4624,-4.4488,-4.4447,-4.3837,-4.3294,-4.2873,-4.2778,-4.2161,-4.1187,-3.9823,-3.8699,-3.7826,-3.7318,-3.7878,-3.8587,-3.8562,-3.8871,-3.9064,-3.8756,-3.7956,-3.7252,-3.696,-3.6189,-3.4994,-3.3246,-3.4803,-3.556,-3.3562,-3.5108,-3.6354,-3.6227,-3.6083,-3.5835,-3.5456,-3.5338,-3.5116,-3.4698,-3.4816,-3.4971,-3.5178,-3.529,-3.5507,-3.5831,-3.7742,-3.9721,-4.1698,-4.112,-4.1225,-4.1942,-4.1993,-4.2335,-4.2912,-4.3016,-4.3021,-4.2981,-4.2805,-4.24,-4.1814,-4.0852,-4.0259,-3.9943,-3.9136,-3.9321,-4.0159,-4.0575,-4.1299,-4.2207,-4.6258,-4.6039,-4.5841,-4.6174,-4.5563,-4.4748,-4.385,-4.3176,-4.2466,-4.1618,-4.042,-3.9773,-4.0047,-3.8859,-3.8175,-3.8464,-3.8293,-3.8135,-3.79,-3.8011,-3.8358,-3.8983,-3.8508,-3.8482,-3.9152,-3.9367,-3.9794,-4.0616,-4.0572,-4.0621,-4.0845,-4.0554,-4.0685,-4.1069,-4.0635,-4.0262,-4.0019,-4.0155,-3.9803,-3.9127,-3.9895,-4.0298,-4.0536,-4.1741,-4.26,-4.321,-4.3936,-4.4679,-4.522,-4.4457,-4.4316,-4.432,-4.3547,-4.3104,-4.2833,-4.2507,-4.1882,-4.0818,-3.8937,-3.7991,-3.7428,-3.6893,-3.7193,-3.7736,-3.8274,-3.864,-3.8742,-3.8389,-3.7631,-3.6879,-3.6263,-3.5465,-3.4537,-3.3646,-3.4727,-3.5409,-3.4587,-3.5533,-3.6336,-3.6559,-3.6044,-3.5574,-3.5325,-3.4999,-3.4698,-3.441,-3.4522,-3.4743,-3.5086,-3.5086,-3.5277,-3.5669,-3.8088,-3.9634,-4.0168,-4.1492,-4.2207,-4.2396,-4.2716,-4.3045,-4.329,-4.3581,-4.3542,-4.3275,-4.2758,-4.2258,-4.177,-4.0547,-4.0171,-4.0271,-3.9705,-4.0173,-4.1145,-4.151,-4.2253,-4.3133,-4.6185,-4.5734,-4.5376,-4.5979,-4.5381,-4.4478,-4.3277,-4.3074,-4.269,-4.1474,-4.0507,-4.0027,-4.0341,-3.9336,-3.8695,-3.8871,-3.8675,-3.8463,-3.8161,-3.8404,-3.8792,-3.9322,-3.8919,-3.8846,-3.9243,-3.9455,-3.9872,-4.0404,-4.0415,-4.0695,-4.1212,-4.0304,-4.0359,-4.1155,-4.0436,-3.9924,-3.9712,-4.0042,-3.9852,-3.9388,-4.025,-4.0717,-4.1054,-4.2376,-4.3166,-4.356,-4.4239,-4.471,-4.4925,-4.4298,-4.3925,-4.3627,-4.3141,-4.284,-4.2629,-4.2304,-4.1693,-4.0667,-3.8701,-3.7877,-3.7448,-3.6944,-3.6917,-3.727,-3.8206,-3.8532,-3.8496,-3.8086,-3.75,-3.6737,-3.5817,-3.5034,-3.4382,-3.3957,-3.4763,-3.5407,-3.5305,-3.6042,-3.6647,-3.6786,-3.6192,-3.5673,-3.5325,-3.4881,-3.4554,-3.441,-3.4452,-3.466,-3.5003,-3.4962,-3.5127,-3.5562,-3.8145,-3.9506,-3.9489,-4.2125,-4.3247,-4.279,-4.3326,-4.3566,-4.3503,-4.3934,-4.3934,-4.356,-4.2836,-4.2378,-4.2041,-4.0651,-4.0365,-4.0817,-4.0461,-4.0944,-4.1903,-4.2263,-4.3034,-4.3995,-4.501,-4.525,-4.5331,-4.4857,-4.4917,-4.4635,-4.3305,-4.3087,-4.2828,-4.2032,-4.0985,-4.0388,-4.0649,-4.0173,-3.9732,-3.9475,-3.9612,-3.9422,-3.8859,-3.9355,-3.9507,-3.9157,-3.976,-3.9693,-3.8757,-4.0235,-4.0962,-4.0773,-4.1812,-4.2041,-4.1564,-4.1734,-4.1245,-4.03,-3.9986,-3.9663,-3.9328,-3.9123,-3.9613,-4.0476,-4.0576,-4.1054,-4.1892,-4.2745,-4.3509,-4.4217,-4.5027,-4.5039,-4.4755,-4.4952,-4.3721,-4.227,-4.3061,-4.2699,-4.2168,-4.267,-4.2019,-4.0808,-3.9367,-3.839,-3.774,-3.7473,-3.7838,-3.8301,-3.8396,-3.8844,-3.8957,-3.803,-3.7582,-3.7054,-3.6082,-3.5307,-3.4321,-3.2631,-3.4,-3.4752,-3.3086,-3.5427,-3.7034,-3.6271,-3.6783,-3.674,-3.5447,-3.526,-3.4999,-3.4437,-3.4618,-3.4797,-3.4797,-3.5154,-3.5277,-3.5154,-3.7983,-4.0321,-4.2124,-4.3346,-4.3918,-4.3873,-4.4289,-4.432,-4.3949,-4.4358,-4.4549,-4.4427,-4.3343,-4.3098,-4.3332,-4.1626,-4.1323,-4.1843,-4.1258,-4.1567,-4.2432,-4.3006,-4.3945,-4.5,-4.4806,-4.5237,-4.5432,-4.5187,-4.5104,-4.4635,-4.3324,-4.3087,-4.2657,-4.1382,-4.0669,-4.0433,-4.0744,-3.9802,-3.9291,-3.9544,-3.9256,-3.8874,-3.8485,-3.9304,-3.9593,-3.913,-4.0232,-4.0423,-3.9509,-4.0609,-4.1386,-4.187,-4.1917,-4.1733,-4.1295,-4.1009,-4.0635,-4.0187,-4.0096,-3.9974,-3.9875,-4.0346,-4.0563,-4.0703,-4.1736,-4.2361,-4.2717,-4.3575,-4.4202,-4.4692,-4.4962,-4.4996,-4.4814,-4.4765,-4.3753,-4.2504,-4.269,-4.2419,-4.2093,-4.244,-4.1841,-4.0939,-4.0224,-3.9122,-3.8061,-3.7623,-3.7933,-3.8323,-3.8004,-3.843,-3.8527,-3.7332,-3.6981,-3.6644,-3.5737,-3.536,-3.4929,-3.4025,-3.4842,-3.5348,-3.4548,-3.5497,-3.6207,-3.5999,-3.5952,-3.5743,-3.5222,-3.55,-3.546,-3.4865,-3.5114,-3.5196,-3.4975,-3.4977,-3.4812,-3.4494,-3.6892,-3.8915,-4.0379,-4.1858,-4.2989,-4.3762,-4.4089,-4.4127,-4.4026,-4.4435,-4.461,-4.4541,-4.3434,-4.3039,-4.3129,-4.182,-4.1643,-4.2249,-4.201,-4.2539,-4.3413,-4.3666,-4.4075,-4.4652,-4.4531,-4.5152,-4.5537,-4.5245,-4.5283,-4.4818,-4.3324,-4.3347,-4.2994,-4.1599,-4.091,-4.0792,-4.1391,-4.0266,-3.9702,-4.0314,-3.9941,-3.9532,-3.9148,-3.9972,-4.0214,-3.9548,-4.0867,-4.1133,-4.0137,-4.1189,-4.189,-4.2215,-4.2083,-4.1761,-4.124,-4.09,-4.0507,-4.011,-4.0436,-4.0514,-4.0377,-4.1265,-4.154,-4.1479,-4.2647,-4.3245,-4.3561,-4.4195,-4.4601,-4.4892,-4.4892,-4.4705,-4.4532,-4.4581,-4.349,-4.2155,-4.2447,-4.2152,-4.1767,-4.1961,-4.1458,-4.0789,-4.0563,-3.9468,-3.8381,-3.7933,-3.8034,-3.814,-3.7816,-3.8058,-3.8062,-3.6975,-3.6747,-3.654,-3.5851,-3.5679,-3.5551,-3.5118,-3.5396,-3.5561,-3.54,-3.5592,-3.5717,-3.5656,-3.5568,-3.5368,-3.514,-3.5473,-3.5553,-3.5153,-3.5307,-3.5319,-3.5003,-3.4901,-3.4659,-3.4263,-3.616,-3.7656,-3.8575,-4.0703,-4.2307,-4.3433,-4.3645,-4.3699,-4.3621,-4.3996,-4.4266,-4.4351,-4.3381,-4.3138,-4.3328,-4.222,-4.2149,-4.2671,-4.2539,-4.3105,-4.4005,-4.4005,-4.4305,-4.476,-4.4008,-4.5024,-4.5647,-4.4772,-4.5325,-4.5257,-4.3412,-4.3831,-4.4035,-4.3032,-4.1925,-4.1633,-4.2757,-4.1863,-4.1405,-4.1944,-4.2005,-4.1747,-4.1164,-4.1679,-4.1545,-4.0481,-4.1769,-4.185,-4.0421,-4.2037,-4.2492,-4.1597,-4.2492,-4.2465,-4.157,-4.1835,-4.1213,-3.9863,-4.0976,-4.1151,-4.0676,-4.1552,-4.2375,-4.312,-4.312,-4.365,-4.4411,-4.4411,-4.4601,-4.4892,-4.4878,-4.4331,-4.3745,-4.4621,-4.2998,-4.0854,-4.2311,-4.2005,-4.1156,-4.136,-4.0832,-4.0187,-4.0187,-3.9406,-3.8602,-3.8602,-3.82,-3.7808,-3.7808,-3.7808,-3.7684,-3.7201,-3.7108,-3.6968,-3.6499,-3.6337,-3.6096,-3.5488,-3.5318,-3.5175,-3.4848,-3.5495,-3.5767,-3.5193,-3.5799,-3.599,-3.5167,-3.5127,-3.5127,-3.5127,-3.5086,-3.499,-3.4729,-3.5031,-3.5016,-3.4597,-3.5969,-3.687,-3.7281,-4.0323,-4.2246,-4.2981,-4.321,-4.309,-4.2729,-4.313,-4.3542,-4.3942,-4.3206,-4.345,-4.422,-4.3075,-4.2887,-4.325,-4.285,-4.3208,-4.4005,-4.4005,-4.467,-4.5578,-4.4545,-4.53,-4.5822,-4.5544,-4.5719,-4.5446,-4.4204,-4.4252,-4.3988,-4.279,-4.2301,-4.1989,-4.1748,-4.1403,-4.1088,-4.083,-4.0979,-4.1275,-4.172,-4.191,-4.2066,-4.2152,-4.2552,-4.228,-4.1246,-4.2336,-4.2695,-4.2229,-4.2514,-4.1987,-4.0695,-4.0742,-4.0435,-3.9836,-4.0331,-4.0836,-4.1306,-4.2297,-4.2874,-4.3148,-4.3761,-4.4195,-4.4411,-4.4411,-4.4476,-4.4536,-4.4347,-4.4079,-4.3907,-4.4196,-4.2929,-4.1206,-4.1032,-4.0745,-4.054,-4.0821,-4.0432,-3.9868,-3.9744,-3.8813,-3.792,-3.8213,-3.8063,-3.7717,-3.7374,-3.7328,-3.7188,-3.6687,-3.6593,-3.6546,-3.6405,-3.6361,-3.6176,-3.5507,-3.539,-3.5288,-3.5054,-3.5232,-3.5396,-3.5494,-3.5751,-3.5791,-3.5534,-3.5885,-3.5966,-3.5548,-3.5459,-3.5139,-3.4401,-3.4835,-3.5009,-3.4698,-3.5442,-3.6315,-3.7294,-3.8667,-4.0111,-4.1617,-4.1811,-4.2263,-4.2915,-4.3314,-4.3684,-4.3972,-4.359,-4.3721,-4.4228,-4.3262,-4.3135,-4.3472,-4.293,-4.3208,-4.3964,-4.3826,-4.4374,-4.5215,-4.4763,-4.543,-4.588,-4.588,-4.588,-4.5564,-4.4551,-4.4411,-4.3988,-4.279,-4.2345,-4.2094,-4.1863,-4.1539,-4.1352,-4.1327,-4.147,-4.1808,-4.2331,-4.2358,-4.2521,-4.2873,-4.2887,-4.2662,-4.2139,-4.2504,-4.2644,-4.2511,-4.24,-4.1638,-4.03,-4.0428,-4.0201,-3.9849,-4.0445,-4.1215,-4.2062,-4.306,-4.3496,-4.3678,-4.421,-4.4411,-4.4411,-4.427,-4.4223,-4.4223,-4.3926,-4.3818,-4.3818,-4.3818,-4.2794,-4.1384,-4.0618,-3.9992,-3.9644,-4.004,-3.9664,-3.9154,-3.9017,-3.8274,-3.7505,-3.7605,-3.742,-3.7176,-3.6875,-3.6828,-3.6734,-3.6452,-3.6405,-3.6405,-3.6405,-3.6452,-3.6349,-3.5826,-3.5808,-3.5841,-3.5688,-3.5723,-3.589,-3.6236,-3.6181,-3.614,-3.614,-3.6295,-3.6222,-3.5736,-3.566,-3.531,-3.4565,-3.5111,-3.5292,-3.5006,-3.5579,-3.6214,-3.6955,-3.735,-3.8491,-4.0389,-4.0475,-4.0845,-4.1518,-4.2249,-4.2684,-4.2941,-4.322,-4.3551,-4.384,-4.3155,-4.3036,-4.3225,-4.3064,-4.3525,-4.4312,-4.4507,-4.5094,-4.5802,-4.5011,-4.5593,-4.597,-4.588,-4.588,-4.5564,-4.4597,-4.4411,-4.4068,-4.3067,-4.2241,-4.1996,-4.2751,-4.2166,-4.201,-4.2765,-4.286,-4.2887,-4.2887,-4.2887,-4.2887,-4.2887,-4.2887,-4.2887,-4.2887,-4.2644,-4.2498,-4.2449,-4.2239,-4.1506,-4.0366,-4.0602,-4.0448,-4.0011,-4.1072,-4.2029,-4.2915,-4.3657,-4.4129,-4.4317,-4.4317,-4.4317,-4.4317,-4.4068,-4.3974,-4.3926,-4.3662,-4.3553,-4.3553,-4.3497,-4.2626,-4.1498,-4.075,-3.9713,-3.8804,-3.9096,-3.8711,-3.82,-3.8167,-3.7815,-3.7353,-3.6815,-3.6534,-3.6405,-3.6405,-3.6405,-3.6405,-3.6405,-3.6405,-3.6405,-3.6405,-3.6534,-3.6578,-3.6319,-3.6444,-3.6553,-3.6476,-3.6658,-3.6874,-3.7158,-3.6917,-3.6774,-3.6817,-3.6354,-3.5973,-3.5683,-3.5734,-3.5551,-3.5174,-3.5661,-3.5814,-3.5571,-3.6094,-3.6405,-3.6405,-3.6405,-3.7368,-3.9332,-3.9139,-3.9121,-3.9285,-4.046,-4.1113,-4.138,-4.2482,-4.3076,-4.325,-4.2809,-4.2648,-4.2762,-4.3219,-4.3921,-4.4794,-4.5686,-4.641,-4.6931,-4.6731,-4.6811,-4.6668,-4.5716,-4.5745,-4.5609,-4.483,-4.4504,-4.4162,-4.3519,-4.2944,-4.2513,-4.2236,-4.2445,-4.25,-4.2222,-4.2629,-4.2887,-4.2887,-4.2887,-4.2887,-4.2887,-4.2693,-4.2693,-4.2887,-4.2838,-4.2595,-4.2177,-4.2128,-4.1621,-4.0689,-4.0738,-4.096,-4.1207,-4.1673,-4.2398,-4.3224,-4.3573,-4.3709,-4.3757,-4.3757,-4.3757,-4.3757,-4.3709,-4.3709,-4.3662,-4.3437,-4.3355,-4.3286,-4.2583,-4.2444,-4.2218,-4.0494,-3.9924,-3.9676,-3.8709,-3.8349,-3.8122,-3.7769,-3.74,-3.7108,-3.6769,-3.6534,-3.6405,-3.6405,-3.6405,-3.6405,-3.6405,-3.6405,-3.6405,-3.6405,-3.6452,-3.637,-3.6057,-3.6184,-3.6296,-3.6183,-3.6397,-3.6701,-3.7158,-3.6801,-3.6571,-3.6774,-3.6354,-3.5929,-3.5487,-3.584,-3.5914,-3.5424,-3.5986,-3.6276,-3.6229,-3.6342,-3.6405,-3.6405,-3.6405,-3.6989,-3.8147,-3.8115,-3.8585,-3.9478,-4.0532,-4.1113,-4.1338,-4.2184,-4.2729,-4.3036,-4.2474,-4.2433,-4.2762,-4.3219,-4.3921,-4.4794,-4.5686,-4.6511,-4.7207,-4.7806,-4.749,-4.6973,-4.6255,-4.5986,-4.5654,-4.4936,-4.4551,-4.4209,-4.3648,-4.3197,-4.2765,-4.2453,-4.2697,-4.2765,-4.2453,-4.2711,-4.2887,-4.2887,-4.2887,-4.2887,-4.2887,-4.2361,-4.2347,-4.2887,-4.2361,-4.2105,-4.2079,-4.198,-4.1541,-4.079,-4.079,-4.1068,-4.1631,-4.1774,-4.2657,-4.4106,-4.3662,-4.3837,-4.4406,-4.3823,-4.36,-4.36,-4.3471,-4.3485,-4.3437,-4.3211,-4.3128,-4.3026,-4.2582,-4.2317,-4.2058,-4.0998,-4.0034,-3.919,-3.876,-3.8162,-3.7618,-3.74,-3.7214,-3.7015,-3.664,-3.6499,-3.6405,-3.6405,-3.6405,-3.6405,-3.6405,-3.6405,-3.6405,-3.6405,-3.6405,-3.6364,-3.6307,-3.6396,-3.657,-3.6741,-3.7004,-3.7227,-3.7329,-3.7106,-3.6824,-3.6619,-3.6406,-3.6146,-3.5918,-3.6138,-3.6164,-3.5931,-3.6207,-3.6405,-3.6405,-3.6405,-3.6405,-3.6405,-3.6405,-3.664,-3.7129,-3.7129,-3.7428,-3.8062,-3.9152,-3.9942,-4.049,-4.1436,-4.2184,-4.2688,-4.2351,-4.2582,-4.311,-4.3772,-4.4545,-4.5422,-4.6275,-4.6924,-4.7309,-4.8651,-4.8153,-4.7518,-4.7116,-4.6638,-4.6061,-4.5261,-4.494,-4.4523,-4.3851,-4.3293,-4.2984,-4.2887,-4.2887,-4.2887,-4.2887,-4.2887,-4.2887,-4.2838,-4.2838,-4.2749,-4.2641,-4.1852,-4.1772,-4.2479,-4.1606,-4.1444,-4.2079,-4.1845,-4.1446,-4.0935,-4.113,-4.1456,-4.1971,-4.2148,-4.3324,-4.5024,-4.4153,-4.4466,-4.5403,-4.4219,-4.3729,-4.3681,-4.3355,-4.3225,-4.3128,-4.2984,-4.2887,-4.2838,-4.279,-4.2307,-4.1718,-4.1515,-4.0169,-3.8626,-3.889,-3.8085,-3.7108,-3.7062,-3.7015,-3.6922,-3.6499,-3.6405,-3.6405,-3.6405,-3.6405,-3.6405,-3.6405,-3.6405,-3.6405,-3.6405,-3.6405,-3.6452,-3.6628,-3.6675,-3.6815,-3.7261,-3.7526,-3.7618,-3.74,-3.7307,-3.7028,-3.637,-3.6323,-3.637,-3.6405,-3.6405,-3.6405,-3.6405,-3.6405,-3.6405,-3.6405,-3.6405,-3.6405,-3.6405,-3.6405,-3.6405,-3.6405,-3.6405,-3.6405,-3.6452,-3.7553,-3.8469,-3.9244,-4.0461,-4.1394,-4.209,-4.2026,-4.2555,-4.3472,-4.4304,-4.5178,-4.6126,-4.6969,-4.7309,-4.7309,-4.9837,-4.9614,-4.9197,-4.8179,-4.8095,-4.7801,-4.6696,-4.6359,-4.5748,-4.4443,-4.3804,-4.3328,-4.2935,-4.2887,-4.2887,-4.2887,-4.2887,-4.279,-4.256,-4.256,-4.2221,-4.1443,-4.1108,-4.0869,-4.0729,-4.0808,-4.1263,-4.2079,-4.1845,-4.1657,-4.1578,-4.2482,-4.3047,-4.3381,-4.4404,-4.5044,-4.5358,-4.5615,-4.584,-4.5929,-4.4872,-4.4363,-4.4083,-4.328,-4.279,-4.2644,-4.2838,-4.2741,-4.2498,-4.2289,-4.2284,-4.2199,-4.1241,-4.0351,-3.9623,-3.8773,-3.7839,-3.7062,-3.6815,-3.6769,-3.6722,-3.6452,-3.6405,-3.6405,-3.6405,-3.6405,-3.6405,-3.6405,-3.6405,-3.6405,-3.6405,-3.6405,-3.6405,-3.6452,-3.6581,-3.6675,-3.6546,-3.6722,-3.6862,-3.6815,-3.6615,-3.6345,-3.6098,-3.6063,-3.6146,-3.6358,-3.6405,-3.6405,-3.6405,-3.6405,-3.6405,-3.6405,-3.6405,-3.6405,-3.6405,-3.6405,-3.6405,-3.6405,-3.6405,-3.6405,-3.6452,-3.7394,-3.7887,-3.8056,-3.9077,-3.9986,-4.0816,-4.0465,-4.1548,-4.346,-4.3993,-4.4953,-4.6126,-4.6969,-4.7309,-4.7309,-5.0775,-5.0237,-4.9694,-4.9044,-4.8677,-4.8122,-4.6971,-4.6608,-4.6107,-4.494,-4.4087,-4.3505,-4.3293,-4.3067,-4.279,-4.2484,-4.2595,-4.2547,-4.2289,-4.1981,-4.159,-4.1226,-4.0336,-4.0177,-4.0813,-4.039,-4.0702,-4.1881,-4.1746,-4.1931,-4.2333,-4.2771,-4.343,-4.4233,-4.4776,-4.5539,-4.6388,-4.6078,-4.6373,-4.6986,-4.5795,-4.4872,-4.4224,-4.3539,-4.286,-4.2289,-4.2239,-4.2239,-4.219,-4.1796,-4.1845,-4.1954,-4.1308,-4.0402,-3.9473,-3.919,-3.8251,-3.7261,-3.7015,-3.6909,-3.6828,-3.6499,-3.6405,-3.6405,-3.6405,-3.6405,-3.6405,-3.6405,-3.6405,-3.6405,-3.6405,-3.6405,-3.637,-3.6193,-3.6228,-3.6275,-3.6216,-3.625,-3.6298,-3.6298,-3.5966,-3.5899,-3.6413,-3.6189,-3.6223,-3.6797,-3.6581,-3.6405,-3.6405,-3.6405,-3.6405,-3.6405,-3.6405,-3.6405,-3.6405,-3.6405,-3.6405,-3.6405,-3.6405,-3.6405,-3.6405,-3.6815,-3.7348,-3.7997,-3.8392,-3.9328,-4.0468,-4.0285,-4.1211,-4.2836,-4.3733,-4.52,-4.6761,-4.7161,-4.7309,-4.7207]},{"header":{"parameterUnit":"m.s-1","parameterCategory":1,"la1":30.6,"la2":28.766,"lo1":-90.7593,"lo2":-88.6598,"dx":0.0162,"dy":0.0183,"nx":116,"ny":114,"refTime":"2022-12-31T18:00:00:Z","depth":0,"parameterNumber":3,"parameterNumberName":"V-component_of_WINDS"},"data":[0.0,0.0,0.0,0.0,0.0,0.0,0.0,0.0,0.0,0.0,0.0,0.0,0.0,0.0,0.0,0.0,0.0,0.0,0.0,0.0,0.0,0.0,0.0,0.0,0.0,0.0,0.0,0.0,0.0,0.0,0.0,0.0,0.0,0.0,0.0,0.0,0.0,0.0,0.0,0.0,0.0,0.0,0.0,0.0,0.0,0.0,0.0,0.0,0.0,0.0,0.0,0.0,0.0,0.0,0.0,0.0,0.0,0.0,0.0,0.0,0.0,0.0,0.0,0.0,0.0,0.0,0.0,0.0,0.0,0.0,0.0,0.0,0.0,0.0,0.0,0.0,0.0,0.0,0.0,0.0,0.0,0.0,0.0,0.0,0.0,0.0,0.0,0.0,0.0,0.0,0.0,0.0,0.0,0.0,0.0,0.0,0.0,0.0,0.0,0.0,0.0,0.0,0.0,0.0,0.0,0.0,0.0,0.0,0.0,0.0,0.0,0.0,0.0,0.0,0.0,0.0,0.0,0.0,0.0,0.0,0.0,0.0,0.0,0.0,0.0,0.0,0.0,0.0,0.0,0.0,0.0,0.0,0.0,0.0,0.0,0.0,0.0,0.0,0.0,0.0,0.0,0.0,0.0,0.0,0.0,0.0,0.0,0.0,0.0,0.0,0.0,0.0,0.0,0.0,0.0,0.0,0.0,0.0,0.0,0.0,0.0,0.0,0.0,0.0,0.0,0.0,0.0,0.0,0.0,0.0,0.0,0.0,0.0,0.0,0.0,0.0,0.0,0.0,0.0,0.0,0.0,0.0,0.0,0.0,0.0,0.0,0.0,0.0,0.0,0.0,0.0,0.0,0.0,0.0,0.0,0.0,0.0,0.0,0.0,0.0,0.0,0.0,0.0,0.0,0.0,0.0,0.0,0.0,0.0,0.0,0.0,0.0,0.0,0.0,0.0,0.0,0.0,0.0,0.0,0.0,0.0,0.0,0.0,0.0,0.0,0.0,0.0,0.0,0.0,0.0,0.0,0.0,0.0,0.0,0.0,0.0,0.0,0.0,0.0,0.0,0.0,0.0,0.0,0.0,0.0,0.0,0.0,0.0,0.0,0.0,0.0,0.0,0.0,0.0,0.0,0.0,0.0,0.0,0.0,0.0,0.0,0.0,0.0,0.0,0.0,0.0,0.0,0.0,0.0,0.0,0.0,0.0,0.0,0.0,0.0,0.0,0.0,0.0,0.0,0.0,0.0,0.0,0.0,0.0,0.0,0.0,0.0,0.0,0.0,0.0,0.0,0.0,0.0,0.0,0.0,0.0,0.0,0.0,0.0,0.0,0.0,0.0,0.0,0.0,0.0,0.0,0.0,0.0,0.0,0.0,0.0,0.0,0.0,0.0,0.0,0.0,0.0,0.0,0.0,0.0,0.0,0.0,0.0,0.0,0.0,0.0,0.0,0.0,0.0,0.0,0.0,0.0,0.0,0.0,0.0,0.0,0.0,0.0,0.0,0.0,0.0,0.0,0.0,0.0,0.0,0.0,0.0,0.0,0.0,0.0,0.0,0.0,0.0,0.0,0.0,0.0,0.0,0.0,0.0,0.0,0.0,0.0,0.0,0.0,0.0,0.0,0.0,0.0,0.0,0.0,0.0,0.0,0.0,0.0,0.0,0.0,0.0,0.0,0.0,0.0,0.0,0.0,0.0,0.0,0.0,0.0,0.0,0.0,0.0,0.0,0.0,0.0,0.0,0.0,0.0,0.0,0.0,0.0,0.0,0.0,0.0,0.0,0.0,0.0,0.0,0.0,0.0,0.0,0.0,0.0,0.0,0.0,0.0,0.0,0.0,0.0,0.0,0.0,0.0,0.0,0.0,0.0,0.0,0.0,0.0,0.0,0.0,0.0,0.0,0.0,0.0,0.0,0.0,0.0,0.0,0.0,0.0,0.0,0.0,0.0,0.0,0.0,0.0,0.0,0.0,0.0,0.0,0.0,0.0,0.0,0.0,0.0,0.0,0.0,0.0,0.0,0.0,0.0,0.0,0.0,0.0,0.0,0.0,0.0,0.0,0.0,0.0,0.0,0.0,0.0,0.0,0.0,0.0,0.0,0.0,0.0,0.0,0.0,0.0,0.0,0.0,0.0,0.0,0.0,0.0,0.0,0.0,0.0,0.0,0.0,0.0,0.0,0.0,0.0,0.0,0.0,0.0,0.0,0.0,0.0,0.0,0.0,0.0,0.0,0.0,0.0,0.0,0.0,0.0,0.0,0.0,0.0,0.0,0.0,0.0,0.0,0.0,0.0,0.0,0.0,0.0,0.0,0.0,0.0,0.0,0.0,0.0,0.0,0.0,0.0,0.0,0.0,0.0,0.0,0.0,0.0,0.0,0.0,0.0,0.0,0.0,0.0,0.0,0.0,0.0,0.0,0.0,0.0,0.0,0.0,0.0,0.0,0.0,0.0,0.0,0.0,0.0,0.0,0.0,0.0,0.0,0.0,0.0,0.0,0.0,0.0,0.0,0.0,0.0,0.0,0.0,0.0,0.0,0.0,0.0,0.0,0.0,0.0,0.0,0.0,0.0,0.0,0.0,0.0,0.0,0.0,0.0,0.0,0.0,0.0,0.0,0.0,0.0,0.0,0.0,0.0,0.0,0.0,0.0,0.0,0.0,0.0,0.0,0.0,0.0,0.0,0.0,0.0,0.0,0.0,0.0,0.0,0.0,0.0,0.0,0.0,0.0,0.0,0.0,0.0,0.0,0.0,0.0,0.0,0.0,0.0,0.0,0.0,0.0,0.0,0.0,0.0,0.0,0.0,0.0,0.0,0.0,0.0,0.0,0.0,0.0,0.0,0.0,0.0,0.0,0.0,0.0,0.0,0.0,0.0,0.0,0.0,0.0,0.0,0.0,0.0,0.0,0.0,0.0,0.0,0.0,0.0,0.0,0.0,0.0,0.0,0.0,0.0,0.0,0.0,0.0,0.0,0.0,0.0,0.0,0.0,0.0,0.0,0.0,0.0,0.0,0.0,0.0,0.0,0.0,0.0,0.0,0.0,0.0,0.0,0.0,0.0,0.0,0.0,0.0,0.0,0.0,0.0,0.0,0.0,0.0,0.0,0.0,0.0,0.0,0.0,0.0,0.0,0.0,0.0,0.0,0.0,0.0,0.0,0.0,0.0,0.0,0.0,0.0,0.0,0.0,0.0,0.0,0.0,0.0,0.0,0.0,0.0,0.0,0.0,0.0,0.0,0.0,0.0,0.0,0.0,0.0,0.0,0.0,0.0,0.0,0.0,0.0,0.0,0.0,0.0,0.0,0.0,0.0,0.0,0.0,0.0,0.0,0.0,0.0,0.0,0.0,0.0,0.0,0.0,0.0,0.0,0.0,0.0,0.0,0.0,0.0,0.0,0.0,0.0,0.0,0.0,0.0,0.0,0.0,0.0,0.0,0.0,0.0,0.0,0.0,0.0,0.0,0.0,0.0,0.0,0.0,0.0,0.0,0.0,0.0,0.0,0.0,0.0,0.0,0.0,0.0,0.0,0.0,0.0,0.0,0.0,0.0,0.0,0.0,0.0,0.0,0.0,0.0,0.0,0.0,0.0,0.0,0.0,0.0,0.0,0.0,0.0,0.0,0.0,0.0,0.0,0.0,0.0,0.0,0.0,0.0,0.0,0.0,0.0,0.0,0.0,0.0,0.0,0.0,0.0,0.0,0.0,0.0,0.0,0.0,0.0,0.0,0.0,0.0,0.0,0.0,0.0,0.0,0.0,0.0,0.0,0.0,0.0,0.0,0.0,0.0,0.0,0.0,0.0,0.0,0.0,0.0,0.0,0.0,0.0,0.0,0.0,0.0,0.0,0.0,0.0,0.0,0.0,0.0,0.0,0.0,0.0,0.0,0.0,0.0,0.0,0.0,0.0,0.0,0.0,0.0,0.0,0.0,0.0,0.0,0.0,0.0,0.0,0.0,0.0,0.0,0.0,0.0,0.0,0.0,0.0,0.0,0.0,0.0,0.0,0.0,0.0,0.0,0.0,0.0,0.0,0.0,0.0,0.0,0.0,0.0,0.0,0.0,0.0,0.0,0.0,0.0,0.0,0.0,0.0,0.0,0.0,0.0,0.0,0.0,0.0,0.0,0.0,0.0,0.0,0.0,0.0,0.0,0.0,0.0,0.0,0.0,0.0,0.0,0.0,0.0,0.0,0.0,0.0,0.0,0.0,0.0,0.0,0.0,0.0,0.0,0.0,0.0,0.0,0.0,0.0,0.0,0.0,0.0,0.0,0.0,0.0,0.0,0.0,0.0,0.0,0.0,0.0,0.0,0.0,0.0,0.0,0.0,0.0,0.0,0.0,0.0,0.0,0.0,0.0,0.0,0.0,0.0,0.0,0.0,0.0,0.0,0.0,0.0,0.0,0.0,0.0,0.0,0.0,0.0,0.0,0.0,0.0,0.0,0.0,0.0,0.0,0.0,0.0,0.0,0.0,0.0,0.0,0.0,0.0,0.0,0.0,0.0,0.0,0.0,0.0,0.0,0.0,0.0,0.0,0.0,0.0,0.0,0.0,0.0,0.0,0.0,0.0,0.0,0.0,0.0,0.0,0.0,0.0,0.0,0.0,0.0,0.0,0.0,0.0,0.0,0.0,0.0,0.0,0.0,0.0,0.0,0.0,0.0,0.0,0.0,0.0,0.0,0.0,0.0,0.0,0.0,0.0,0.0,0.0,0.0,0.0,0.0,0.0,0.0,0.0,0.0,0.0,0.0,0.0,0.0,0.0,0.0,0.0,0.0,0.0,0.0,0.0,0.0,0.0,0.0,0.0,0.0,0.0,0.0,0.0,0.0,0.0,0.0,0.0,0.0,0.0,0.0,0.0,0.0,0.0,0.0,0.0,0.0,0.0,0.0,0.0,0.0,0.0,0.0,0.0,0.0,0.0,0.0,0.0,0.0,0.0,0.0,0.0,0.0,0.0,0.0,0.0,0.0,0.0,0.0,0.0,0.0,0.0,0.0,0.0,0.0,0.0,0.0,0.0,0.0,0.0,0.0,0.0,0.0,0.0,0.0,0.0,0.0,0.0,0.0,0.0,0.0,0.0,0.0,0.0,0.0,0.0,0.0,0.0,0.0,0.0,0.0,0.0,0.0,0.0,0.0,0.0,0.0,0.0,0.0,0.0,0.0,0.0,0.0,0.0,0.0,0.0,0.0,0.0,0.0,0.0,0.0,0.0,0.0,0.0,0.0,0.0,0.0,0.0,0.0,0.0,0.0,0.0,0.0,0.0,0.0,0.0,0.0,0.0,0.0,0.0,0.0,0.0,0.0,0.0,0.0,0.0,0.0,0.0,0.0,0.0,0.0,0.0,0.0,0.0,0.0,0.0,0.0,0.0,0.0,0.0,0.0,0.0,0.0,0.0,0.0,0.0,0.0,0.0,0.0,0.0,0.0,0.0,0.0,0.0,0.0,0.0,0.0,0.0,0.0,0.0,0.0,0.0,0.0,0.0,0.0,0.0,0.0,0.0,0.0,0.0,0.0,0.0,0.0,0.0,0.0,0.0,0.0,0.0,0.0,0.0,0.0,0.0,0.0,0.0,0.0,0.0,0.0,0.0,0.0,0.0,0.0,0.0,0.0,0.0,0.0,0.0,0.0,0.0,0.0,0.0,0.0,0.0,0.0,0.0,0.0,0.0,0.0,0.0,0.0,0.0,0.0,0.0,0.0,0.0,0.0,0.0,0.0,0.0,0.0,0.0,0.0,0.0,0.0,0.0,0.0,0.0,0.0,0.0,0.0,0.0,0.0,0.0,0.0,0.0,0.0,0.0,0.0,0.0,0.0,0.0,0.0,0.0,0.0,0.0,0.0,0.0,0.0,0.0,0.0,0.0,0.0,0.0,0.0,0.0,0.0,0.0,0.0,0.0,0.0,0.0,0.0,0.0,0.0,0.0,0.0,0.0,0.0,0.0,0.0,0.0,0.0,0.0,0.0,0.0,0.0,0.0,0.0,0.0,0.0,0.0,0.0,0.0,0.0,0.0,0.0,0.0,0.0,0.0,0.0,0.0,0.0,0.0,0.0,0.0,0.0,0.0,0.0,0.0,0.0,0.0,0.0,0.0,2.0013,1.7518,0.0,0.0,0.0,0.0,0.0,0.0,0.0,0.0,0.0,0.0,0.0,0.0,0.0,0.0,0.0,0.0,0.0,0.0,0.0,0.0,0.0,0.0,0.0,0.0,0.0,0.0,0.0,0.0,0.0,0.0,0.0,0.0,0.0,0.0,0.0,0.0,0.9267,1.1122,1.3156,1.6362,2.0553,1.8323,1.5951,1.3502,0.0,0.0,0.0,0.0,0.0,0.0,0.0,0.0,0.0,0.0,0.0,0.0,0.0,0.0,0.0,0.0,0.0,0.0,0.0,0.0,0.0,0.0,0.0,0.0,0.0,0.0,0.0,0.0,0.0,0.0,0.0,0.0,0.0,0.0,0.0,0.0,0.0,0.0,0.0,0.0,0.0,0.0,0.0,0.0,0.0,0.0,0.0,0.0,0.0,0.0,0.0,0.0,0.0,0.0,0.0,0.0,0.0,0.0,0.0,0.0,0.0,0.0,0.0,0.0,0.0,0.0,0.0,0.0,0.0,0.0,2.3163,2.0679,0.0,0.0,0.0,0.0,0.0,0.0,0.0,0.0,0.0,0.0,0.0,0.0,0.0,0.0,0.0,0.0,0.0,0.0,0.0,0.0,0.0,0.0,0.0,1.1551,1.1443,1.0886,1.0834,1.0731,0.0,0.0,0.0,0.0,0.0,0.0,0.8417,0.9237,1.1162,1.4221,1.8458,2.2972,2.7656,2.7176,2.4665,2.0404,1.733,0.0,0.0,0.0,0.0,0.0,0.0,0.0,0.0,0.0,0.0,0.0,0.0,0.0,0.0,0.0,0.0,0.0,0.0,0.0,0.0,0.0,0.0,0.0,0.0,0.0,0.0,0.0,0.0,0.0,0.0,0.0,0.0,0.0,0.0,0.0,0.0,0.0,0.0,0.0,0.0,0.0,0.0,0.0,0.0,0.0,0.0,0.0,0.0,0.0,0.0,0.0,0.0,0.0,0.0,0.0,0.0,0.0,0.0,0.0,0.0,0.0,0.0,0.0,2.7932,2.8774,2.9417,2.9657,3.0535,3.1616,2.6901,2.4965,2.4966,2.2275,0.0,0.0,0.0,0.0,0.0,0.0,0.0,0.0,0.0,0.0,0.0,0.0,0.0,0.0,0.0,0.0,0.0,0.0,0.0,0.0,0.0,1.3946,1.4256,1.4167,1.3647,1.3067,1.2472,0.0,0.0,0.0,0.0,0.924,0.9326,1.0736,1.3328,1.7139,2.589,3.1455,3.3921,3.3702,3.3262,3.2373,2.6911,2.2589,1.9352,0.0,0.0,0.0,0.0,0.0,0.0,0.0,0.0,0.0,0.0,0.0,0.0,0.0,0.0,0.0,0.0,0.0,0.0,0.0,0.0,0.0,0.0,0.0,0.0,0.0,0.0,0.0,0.0,0.0,0.0,0.0,0.0,0.0,0.0,0.0,0.0,0.0,0.0,0.0,0.0,0.0,2.1947,2.276,0.0,0.0,0.0,0.0,0.0,0.0,0.0,0.0,0.0,0.0,0.0,0.0,0.0,2.673,2.8662,2.9569,3.052,3.1541,3.3864,3.4581,3.3905,3.5068,3.5231,3.4522,3.3536,0.0,2.8893,2.7604,0.0,0.0,0.0,0.0,0.0,0.0,0.0,0.0,0.0,0.0,0.0,0.0,0.0,0.0,0.0,0.0,0.0,0.0,0.0,0.0,0.0,1.689,1.7817,1.8446,1.8285,1.7395,1.568,1.3833,0.0,0.0,1.0264,1.0234,1.1334,1.4599,2.0222,2.8199,3.4048,3.8025,4.0197,3.9834,3.985,4.0065,3.6936,3.1944,2.579,2.3941,0.0,0.0,0.0,0.0,0.0,0.0,0.0,0.0,0.0,0.0,0.0,0.0,0.0,0.0,0.0,0.0,0.0,0.0,0.0,0.0,0.0,0.0,0.0,0.0,0.0,0.0,0.0,0.0,0.0,0.0,0.0,0.0,0.0,0.0,0.0,0.0,0.0,0.0,0.0,2.189,2.3018,2.3912,2.3012,2.1853,0.0,0.0,0.0,0.0,0.0,0.0,0.0,0.0,0.0,2.9897,3.031,3.1332,3.3144,3.4394,3.5284,3.5798,3.7626,3.8418,3.8255,3.8852,3.8904,3.8497,3.8136,3.6951,3.4982,3.0608,2.7009,2.4128,0.0,0.0,0.0,0.0,2.3143,2.2834,0.0,0.0,0.0,0.0,0.0,0.0,0.0,0.0,0.0,0.0,0.0,0.0,1.8017,1.9788,2.1306,2.2521,2.2339,2.1432,1.975,1.7167,1.507,1.3673,1.1936,1.1864,1.3727,1.9656,2.739,3.6977,3.9929,4.2397,4.4301,4.3677,4.3653,4.4043,4.3331,3.9047,3.2123,2.9667,2.6275,2.224,0.0,0.0,0.0,0.0,0.0,0.0,0.0,0.0,0.0,0.0,0.0,0.0,0.0,0.0,0.0,0.0,0.0,0.0,0.0,0.0,0.0,0.0,0.0,0.0,0.0,0.0,0.0,0.0,0.0,0.0,0.0,0.0,0.0,0.0,0.0,0.0,0.0,2.3665,2.4712,2.5274,2.5147,2.4432,0.0,0.0,0.0,0.0,0.0,0.0,3.0092,3.045,3.1773,3.4276,3.4685,3.5626,3.72,3.7961,3.8634,3.9137,4.004,4.0648,4.1016,4.1267,4.135,4.13,4.0992,4.0488,3.9502,3.403,3.0561,2.8589,2.7683,2.6734,2.6133,2.8265,2.8652,2.8514,0.0,0.0,0.0,0.0,0.0,0.0,0.0,0.0,0.0,0.0,0.0,1.8841,2.0116,2.2433,2.4442,2.5843,2.4684,2.4182,2.4865,2.099,1.8633,1.8551,1.5605,1.4745,1.6375,2.5745,3.3239,3.8591,4.171,4.3748,4.466,4.38,4.3441,4.3438,4.3408,4.1364,3.7897,3.6341,3.2805,2.7745,2.2595,0.0,0.0,0.0,0.0,0.0,0.0,0.0,0.0,0.0,0.0,0.0,0.0,0.0,0.0,0.0,0.0,0.0,0.0,0.0,0.0,0.0,0.0,0.0,0.0,0.0,0.0,0.0,0.0,0.0,0.0,0.0,0.0,0.0,0.0,0.0,0.0,0.0,0.0,2.7715,2.9336,0.0,0.0,0.0,0.0,2.8984,2.9724,3.1063,3.3175,3.4065,3.5514,3.7679,3.8253,3.9057,4.0172,3.9116,3.942,4.1066,4.1009,4.0971,4.102,4.1997,4.2128,4.1588,4.1771,4.1354,4.0447,3.909,3.7304,3.5401,3.5352,3.4315,3.314,3.5243,3.5969,3.6258,0.0,0.0,0.0,1.188,1.1805,1.1805,1.1805,1.2732,1.3948,1.5348,1.8002,2.1003,2.4284,2.6375,2.8341,3.0393,2.9785,2.8885,2.7934,2.3782,2.1501,2.1851,1.8914,2.0569,2.7586,3.3974,3.9616,4.4423,4.5939,4.6979,4.7536,4.6947,4.6585,4.6299,4.523,4.4285,4.331,4.0467,3.7308,3.3808,2.9248,2.4097,0.0,0.0,0.0,0.0,0.0,0.0,0.0,0.0,0.0,0.0,0.0,0.0,0.0,0.0,0.0,0.0,0.0,0.0,0.0,0.0,0.0,0.0,0.0,0.0,0.0,0.0,0.0,0.0,0.0,0.0,0.0,0.0,0.0,0.0,0.0,0.0,0.0,2.9865,3.087,0.0,2.945,3.1805,3.3331,3.3071,3.5344,3.7075,3.7825,3.8251,3.8694,3.9215,3.9406,3.9605,3.9804,4.0442,4.1147,4.1844,4.2453,4.2803,4.2943,4.2806,4.2635,4.2433,4.2745,4.2624,4.2217,4.2036,4.0229,3.7582,3.7725,3.7429,3.7087,3.8269,3.8626,3.8685,0.0,0.0,0.0,1.191,1.1805,1.1805,1.1805,1.3136,1.4875,1.6941,1.9846,2.3251,2.7267,2.9162,3.099,3.3155,3.2705,3.1999,3.1283,2.7106,2.4718,2.4883,2.3285,2.6398,3.4936,3.9352,4.3356,4.7072,4.7832,4.858,4.9359,4.8829,4.863,4.856,4.7233,4.681,4.6954,4.4311,4.1729,3.9142,3.48,2.9762,2.4347,0.0,0.0,0.0,0.0,0.0,0.0,0.0,0.0,0.0,0.0,0.0,0.0,0.0,0.0,0.0,0.0,0.0,0.0,0.0,0.0,0.0,0.0,0.0,0.0,0.0,0.0,0.0,0.0,0.0,0.0,0.0,0.0,0.0,0.0,2.9503,3.1267,3.123,3.2834,3.346,3.2313,3.51,3.6994,3.6994,3.9098,4.0379,4.0379,4.0496,4.0378,3.9975,4.0503,4.0646,4.0331,4.1778,4.2558,4.2618,4.3175,4.3572,4.3894,4.3319,4.3184,4.3411,4.3578,4.3552,4.3446,4.3671,4.242,4.0407,4.0487,4.0414,4.0359,4.1013,4.1033,4.0692,0.0,0.0,1.2624,1.1939,1.1835,1.1835,1.1835,1.354,1.5768,1.8352,2.1998,2.5597,2.8825,3.0681,3.2309,3.3889,3.3137,3.329,3.4971,3.0945,2.8265,2.7757,2.8906,3.2115,3.7563,4.1521,4.4399,4.6143,4.7169,4.845,4.9912,4.9224,4.9257,4.9895,4.9171,4.8834,4.8719,4.779,4.6065,4.3614,3.9013,3.5646,3.266,0.0,0.0,0.0,0.0,0.0,0.0,0.0,0.0,0.0,0.0,0.0,0.0,0.0,0.0,0.0,0.0,0.0,0.0,0.0,0.0,0.0,0.0,0.0,0.0,0.0,0.0,0.0,0.0,0.0,0.0,0.0,0.0,0.0,2.9887,3.1366,3.2401,3.1961,3.5509,3.7466,3.6175,3.876,4.0529,4.0529,4.0545,4.0561,4.0561,4.0696,4.0606,4.0181,4.1687,4.2314,4.1893,4.3016,4.3555,4.3452,4.3117,4.3213,4.3751,4.3504,4.3751,4.4344,4.4147,4.4068,4.4068,4.4068,4.4051,4.4035,4.3939,4.3564,4.3109,4.3673,4.3431,4.2615,1.4558,1.3989,1.3316,1.2639,1.2519,1.2519,1.2519,1.424,1.6721,2.0047,2.3522,2.7049,3.065,3.242,3.3733,3.4705,3.4542,3.4392,3.4453,3.0716,2.9151,3.0579,3.6535,4.0348,4.1461,4.4933,4.6886,4.7186,4.8562,4.9626,5.0342,5.1076,5.1094,5.044,4.9719,4.9226,4.8872,4.7528,4.68,4.6351,4.3794,4.0277,3.6177,0.0,0.0,0.0,0.0,0.0,0.0,0.0,0.0,0.0,0.0,0.0,0.0,0.0,0.0,0.0,0.0,0.0,0.0,0.0,0.0,0.0,0.0,0.0,0.0,0.0,0.0,0.0,0.0,0.0,0.0,0.0,3.0817,3.2924,3.2417,3.4611,3.6398,3.6725,3.8341,3.939,3.9239,4.0502,4.1304,4.1304,4.1759,4.2004,4.2004,4.2568,4.2509,4.1729,4.2581,4.27,4.1921,4.3016,4.3863,4.4332,4.4009,4.4198,4.482,4.3686,4.3272,4.3467,4.3545,4.3582,4.3598,4.3717,4.3431,4.3028,4.3752,4.3951,4.3813,4.3972,4.3922,4.3659,1.4856,1.4483,1.4004,1.3343,1.3223,1.3223,1.3223,1.4902,1.7486,2.1135,2.3996,2.7336,3.1643,3.2829,3.3796,3.4934,3.5018,3.4499,3.3305,3.1151,3.1946,3.6423,4.0754,4.3502,4.4401,4.6947,4.8124,4.777,4.916,5.0476,5.1648,5.2294,5.2348,5.1833,5.1027,5.02,4.9373,4.8223,4.7892,4.8091,4.7018,4.4277,4.0558,3.8096,3.4903,3.1501,2.949,2.7885,2.6756,2.6646,0.0,0.0,0.0,0.0,0.0,0.0,0.0,0.0,0.0,0.0,0.0,0.0,0.0,0.0,0.0,0.0,0.0,0.0,0.0,0.0,0.0,0.0,0.0,0.0,3.3819,3.582,3.6147,3.7271,3.8384,3.9265,4.0091,4.0693,4.095,4.1598,4.2148,4.2439,4.2844,4.3055,4.3055,4.3556,4.3485,4.2736,4.3468,4.3495,4.2712,4.3823,4.424,4.3939,4.428,4.4722,4.513,4.4359,4.4288,4.4675,4.4502,4.4417,4.4401,4.4492,4.4274,4.3876,0.0,0.0,0.0,0.0,4.3427,4.3377,1.5035,1.4916,1.4706,1.4034,1.3902,1.3902,1.3902,1.5502,1.8051,2.1806,2.3933,2.6967,3.1835,3.2475,3.309,3.4464,3.4771,3.4091,3.2187,3.2537,3.5818,4.252,4.261,4.3658,4.6209,4.7762,4.8338,4.7852,4.9073,5.0759,5.2841,5.2736,5.2806,5.2977,5.2152,5.1091,4.9852,4.9125,4.8872,4.8987,4.8832,4.7402,4.5,4.2339,3.9971,3.7769,3.4847,3.2839,3.1394,3.0112,0.0,0.0,0.0,0.0,0.0,0.0,0.0,0.0,0.0,0.0,0.0,0.0,0.0,0.0,0.0,0.0,0.0,0.0,0.0,0.0,0.0,0.0,0.0,0.0,3.7001,3.9024,4.0078,3.9431,3.9226,4.0307,4.1076,4.1573,4.1695,4.2342,4.2991,4.367,4.3719,4.3719,4.3719,4.396,0.0,0.0,0.0,4.4486,4.3876,4.4781,4.4567,4.3191,4.422,4.4838,4.5033,4.5211,4.5714,4.643,4.5851,4.5522,4.5377,4.5487,4.5549,4.5479,4.4238,4.3346,4.2767,4.2796,4.2746,4.2568,1.5634,1.5619,1.5395,1.4707,1.4603,1.4603,1.4603,1.58,1.8187,2.2321,2.4557,2.7278,3.1117,3.2629,3.3142,3.2604,3.4055,3.4448,3.3187,3.6493,3.8953,3.9933,4.3815,4.5798,4.5521,4.6914,4.7408,4.6864,4.8299,4.9524,5.0532,5.1285,5.1023,4.9959,4.9926,4.9457,4.8604,4.7994,4.8152,4.8849,4.8818,4.8147,4.7026,4.5598,4.4367,4.3107,4.1259,3.9594,3.8259,3.8223,3.5599,3.2155,3.1208,2.867,0.0,0.0,0.0,0.0,0.0,0.0,0.0,0.0,0.0,0.0,0.0,0.0,0.0,0.0,0.0,0.0,0.0,0.0,0.0,3.5831,3.8046,3.9984,4.0797,4.0859,4.0935,4.1158,4.1801,4.2251,4.2392,4.3039,4.3557,4.3702,4.3719,4.3719,4.3719,4.4302,4.4431,4.4045,4.4781,4.4925,4.4354,4.4009,4.4153,4.4834,4.4459,0.0,4.5243,4.5276,4.4704,4.3707,4.4085,4.3716,4.2864,4.357,4.4102,4.4432,4.4584,4.4557,4.4454,4.4632,4.4236,4.3672,1.5799,1.5799,1.5694,1.535,1.529,1.529,1.529,1.6383,1.8272,2.1264,2.3373,2.5622,2.826,2.9543,3.0026,2.9582,3.0997,3.2579,3.4182,3.7379,3.9997,4.1769,4.4892,4.6449,4.6108,4.6792,4.7286,4.7554,4.8277,4.9085,4.993,5.0276,4.9985,4.9194,4.9244,4.8943,4.8371,4.8067,4.8228,4.8627,4.842,4.8234,4.7989,4.7113,4.596,4.471,4.3403,4.2195,4.1115,4.053,3.859,3.6233,3.519,3.2505,2.9097,0.0,0.0,0.0,0.0,0.0,0.0,0.0,0.0,0.0,0.0,0.0,0.0,0.0,0.0,3.2883,3.3793,0.0,3.7406,3.8398,3.9582,4.075,4.1706,4.174,4.1741,4.1976,4.2621,4.3073,4.3136,4.3832,4.4188,4.4008,4.4008,4.383,4.346,4.4004,4.4428,4.464,4.4902,4.5147,4.5436,4.4195,4.3842,4.4334,4.3913,4.3945,4.4415,4.474,4.4578,4.4022,4.4365,4.3945,4.3083,4.3573,4.4004,4.4333,4.4613,4.452,4.4248,4.4308,4.4188,4.4103,1.5799,1.5799,1.5799,1.5799,1.5799,1.5799,1.5799,1.6772,1.819,2.0052,2.179,2.3489,2.5205,2.6036,2.6613,2.6945,2.8152,3.0546,3.4416,3.7062,4.0051,4.3602,4.5083,4.6003,4.6437,4.6678,4.7271,4.8237,4.8202,4.8666,4.9526,4.9274,4.8987,4.868,4.8614,4.8431,4.8139,4.8171,4.8286,4.842,4.8081,4.7848,4.7686,4.7132,4.6271,4.5172,4.399,4.3048,4.2229,4.1148,4.005,3.9013,3.8063,3.549,3.2373,3.0178,2.8277,0.0,0.0,0.0,0.0,0.0,0.0,0.0,0.0,3.0394,3.1242,3.2416,3.4391,3.6095,3.681,3.7796,3.9075,4.0721,4.096,4.1263,4.2189,4.2156,4.2235,4.2735,4.3202,4.3524,4.3669,4.4363,4.4617,4.4203,4.4297,4.4058,4.3355,4.3775,4.4395,4.5163,4.4982,4.534,4.634,4.4724,4.3897,4.3863,4.3537,4.3522,4.3702,4.4232,4.4379,4.4301,4.422,4.3901,4.3479,4.3611,4.38,4.4052,4.4089,4.3766,4.3328,4.3567,4.3774,4.3966,1.5799,1.5799,1.5799,1.5799,1.5799,1.5799,1.5799,1.6368,1.7647,1.9991,2.1011,2.2139,2.3852,2.478,2.562,2.6483,2.8217,3.0268,3.2641,3.6803,3.974,4.099,4.2936,4.4238,4.4747,4.5832,4.6714,4.7346,4.716,4.7464,4.8213,4.7686,4.7104,4.6469,4.675,4.6896,4.6928,4.7023,4.7517,4.8227,4.8195,4.6887,4.4974,4.52,4.5789,4.6301,4.4697,4.3497,4.2722,4.3075,4.1704,3.9811,3.9786,3.791,3.5519,3.453,3.2445,3.0124,2.8764,2.8586,2.9383,3.1808,3.2097,3.2978,0.0,3.7192,3.6418,3.8254,3.9425,4.0142,4.0243,4.0769,4.1181,4.125,4.1412,4.1461,4.129,4.1992,4.2776,4.3427,4.3049,4.297,4.3553,4.4285,4.4443,4.3825,4.4313,4.4361,4.3664,4.4246,4.4856,4.5441,4.5441,4.5643,4.6125,4.5113,4.49,4.5515,4.4533,4.4177,4.4393,4.434,4.3283,4.1429,4.114,4.1208,4.1524,4.1714,4.206,4.2471,4.266,4.2524,4.2461,4.3988,4.3887,4.3046,1.5799,1.5799,1.5799,1.5799,1.5799,1.5799,1.5799,1.6308,1.7057,1.8059,1.9122,1.9904,2.0229,2.0593,2.1095,2.1892,2.5568,2.8599,3.0348,3.5916,3.9641,4.0769,4.2736,4.419,4.4948,4.5821,4.6545,4.7012,4.6927,4.7038,4.7346,4.7142,4.6986,4.6911,4.7078,4.7243,4.7456,4.7505,4.7752,4.7983,4.696,4.5772,4.4448,4.2922,4.2043,4.1601,4.1529,4.0843,0.0,4.0411,3.9486,3.8314,3.8828,3.7226,3.5159,3.5221,3.3682,3.2325,3.3775,3.3834,3.3896,3.5723,3.5652,3.5678,3.7816,3.8222,3.8525,3.9764,4.0785,4.1356,4.1113,4.1119,4.1104,4.1021,4.1189,4.1431,4.1771,4.2413,4.3294,4.4355,4.4408,4.446,4.4784,4.5834,4.5793,4.4118,4.46,4.4521,4.3423,4.4179,4.4876,4.5381,4.5955,4.6564,4.7207,4.5681,4.525,4.5939,4.4058,4.3192,4.3276,4.3343,4.2776,4.1677,4.0486,4.0222,4.0613,4.059,4.0756,4.1088,4.1584,4.1738,4.1758,4.2944,4.3088,4.2815,1.5799,1.5799,1.5799,1.5799,1.5799,1.5799,1.5799,1.6174,1.6502,1.6681,1.7548,1.7968,1.7473,1.728,1.7504,1.8341,2.2959,2.6623,2.8542,3.4149,3.8091,3.9608,4.1294,4.2725,4.3924,4.4745,4.5608,4.6532,4.6585,4.6682,4.6876,4.675,4.6742,4.688,4.6733,4.6732,4.6775,4.6576,4.6493,4.6362,4.48,4.3624,4.252,4.0391,3.8129,3.6342,3.775,3.7452,3.6378,3.6581,3.6201,3.5818,3.6696,3.5651,3.4275,3.5352,3.4572,3.3924,3.6434,3.6841,3.6846,3.7987,3.8133,3.8099,3.8302,3.9083,3.9951,4.0611,4.1326,4.1686,4.1339,4.0987,4.0749,4.0646,4.0954,4.1386,4.1937,4.2898,4.3904,4.4937,4.5688,4.6098,4.5984,4.6852,4.651,4.419,4.4993,4.4977,4.3573,4.4368,4.507,4.5516,4.6128,4.6907,4.7816,4.617,4.5686,4.6442,4.4283,4.316,4.2921,4.2424,4.2145,4.1896,4.0349,3.9782,3.9963,3.9952,4.0,4.0112,4.0808,4.1049,4.1092,4.1776,4.2152,4.228,1.5799,1.5799,1.5799,1.5799,1.5799,1.5799,1.5799,1.5829,1.6039,1.6622,1.6741,1.6741,1.6726,1.6204,1.6368,1.7624,2.1147,2.459,2.7646,3.131,3.4242,3.6248,3.7331,3.8708,4.0512,4.1724,4.3392,4.5651,4.5788,4.6196,4.6894,4.6383,4.5832,4.5341,4.4825,4.4271,4.3681,4.2969,4.2655,4.258,4.175,4.0003,3.7863,3.7522,3.4932,3.1824,3.4261,3.3773,3.205,3.236,3.2383,3.2448,3.3591,3.3595,3.3638,3.5663,3.5717,3.5117,3.51,3.5779,3.6734,3.7678,3.9179,4.0595,4.1295,4.1344,4.1353,4.1789,4.172,4.1522,4.1171,4.0935,4.0681,4.0285,4.0922,4.1438,4.1342,4.319,4.4639,4.4874,4.6445,4.7281,4.6643,4.6612,4.5796,4.3762,4.5442,4.5981,4.4625,4.521,4.5735,4.6162,4.5755,4.6144,4.7405,4.6538,4.6486,4.7321,4.6024,4.5008,4.4266,4.2002,4.1056,4.1167,4.0292,3.97,3.936,3.9901,3.9897,3.9675,4.0274,4.0417,4.0312,4.0912,4.1138,4.1169,1.6323,1.6069,1.5919,1.6323,1.6069,1.5799,1.5799,1.5799,1.5873,1.6069,1.6099,0.0,0.0,0.0,0.0,0.0,1.9957,2.2678,2.4746,2.9265,3.2525,3.4023,3.6314,3.7697,3.7998,3.9548,4.0546,4.0965,4.2157,4.2751,4.2732,4.259,4.2237,4.1771,4.1278,4.0971,4.0868,4.0627,4.0591,4.0603,3.92,3.7666,3.6222,3.6036,3.2953,2.8771,0.0,2.8771,2.8097,2.8623,2.8697,2.878,2.9984,2.9832,2.9574,3.1334,3.4077,3.6771,3.7836,3.8696,3.9661,4.1347,4.1499,4.1355,4.1821,4.1694,4.1532,4.1688,4.1007,4.0341,4.015,4.0189,4.0189,3.997,4.1469,4.2864,4.342,4.4887,4.6174,4.6873,4.7902,4.8254,4.7614,4.7762,4.7281,4.5695,4.6619,4.6865,4.5957,4.6557,4.6909,4.685,4.6846,4.73,4.8336,4.6566,4.6471,4.797,4.5804,4.4641,4.436,4.2974,4.2456,4.262,4.1923,4.1181,4.0504,4.0241,4.0112,3.9986,3.9942,4.019,4.0637,4.0551,4.0572,4.0634,1.698,1.6757,1.6533,1.6666,1.6383,0.0,0.0,0.0,0.0,0.0,0.0,0.0,0.0,0.0,0.0,0.0,0.0,2.0749,2.2798,2.6339,2.9022,3.0456,3.2285,3.3306,3.3376,3.4636,3.5739,3.6597,3.8084,3.906,3.9486,3.9343,3.8978,3.849,3.7918,3.7716,3.7755,3.7251,3.7322,3.7639,3.5335,3.3936,3.3159,3.2142,2.9323,0.0,2.5209,2.4694,2.4287,2.4457,2.5069,2.5922,2.6853,2.774,2.8789,3.0486,3.396,3.7693,3.9837,4.054,4.1082,4.267,4.214,4.1274,4.1565,4.1692,4.1816,4.2053,4.0944,3.9968,3.996,3.9577,3.9284,3.9358,4.114,4.2846,4.3733,4.5266,4.6578,4.727,4.8323,4.8732,4.805,4.8142,4.7829,4.6799,4.749,4.7665,4.6988,4.7142,4.7154,4.6998,4.7098,4.7478,4.8246,4.6727,4.6467,4.7434,4.5437,4.4618,4.4818,4.4023,4.3487,4.3169,4.278,4.205,4.1096,4.0689,4.0526,4.0509,4.034,4.0617,4.1163,4.0698,4.0643,4.0804,1.7727,1.7712,1.7488,0.0,0.0,0.0,0.0,0.0,0.0,0.0,0.0,0.0,0.0,0.0,0.0,0.0,0.0,0.0,2.1679,2.2685,2.3989,2.581,2.5753,2.6116,2.7054,2.755,2.9374,3.2607,3.365,3.5101,3.6971,3.6467,3.5881,3.5261,3.4623,3.4283,3.4128,3.2796,3.2857,3.356,3.0299,2.8991,2.8711,2.6387,2.4477,2.2994,2.2555,2.179,2.0927,2.0348,2.1889,2.415,2.4624,2.7537,3.1164,3.3019,3.5393,3.8042,4.0913,4.1246,4.1002,4.1789,4.1259,4.0608,4.0849,4.1517,4.2187,4.2615,4.1293,4.0069,4.0133,3.8993,3.8189,3.8504,4.0224,4.18,4.2614,4.4504,4.5945,4.6256,4.786,4.8701,4.8097,4.7802,4.7469,4.7019,4.7901,4.8194,4.7635,4.6957,4.6588,4.6603,4.6554,4.6767,4.7263,4.6928,4.6454,4.5804,4.5003,4.4918,4.5517,4.491,4.395,4.2837,4.2923,4.23,4.1205,4.1177,4.1164,4.1142,4.1335,4.1567,4.1751,4.1327,4.1295,4.1454,0.0,0.0,0.0,0.0,0.0,0.0,0.0,0.0,0.0,0.0,0.0,0.0,0.0,0.0,0.0,0.0,0.0,0.0,1.8757,2.0606,2.2049,2.293,2.4531,2.5407,2.5416,2.6175,2.6802,2.7272,2.8655,2.9487,2.9674,2.9591,2.9199,2.8545,2.8036,2.7805,2.775,2.7379,2.7457,2.7744,2.6753,2.6135,2.5838,2.6487,2.4976,2.2605,2.3243,2.2623,2.1494,2.1884,2.3951,2.6601,2.8056,3.007,3.2205,3.3857,3.6578,3.9418,4.0913,4.1709,4.2272,4.2887,4.2257,4.1588,4.2094,4.2069,4.1535,4.0072,3.8298,3.634,3.4084,3.6662,3.8848,3.8134,4.2359,4.577,4.5792,4.6129,4.6679,4.7448,4.7951,4.8376,4.8701,4.8691,4.8614,4.8484,4.7455,4.7104,4.7588,4.6812,4.6444,4.6603,4.6733,4.6772,4.6762,4.6519,4.5748,4.4634,4.4691,4.4647,4.4433,4.4654,4.4269,4.3401,4.3782,4.3351,4.2412,4.1964,4.1774,4.172,4.1328,4.1595,4.2204,4.1782,4.1277,4.0876,0.0,0.0,0.0,0.0,0.0,0.0,0.0,0.0,0.0,0.0,0.0,0.0,0.0,0.0,0.0,0.0,0.0,0.0,0.0,1.8899,1.9735,2.0041,2.1004,2.1441,2.1248,2.1714,2.227,2.284,2.3805,2.4595,2.5201,2.5031,2.4763,2.437,2.4119,2.4261,2.4723,2.4443,2.4636,0.0,0.0,2.3713,2.3627,2.402,2.3254,2.2086,2.2659,2.3387,2.4215,2.525,2.6801,2.8613,3.0399,3.1936,3.3498,3.5649,3.7947,4.0111,4.1548,4.227,4.2739,4.3282,4.2583,4.1603,4.1066,4.0805,3.9946,3.7348,3.5626,3.3969,3.1907,3.501,3.7735,3.7386,4.1745,4.5372,4.5768,4.609,4.6569,4.7431,4.805,4.8577,4.8965,4.8635,4.8491,4.8785,4.7886,4.7528,4.8019,4.7006,4.6484,4.6603,4.6919,4.6964,4.6691,4.6071,4.5144,4.4,4.421,4.4139,4.3862,4.4589,4.4408,4.349,4.4156,4.3857,4.286,4.2521,4.2385,4.2358,4.2019,4.2347,4.2899,4.2368,4.2051,4.1792,0.0,0.0,0.0,0.0,0.0,0.0,0.0,0.0,0.0,1.6514,1.6204,1.6263,1.6786,1.6905,0.0,0.0,0.0,0.0,0.0,0.0,1.7608,1.7713,1.707,1.6741,1.6831,1.683,1.7699,1.942,1.9599,2.0549,2.22,2.1783,2.1597,2.1597,2.1597,2.2157,2.3029,2.2447,2.2819,2.3678,2.2039,2.1649,2.1932,0.0,2.0943,2.1613,2.1673,2.3968,2.7226,2.8828,2.9814,3.0644,3.2385,3.3779,3.5247,3.7828,3.9292,4.0467,4.2233,4.2685,4.2729,4.3239,4.2622,4.1398,3.9359,3.8905,3.7947,3.4608,3.3017,3.1966,3.1012,3.3329,3.5673,3.6558,4.008,4.3247,4.4763,4.5485,4.6106,4.6826,4.7896,4.8624,4.8676,4.7957,4.7758,4.8435,4.8481,4.8481,4.8481,4.724,4.6594,4.6726,4.6943,4.6963,4.6713,4.566,4.4621,4.3603,4.3617,4.3617,4.3572,4.4442,4.4273,4.3277,4.4059,4.381,4.2873,4.2806,4.2867,4.2935,4.284,4.3166,4.3592,4.3012,4.3009,4.305,0.0,0.0,0.0,0.0,0.0,0.0,0.0,0.0,0.0,0.0,1.8217,1.7414,0.0,0.0,0.0,0.0,0.0,0.0,0.0,0.0,0.0,1.7684,1.707,1.6965,1.7503,1.7518,1.7713,1.8057,1.8078,1.8268,1.8609,1.8507,1.8487,1.8487,1.8487,1.8599,1.8772,1.8654,1.9033,1.9741,1.9781,2.0138,2.0691,2.1199,2.1476,0.0,2.2032,2.3749,2.6204,2.889,3.1534,3.3983,3.5787,3.7095,3.8185,3.9243,4.0241,4.1117,4.1672,4.2206,4.2689,4.3047,4.3175,4.2616,4.0496,3.8935,3.6693,3.2246,3.0027,2.8218,2.6151,2.9912,3.4039,3.6256,4.0737,4.4725,4.7037,4.6648,4.6321,4.6826,4.6625,4.6578,4.6976,4.6889,4.705,4.7727,4.7773,4.7773,4.7773,4.6873,4.6689,4.7404,4.6436,4.6009,4.6314,4.5357,4.425,4.3034,4.3262,4.3143,4.2726,4.3352,4.3371,4.2965,4.3156,4.3067,4.2846,4.2358,4.2583,4.317,4.2678,4.2942,4.3563,4.3304,4.2797,4.2139,0.0,0.0,0.0,0.0,0.0,0.0,0.0,2.1051,2.1787,2.333,2.3126,2.201,1.9759,1.903,1.8837,0.0,0.0,0.0,0.0,0.0,0.0,1.7713,1.7384,1.7369,1.7699,1.7713,1.7878,1.8222,0.0,1.7878,1.8207,1.7863,1.7713,1.7713,1.7713,1.7893,1.8222,1.8222,1.8418,1.8749,1.9336,1.9799,2.0241,2.1005,2.1568,0.0,2.2378,2.4168,2.6568,2.7736,3.0963,3.4872,3.694,3.8018,3.8598,3.9308,4.0324,4.1291,4.1428,4.2226,4.3007,4.3003,4.2981,4.2037,3.8325,3.6218,3.3616,2.8524,2.6785,2.5733,2.4214,2.8013,3.2019,3.3993,3.877,4.3047,4.5399,4.5494,4.5721,4.6779,4.6011,4.5686,4.6508,4.6478,4.6732,4.7532,4.7604,4.7758,4.8112,4.7077,4.6791,4.7588,4.5957,4.5369,4.6005,4.4822,4.3759,4.2889,4.3031,4.2958,4.2741,4.2978,4.3019,4.2887,4.2582,4.2582,4.2679,4.2369,4.2567,4.306,4.271,4.3056,4.3729,4.3032,4.2794,4.263,0.0,0.0,0.0,0.0,0.0,0.0,0.0,2.3729,2.4664,2.7039,2.7622,2.6361,2.2522,2.068,1.9698,0.0,0.0,0.0,0.0,0.0,0.0,0.0,0.0,0.0,1.7535,0.0,0.0,1.8493,1.7968,0.0,0.0,0.0,0.0,0.0,1.7713,1.7997,1.8493,1.8493,1.8568,0.0,0.0,1.988,2.0145,0.0,0.0,0.0,0.0,2.416,2.6282,2.6571,2.9473,3.3415,3.5909,3.7328,3.8154,3.8813,3.9982,4.1166,4.1556,4.255,4.3419,4.2989,4.2734,4.1213,3.602,3.355,3.0852,2.5577,2.4254,2.3979,2.3796,2.677,3.0005,3.2342,3.6665,4.0719,4.3625,4.4373,4.5208,4.6711,4.5719,4.5182,4.592,4.5777,4.6052,4.6943,4.7121,4.7561,4.8332,4.6992,4.6578,4.7373,4.5695,4.5077,4.5606,4.4516,4.3565,4.279,4.2887,4.279,4.2631,4.2693,4.2679,4.2533,4.2177,4.2092,4.2226,4.2056,4.2272,4.2664,4.226,4.2799,4.3756,4.2416,4.252,4.2971,0.0,0.0,0.0,0.0,0.0,0.0,0.0,2.4111,2.578,2.9304,2.9042,2.7618,2.5257,2.3893,2.2004,0.0,0.0,0.0,0.0,0.0,0.0,0.0,0.0,0.0,0.0,0.0,0.0,1.7788,1.7728,0.0,0.0,0.0,0.0,0.0,0.0,1.7727,1.7788,1.7788,0.0,0.0,0.0,0.0,0.0,0.0,0.0,0.0,0.0,2.2668,2.3515,2.6232,2.7537,2.8561,3.1524,3.4803,3.7657,3.8168,3.9281,4.0736,4.2341,4.3293,4.37,4.2999,4.2836,4.1422,3.5887,3.3067,3.0262,2.5477,2.3427,2.3,2.4631,2.5826,2.8286,3.3523,3.6137,3.9354,4.4675,4.5234,4.5528,4.6686,4.5702,4.4662,4.4021,4.392,4.4254,4.4997,4.5624,4.6472,4.7645,4.5951,4.5507,4.664,4.5911,4.5319,4.4908,4.4748,4.3973,4.256,4.279,4.2547,4.1796,4.2079,4.1931,4.1471,4.1634,4.1584,4.1343,4.0562,4.0956,4.1876,4.0586,4.1489,4.3314,4.1521,4.1389,4.189,0.0,0.0,0.0,0.0,0.0,0.0,2.4283,2.4358,2.5618,3.0109,3.0,2.8901,2.7333,2.5961,2.3467,1.9272,0.0,0.0,0.0,0.0,0.0,0.0,0.0,0.0,0.0,0.0,1.8897,1.8897,1.8897,0.0,0.0,0.0,0.0,0.0,0.0,1.8897,1.8897,1.8897,0.0,0.0,0.0,0.0,0.0,0.0,0.0,0.0,0.0,0.0,2.3227,2.3999,2.5597,2.7306,2.74,3.0138,3.3662,3.5584,3.7824,3.9892,4.1048,4.2257,4.2977,4.1896,4.1167,3.9457,3.4696,3.1678,2.885,2.523,2.3325,2.2861,2.4757,2.4941,2.6378,3.1167,3.3349,3.5698,3.9303,4.0667,4.1755,4.3004,4.2184,4.1975,4.3026,4.3011,4.3311,4.4197,4.4155,4.4322,4.4805,4.4947,4.5214,4.5585,4.5032,4.4457,4.378,4.384,4.3491,4.2741,4.2838,4.2741,4.2387,4.2177,4.1967,4.1769,4.1385,4.1248,4.1232,4.052,4.0746,4.1367,4.0253,4.0675,4.174,4.042,4.0074,4.0094,0.0,0.0,0.0,0.0,0.0,2.0719,2.4489,2.4581,2.5731,3.004,3.0096,2.9312,2.8248,2.6394,2.3837,2.0373,1.9849,0.0,0.0,0.0,0.0,0.0,0.0,0.0,0.0,0.0,1.9813,1.9989,1.9989,1.9989,0.0,0.0,1.9902,1.9708,0.0,0.0,0.0,0.0,0.0,0.0,0.0,0.0,0.0,0.0,0.0,0.0,0.0,0.0,0.0,0.0,0.0,2.5724,2.4788,2.6415,2.9431,3.3252,3.6122,3.8418,4.0136,4.1336,4.1861,4.0919,3.9797,3.7834,3.3743,3.0726,2.7976,2.5096,2.3325,2.2835,2.4568,2.4619,2.5591,2.924,3.119,3.3246,3.6165,3.7715,3.9139,4.0689,4.0375,4.0496,4.1787,4.2149,4.2793,4.3916,4.3185,4.2876,4.324,4.3796,4.4078,4.4024,4.3734,4.3324,4.289,4.289,4.2846,4.2679,4.2741,4.2595,4.219,4.198,4.167,4.1385,4.0883,4.0654,4.0561,4.0115,4.0166,4.0397,3.9561,3.9811,4.0486,3.9261,3.8845,3.8873,0.0,0.0,0.0,0.0,0.0,0.0,2.3308,2.4826,2.6505,2.9087,2.9043,2.8524,2.7808,2.4848,2.2904,2.286,2.0917,0.0,0.0,0.0,0.0,0.0,0.0,0.0,0.0,0.0,2.0019,2.0688,2.0688,2.0688,2.0688,2.0688,2.0348,1.9708,0.0,0.0,0.0,0.0,0.0,0.0,0.0,0.0,0.0,0.0,0.0,0.0,0.0,0.0,0.0,0.0,0.0,0.0,0.0,2.4431,2.5565,3.1634,3.4346,3.6214,4.0201,4.0865,4.0371,4.0237,3.9213,3.7178,3.3217,3.0497,2.7976,2.5096,2.3325,2.2733,2.4151,2.5057,2.6348,2.8637,3.0363,3.2936,3.727,3.8072,3.8959,4.1037,4.1532,4.119,3.9934,4.1206,4.2709,4.4205,4.286,4.2579,4.382,4.2378,4.1681,4.2034,4.2046,4.2137,4.2382,4.2171,4.206,4.2128,4.24,4.1809,4.0555,4.1071,4.0732,3.9736,3.9981,3.9677,3.8932,3.8847,3.8803,3.8671,3.8129,3.8857,3.9961,3.8086,3.7931,3.8437,0.0,0.0,0.0,0.0,0.0,0.0,0.0,2.0827,2.1642,2.4873,2.4387,2.4479,2.6465,2.4131,2.2694,2.3334,2.1108,0.0,0.0,0.0,0.0,0.0,0.0,0.0,0.0,1.9863,2.0946,2.2074,2.2473,2.2921,2.3349,2.2473,2.1695,2.1021,2.0112,1.9708,0.0,0.0,0.0,0.0,0.0,0.0,2.055,0.0,0.0,0.0,0.0,0.0,0.0,0.0,0.0,0.0,0.0,0.0,0.0,2.6315,2.9544,3.2606,3.4671,3.5768,3.6129,3.5451,3.4256,3.2773,3.0827,2.8418,2.6206,2.4801,2.3325,2.2681,2.3903,2.4033,2.5558,3.0394,3.085,3.1819,3.5416,3.7238,3.7979,3.7405,3.9534,4.0794,4.0011,4.1429,4.2231,4.1867,4.1569,4.121,4.0766,4.028,4.0263,4.0816,4.1397,4.1183,4.0143,4.1012,4.1298,4.1018,4.1449,4.1484,4.1034,4.0833,4.0542,4.0224,3.9753,3.9601,3.9614,3.8445,3.829,3.8669,3.7714,3.7442,3.7534,3.7495,3.7027,3.645,0.0,0.0,0.0,0.0,0.0,0.0,0.0,1.9528,2.0014,2.24,2.1848,2.2239,2.4972,2.2682,2.16,2.3201,2.1123,0.0,0.0,0.0,0.0,0.0,0.0,0.0,1.9587,2.0079,2.1455,2.3796,2.3924,2.4582,2.5719,2.4934,2.3661,2.2044,2.1205,2.0412,0.0,0.0,0.0,0.0,0.0,0.0,2.0348,0.0,0.0,0.0,0.0,0.0,0.0,0.0,0.0,0.0,0.0,0.0,0.0,0.0,2.5788,2.8645,3.0972,3.2305,3.3006,3.2899,3.1863,3.0541,2.9358,2.7286,2.5321,2.4288,2.3122,2.2555,2.3361,2.3593,2.4925,2.8802,2.9363,3.0545,3.4154,3.6088,3.716,3.7202,3.8847,3.9976,4.0074,4.1074,4.1559,4.1066,4.0797,4.0339,3.9685,3.9631,3.984,4.0269,4.054,4.0404,3.9919,4.0423,4.0623,4.0491,4.0915,4.0971,4.0681,4.0542,4.0402,4.0185,3.969,3.9512,0.0,3.8372,3.8074,3.8268,3.7283,3.6708,3.6431,3.6606,3.6192,3.5608,0.0,0.0,0.0,0.0,0.0,0.0,0.0,2.0223,2.0811,2.1298,2.0996,2.1441,2.321,2.0756,1.9976,2.2454,0.0,0.0,0.0,0.0,0.0,0.0,0.0,0.0,2.0598,2.0109,2.1724,2.5615,2.5113,2.5914,2.7884,2.7824,2.6057,2.2897,2.2808,2.1625,0.0,0.0,0.0,0.0,1.9708,1.9929,0.0,0.0,0.0,0.0,0.0,0.0,0.0,0.0,0.0,0.0,0.0,0.0,0.0,0.0,0.0,0.0,0.0,3.0058,3.0621,3.1811,3.1133,2.9816,2.8426,2.6727,0.0,2.368,2.2818,2.2408,2.2759,2.3678,2.4597,2.5265,2.6916,2.955,3.3737,3.5146,3.6858,3.9818,3.9359,3.9186,4.0151,4.0421,4.0837,4.1474,4.0518,4.0007,4.0169,4.0187,4.0228,4.0309,3.9694,3.9954,4.1085,4.0293,4.0063,4.0402,4.0668,4.044,3.9736,4.0198,4.0198,3.9749,3.9647,3.9409,3.8932,3.8476,3.8054,3.7518,3.6836,3.6515,3.6379,3.56,3.5505,3.568,0.0,0.0,0.0,0.0,0.0,0.0,0.0,0.0,0.0,0.0,1.9191,1.9686,2.0548,1.9971,1.9782,0.0,0.0,0.0,0.0,0.0,0.0,0.0,0.0,0.0,1.9929,2.0782,2.2667,2.5615,2.6991,2.8667,3.0554,3.0058,2.8068,2.4866,2.3849,2.1994,0.0,0.0,0.0,0.0,1.9708,1.9929,0.0,0.0,0.0,0.0,2.212,2.2784,0.0,0.0,0.0,0.0,0.0,0.0,0.0,0.0,2.1891,2.2746,2.4108,0.0,2.6753,2.6496,2.6169,2.5841,0.0,2.4643,2.3816,2.346,2.2818,2.2663,2.3864,2.4043,2.5312,2.9297,3.0584,3.2378,3.6036,3.8056,3.9816,4.1546,4.1343,4.0891,4.0532,4.1063,4.1176,4.0674,4.0555,4.0441,4.0214,4.0187,4.0516,4.1234,4.0695,4.0248,3.9996,3.9972,3.973,3.9272,3.974,3.9981,3.9981,3.9942,3.9942,3.9955,3.9347,3.9373,3.9677,3.8112,3.7554,3.7483,3.6467,3.5647,3.5095,3.5306,3.5265,3.5132,0.0,0.0,0.0,0.0,0.0,0.0,0.0,0.0,0.0,0.0,0.0,0.0,0.0,0.0,0.0,0.0,0.0,0.0,0.0,0.0,0.0,0.0,0.0,1.9824,2.0154,2.0872,2.2966,2.6512,2.7615,2.9609,3.2392,3.1749,2.9669,2.6378,2.355,2.1306,0.0,0.0,0.0,1.9708,1.9708,0.0,0.0,0.0,0.0,0.0,2.212,2.2635,0.0,2.336,2.372,2.3945,0.0,0.0,0.0,0.0,2.1677,2.219,2.2452,2.4111,2.5749,2.5559,2.5506,2.5422,2.5083,2.4171,2.3291,2.297,2.2581,2.2649,2.3797,2.4446,2.5933,2.9327,3.077,3.2899,3.7049,3.9858,4.1698,4.2247,4.2286,4.1849,4.0661,4.1231,4.1133,3.9904,3.9642,3.963,3.9679,3.9953,4.0515,4.1413,4.1256,4.0843,4.021,4.0065,3.9736,3.9245,3.9295,3.941,3.955,3.9247,3.9171,3.9297,3.9018,3.9105,3.9383,3.8054,3.7571,3.7445,3.62,3.5373,3.4956,3.4825,3.492,3.5118,0.0,0.0,0.0,0.0,0.0,0.0,0.0,0.0,0.0,0.0,0.0,0.0,0.0,0.0,0.0,0.0,0.0,0.0,0.0,0.0,0.0,0.0,1.9281,2.002,2.0972,2.0917,2.3011,2.745,2.775,2.9726,3.3185,3.3036,3.1031,2.7405,2.3071,2.0602,1.9708,1.9708,1.9744,1.9782,1.9711,0.0,0.0,0.0,0.0,0.0,0.0,0.0,0.0,2.4458,2.4729,2.4407,2.4477,0.0,0.0,0.0,0.0,0.0,2.2702,2.4547,2.6317,2.6068,2.6201,2.6167,2.5439,2.4306,2.3241,2.275,2.2649,2.2967,2.4062,2.5489,2.7046,2.8802,3.0641,3.3428,3.7892,4.0988,4.2688,4.2345,4.2623,4.2256,4.0744,4.1123,4.0861,3.9327,3.8815,3.8804,3.9222,3.9844,4.0508,4.1271,4.1531,4.1448,4.0896,4.0367,3.9928,3.9559,3.9094,3.8869,3.8831,3.8489,3.841,3.8548,3.8758,3.8956,3.8981,3.8213,3.7811,3.7515,3.5973,3.5302,3.5142,3.4439,3.4603,3.5133,0.0,0.0,0.0,0.0,0.0,0.0,0.0,0.0,0.0,0.0,0.0,0.0,0.0,0.0,0.0,0.0,0.0,0.0,0.0,0.0,0.0,1.8263,1.8727,2.0064,2.2338,2.1829,2.3251,2.6761,2.8468,3.0163,3.1854,3.4038,3.2377,2.7465,2.4477,2.1859,1.9708,1.9708,1.9892,2.0193,1.9839,0.0,0.0,0.0,0.0,0.0,0.0,0.0,0.0,2.2223,2.3407,2.4577,2.2699,0.0,0.0,0.0,0.0,0.0,2.4578,2.6534,2.7217,2.3812,2.39,2.4643,2.39,2.3562,2.3545,2.4068,2.4169,2.4996,2.7731,2.8764,3.0237,3.3409,3.5776,3.807,4.0472,4.1673,4.2298,4.2324,4.2517,4.2186,4.1065,4.0946,4.0504,3.9278,3.9774,3.9995,3.9876,4.0617,4.1201,4.1601,4.1644,4.1448,4.0896,4.0553,3.9931,3.9045,3.8957,3.8768,3.845,3.8201,3.8477,3.9157,3.9207,3.9624,4.0132,3.8533,3.7906,3.774,3.5882,3.4838,3.4381,3.4489,3.4435,3.4364,0.0,0.0,0.0,0.0,0.0,0.0,0.0,0.0,0.0,0.0,0.0,0.0,0.0,0.0,0.0,0.0,0.0,0.0,0.0,0.0,0.0,2.1011,2.0723,2.1073,2.2245,2.3271,2.542,2.8712,3.0357,3.2033,3.3633,3.2736,3.0238,2.6393,2.3744,2.15,1.9708,1.9708,1.9929,2.0263,0.0,0.0,0.0,0.0,0.0,0.0,0.0,0.0,0.0,0.0,2.3819,2.4455,2.3482,0.0,0.0,0.0,0.0,0.0,2.353,2.5327,2.6509,2.4952,2.6757,2.8809,2.8325,2.7581,2.7043,2.7178,2.6756,2.7099,2.9484,3.0501,3.2237,3.6116,3.9215,4.1047,4.0822,4.1989,4.2897,4.2912,4.2826,4.2482,4.1807,4.1488,4.0657,3.9127,3.9504,3.9803,3.9826,4.034,4.0893,4.1498,4.1461,4.1298,4.0883,4.0795,4.0171,3.9121,3.8353,3.7925,3.7758,3.7442,3.7764,3.8566,3.8235,3.8656,3.9408,3.7843,3.7304,3.7352,3.5845,3.5022,3.4667,3.4437,3.4354,3.4324,0.0,0.0,0.0,0.0,0.0,0.0,0.0,0.0,0.0,0.0,0.0,0.0,0.0,0.0,0.0,0.0,0.0,0.0,0.0,0.0,2.0177,2.2628,2.2438,2.2812,2.3888,2.5322,2.7679,3.0971,3.2003,3.3455,3.519,3.1674,2.8532,2.5734,2.3251,2.1216,1.9708,1.9708,1.9929,2.028,0.0,0.0,0.0,0.0,0.0,0.0,0.0,0.0,0.0,0.0,0.0,0.0,0.0,0.0,0.0,2.3308,2.2699,2.2668,2.319,2.4644,2.6233,2.7209,2.9381,3.1438,3.1937,3.0777,2.967,2.9924,2.9377,2.9392,3.1164,3.2871,3.5119,3.8602,4.1504,4.2752,4.1044,4.2355,4.3495,4.343,4.3099,4.2716,4.2266,4.1618,4.0611,3.9007,3.9297,3.9624,3.9671,4.0122,4.0642,4.1198,4.103,4.0802,4.0639,4.0409,3.9939,3.9081,3.7998,3.7346,3.7033,3.6862,3.7166,3.7824,3.7505,3.7844,3.8545,3.7252,3.6926,3.7105,3.5934,3.5423,3.5212,3.4533,3.4388,3.4562,0.0,0.0,0.0,0.0,0.0,0.0,0.0,0.0,0.0,0.0,0.0,0.0,0.0,0.0,0.0,0.0,0.0,0.0,0.0,0.0,1.9793,2.0145,2.2285,2.5493,2.9779,2.8293,2.9082,3.2377,3.2437,3.3215,3.4533,3.2377,2.9627,2.6437,2.4373,2.2054,1.9708,1.9708,1.9929,2.0297,2.0263,0.0,0.0,0.0,0.0,0.0,0.0,0.0,0.0,0.0,0.0,0.0,0.0,0.0,2.4541,2.4389,2.3864,2.3765,2.5828,2.6756,2.7677,2.9782,2.8704,2.7871,3.0642,2.9662,2.8778,3.0987,3.1372,3.193,3.3868,3.7342,4.0355,4.1842,4.247,4.2668,4.2363,4.3031,4.3492,4.3503,4.3089,4.2511,4.1746,4.0769,3.9842,3.8957,3.9855,4.0222,3.9746,4.0659,4.1108,4.0933,4.0192,3.9822,3.9772,3.9049,3.8608,3.8485,3.8347,3.7667,3.648,3.6958,3.7197,3.7308,3.7994,3.8369,3.8367,3.7424,3.7249,3.7467,3.6303,3.5872,3.5745,3.4875,3.4701,3.4886,0.0,0.0,0.0,0.0,0.0,0.0,0.0,0.0,0.0,0.0,0.0,0.0,0.0,0.0,0.0,0.0,0.0,0.0,0.0,1.9708,2.0452,2.2129,2.3501,2.563,2.8633,2.9564,3.1465,3.4382,3.4382,3.4203,3.3799,3.0582,2.7739,2.5247,2.2862,2.1261,2.0303,1.9887,2.0332,2.1298,2.0587,2.0716,0.0,0.0,0.0,0.0,0.0,0.0,0.0,0.0,2.2884,2.3373,2.3026,2.3643,2.4321,2.3393,2.2936,2.2902,2.3748,2.56,2.7657,2.9124,2.9637,3.0434,3.2814,3.31,3.3321,3.4928,3.5057,3.5243,3.6569,3.952,4.175,4.1503,4.3198,4.4115,4.3039,4.4065,4.4579,4.363,4.2904,4.2248,4.1667,4.0554,3.9699,3.9396,3.9918,4.0147,3.9981,4.0477,4.0757,4.0643,3.9853,3.9509,3.9721,3.8898,3.8458,3.8409,3.8066,3.7528,3.6872,3.7086,3.7472,3.7945,3.7758,3.7853,3.8066,3.6837,3.665,3.6975,3.6029,3.5537,3.5326,3.4615,3.4439,3.4572,0.0,0.0,0.0,0.0,0.0,0.0,0.0,0.0,0.0,0.0,0.0,0.0,0.0,0.0,0.0,0.0,0.0,0.0,1.9708,1.9708,2.0587,2.2607,2.3535,2.4941,2.6941,2.929,3.1827,3.4562,3.519,3.4502,3.2482,2.9355,2.7066,2.5435,2.2781,2.172,2.1854,2.0782,2.0825,2.1536,2.0798,2.0878,0.0,0.0,0.0,0.0,0.0,0.0,0.0,0.0,2.2979,2.3347,2.3085,2.3528,2.4,2.3224,2.346,2.3967,2.3967,2.5826,2.8054,2.9264,3.0401,3.1805,3.3988,3.4898,3.5717,3.7225,3.7494,3.7765,3.8838,4.0724,4.1993,4.1529,4.3688,4.4963,4.3647,4.4951,4.5508,4.4036,4.3109,4.2288,4.164,4.0453,3.9736,3.9839,3.9981,4.0134,4.0236,4.0389,4.0376,4.0146,3.9334,3.8903,3.8923,3.8333,3.8045,3.8009,3.7904,3.7693,3.745,3.7626,3.7837,3.7996,3.7635,3.7455,3.7422,3.6459,3.6252,3.653,3.5894,3.5612,3.5471,3.4533,3.4279,3.4397,0.0,0.0,0.0,0.0,0.0,0.0,0.0,0.0,0.0,0.0,0.0,0.0,0.0,0.0,0.0,0.0,0.0,0.0,1.9708,1.9708,1.9989,2.0658,2.1984,2.3565,2.5486,2.7312,2.9638,3.2467,3.4455,3.3754,3.0447,2.9175,2.8218,2.7465,2.4792,2.3984,2.4455,2.2532,2.1321,2.0723,2.0931,2.1007,2.1103,0.0,0.0,0.0,0.0,0.0,0.0,0.0,2.2919,2.255,2.4034,2.3983,2.3545,2.4271,2.5931,2.7547,2.7547,2.8173,2.9204,3.0793,3.0769,3.1001,3.3448,3.4128,3.4874,3.7175,3.8307,3.9333,4.0606,4.1046,4.1551,4.2535,4.3972,4.4818,4.4379,4.5638,4.6106,4.4823,4.3754,4.2689,4.169,4.0465,3.9839,4.007,4.007,4.0236,4.0504,4.0504,4.0109,3.9309,3.854,3.7825,3.7199,3.7186,3.7174,3.7199,3.7996,3.8261,3.804,3.8617,3.8266,3.7236,3.7764,3.7374,3.6417,3.6405,3.6405,3.6342,3.5999,3.6206,3.6463,3.4803,3.4268,3.4297,0.0,0.0,0.0,0.0,0.0,0.0,0.0,0.0,0.0,0.0,0.0,0.0,0.0,0.0,0.0,0.0,0.0,0.0,1.9708,1.9708,1.9798,1.9989,2.1276,2.1659,2.0898,2.2883,2.625,3.0965,3.1473,3.0822,2.9146,2.8304,2.73,2.6153,2.536,2.4358,2.3191,2.2143,2.1756,2.1826,2.1794,2.1908,2.2197,0.0,0.0,0.0,0.0,0.0,0.0,0.0,0.0,0.0,2.2595,2.3251,2.3939,2.2795,2.3503,2.4529,2.4017,2.6596,2.9389,2.9258,3.2115,3.5066,3.5518,3.5649,3.6641,4.0037,4.0926,4.137,4.2325,4.2471,4.2323,4.1942,4.3475,4.4514,4.3973,4.4938,4.5109,4.3357,4.261,4.1811,4.0642,4.0224,4.0083,4.0351,4.0236,4.0121,4.0236,3.9878,3.9712,3.9855,3.8316,3.7655,3.8021,3.6914,3.6818,3.7764,3.7635,3.7937,3.8617,3.8844,3.8743,3.8354,3.8115,3.76,3.6933,3.6307,3.6037,3.5966,3.5326,3.5009,3.4844,3.4011,3.3365,3.2929,0.0,0.0,0.0,0.0,0.0,0.0,0.0,0.0,1.65,1.65,1.6972,1.7312,0.0,0.0,0.0,1.8574,1.9062,1.9387,1.9387,1.9584,1.9828,2.0094,2.0872,2.0886,1.9999,2.1955,2.4166,2.6526,2.7783,2.8048,2.7425,2.7799,2.7829,2.756,2.8167,2.7239,2.5236,2.4454,2.3701,2.3051,2.2968,2.301,2.316,0.0,0.0,0.0,0.0,0.0,0.0,0.0,0.0,0.0,2.1671,2.1922,2.2592,2.2994,2.4139,2.5586,2.6889,2.9438,3.1864,3.2205,3.4518,3.7053,3.8407,3.8558,3.901,4.1345,4.2222,4.2658,4.2773,4.2859,4.2734,4.2266,4.3504,4.4401,4.4101,4.4516,4.4283,4.2708,4.2083,4.1392,4.0377,4.0236,4.0389,4.0643,4.0338,4.0134,4.0236,3.9736,3.942,3.9272,3.8116,3.7555,3.7604,3.6661,3.6678,3.7676,3.7446,3.7761,3.853,3.853,3.8417,3.8165,3.76,3.7161,3.6832,3.6151,3.5889,3.5864,3.5349,3.516,3.5039,3.405,3.3253,3.2604,0.0,0.0,0.0,0.0,0.0,0.0,0.0,1.65,1.65,1.65,1.6909,1.7229,0.0,0.0,0.0,1.8027,1.8554,1.8893,1.8893,1.9406,1.9989,2.0658,2.071,2.0973,2.1509,2.3048,2.2765,2.0558,2.3886,2.5467,2.5484,2.7609,2.925,3.0475,3.1869,3.1164,2.8882,2.7829,2.6083,2.3989,2.4023,2.392,2.3802,2.4119,0.0,0.0,0.0,0.0,0.0,0.0,0.0,0.0,2.1049,2.0408,2.0355,2.3923,2.642,2.89,3.2887,3.4403,3.5346,3.7468,3.739,3.7788,4.1507,4.2035,4.1726,4.1695,4.2651,4.3257,4.2481,4.2508,4.2802,4.3221,4.3826,4.4281,4.4484,4.4123,4.3525,4.2611,4.1842,4.1182,4.0542,4.0504,4.0605,4.0883,4.044,4.0236,4.0453,3.9942,3.9195,3.8177,3.804,3.75,3.6493,3.643,3.6681,3.7186,3.7389,3.7642,3.7939,3.7977,3.7713,3.7149,3.6644,3.638,3.6339,3.5978,3.5816,3.5778,3.5724,3.5929,3.6082,3.456,3.3611,3.2922,0.0,0.0,0.0,0.0,0.0,0.0,1.65,1.65,1.65,1.65,1.6595,1.668,1.668,1.7146,0.0,1.7463,1.8361,1.8893,1.8893,1.9406,1.9989,2.0658,2.0798,2.0933,2.1043,2.0121,1.9346,1.8754,2.1701,2.3501,2.425,2.7234,2.9026,2.9831,3.0611,2.9472,2.6811,2.5018,2.3575,2.2477,2.253,2.2686,2.2832,2.2381,2.1802,0.0,0.0,0.0,0.0,0.0,0.0,0.0,1.9894,2.0274,2.0921,2.1411,2.4074,2.7079,2.8077,3.1334,3.4778,3.6127,3.825,4.0405,4.1909,4.2913,4.3633,4.3983,4.3761,4.3515,4.3625,4.2986,4.264,4.3226,4.3426,4.3595,4.384,4.3085,4.2334,4.1792,4.0775,4.0236,4.0453,4.0504,4.0605,4.0883,4.0593,4.0338,4.0185,3.9672,3.9281,3.9019,3.8166,3.7566,3.7359,3.6726,3.6681,3.7174,3.6842,3.6918,3.7374,3.8023,3.7909,3.7209,3.6799,3.6413,3.5978,3.5366,3.5131,3.5113,3.4933,3.4421,3.3825,3.439,3.3245,3.1457,0.0,0.0,0.0,0.0,0.0,0.0,0.0,0.0,1.65,1.65,1.65,1.65,1.65,1.6752,0.0,0.0,1.7807,1.8361,1.8874,1.9169,1.9734,2.0658,2.138,2.1343,2.0429,1.9596,1.8832,1.8151,1.962,2.1372,2.3426,2.5957,2.8038,2.9621,3.0296,2.9016,2.6204,2.502,2.3749,2.2609,2.2964,2.3156,2.316,2.2668,2.1689,2.0517,1.9744,0.0,0.0,0.0,0.0,0.0,0.0,0.0,1.9658,2.1311,2.3216,2.5521,2.8885,3.1901,3.4732,3.7497,3.9935,4.1924,4.2823,4.3881,4.4645,4.4438,4.4392,4.4126,4.3381,4.3086,4.3031,4.3142,4.3328,4.3404,4.3075,4.2435,4.1777,4.114,4.0491,4.0096,4.0132,4.035,4.0439,4.0308,4.0287,4.0236,4.0121,3.9724,3.9257,3.8692,3.8079,3.7528,3.7048,3.6603,3.6556,3.6784,3.6638,3.6593,3.6772,3.7171,3.7099,3.67,3.6524,3.6205,3.5756,3.5236,3.5172,3.5339,3.5333,3.5142,3.4969,3.5382,3.403,3.2041,0.0,0.0,0.0,0.0,0.0,0.0,0.0,0.0,0.0,1.65,1.65,1.65,1.65,1.65,1.668,0.0,0.0,0.0,1.8688,1.9031,1.9713,2.0818,2.1934,2.18,2.0252,2.0118,1.9482,1.8238,1.8246,1.9842,2.2941,2.4741,2.6976,2.9454,2.9828,2.8556,2.6094,2.529,2.4087,2.2763,2.3196,2.3306,2.3171,2.2712,2.138,1.971,1.8978,1.8707,1.8724,1.886,0.0,0.0,0.0,0.0,1.8217,2.1491,2.2689,2.4225,3.0002,3.2685,3.4954,3.9557,4.1635,4.2803,4.3801,4.4609,4.4944,4.418,4.4691,4.4664,4.2643,4.2832,4.316,4.2758,4.2979,4.2938,4.2196,4.1887,4.1402,4.0596,4.0468,4.0261,3.9863,4.0184,4.021,3.9788,3.9931,4.0019,3.9968,3.9699,3.9082,3.804,3.7914,3.7374,3.6417,3.6405,3.6405,3.6405,3.6581,3.6476,3.623,3.6173,3.6134,3.6096,3.602,3.5905,3.5678,3.5309,3.5426,3.5799,3.6083,3.6285,3.645,3.6553,3.5108,3.3028,0.0,0.0,0.0,0.0,0.0,0.0,0.0,0.0,0.0,0.0,1.65,1.65,1.65,1.65,1.6543,1.6595,1.7034,1.7565,1.8185,0.0,0.0,2.153,2.1739,2.1715,2.1456,2.0458,1.9559,1.8797,1.8789,2.0189,2.2941,2.4741,2.6722,2.8682,2.7625,2.6525,2.5253,2.2661,2.1279,2.0816,2.0264,2.0227,2.0404,1.9363,1.9018,1.8944,1.8205,1.7952,1.8036,1.8674,1.8894,0.0,0.0,0.0,1.8793,1.9324,2.1214,2.3358,2.4304,2.9252,3.5258,3.9953,4.2154,4.3414,4.4283,4.4613,4.4568,4.4098,4.4567,4.4365,4.2202,4.1888,4.1854,4.1577,4.1297,4.1144,4.1304,4.1032,4.0642,4.0207,4.0158,4.0211,4.0401,4.0058,3.9853,4.002,3.984,3.9633,3.9413,3.913,3.868,3.8027,3.755,3.6998,3.6417,3.6405,3.6405,3.6405,3.6452,3.6269,3.5956,3.5808,3.5755,3.576,3.5695,3.566,3.5608,3.5266,3.5343,3.5657,3.6243,3.5577,3.4597,3.6857,3.5437,3.2501,0.0,0.0,0.0,0.0,0.0,0.0,0.0,0.0,0.0,0.0,0.0,1.65,1.65,1.65,1.6616,1.6909,1.69,1.7209,1.8046,1.9109,1.9963,2.0557,2.0572,2.0578,2.0573,1.9401,1.8965,1.9349,1.8298,1.9875,2.3866,2.4276,2.5749,2.7959,2.5839,2.4717,2.4149,2.1011,1.9601,1.9468,1.9225,2.0353,2.1929,1.9533,1.9909,2.1359,1.8739,1.78,1.7901,1.864,1.8623,1.8352,1.8775,0.0,0.0,0.0,1.8571,2.051,2.4828,2.991,3.5104,3.9526,4.1509,4.2581,4.3388,4.4105,4.4255,4.311,4.3905,4.4161,4.2248,4.1733,4.144,4.0861,4.0922,4.0791,4.0027,4.0146,4.0107,3.9459,3.9653,3.9702,3.9348,3.9445,3.9443,3.9373,3.9457,3.9478,3.953,3.9548,3.902,3.7805,3.7838,3.7381,3.6417,3.6405,3.6405,3.6405,3.6371,3.6078,3.5621,3.5476,3.5509,3.5613,3.5544,3.55,3.5513,3.5538,3.5434,3.5247,3.5724,3.5303,3.4546,3.5974,3.4922,3.2795,0.0,0.0,0.0,0.0,0.0,0.0,0.0,0.0,0.0,0.0,0.0,1.65,1.65,0.0,0.0,0.0,1.693,1.7097,1.8046,1.8727,1.9281,1.969,1.9708,1.9708,1.9708,1.8664,1.8617,1.9708,1.813,1.9765,2.4335,2.3834,2.5016,2.751,2.5338,2.3984,2.3176,2.0291,1.908,1.9116,1.9588,2.1301,2.3459,2.2112,2.3185,2.4902,2.0929,1.949,1.9445,1.9048,1.8538,1.8183,1.8724,1.8025,0.0,0.0,0.0,1.7654,2.4576,2.8631,3.2132,3.7282,3.9711,4.1115,4.2489,4.3792,4.4233,4.2655,4.3297,4.3653,4.1808,4.1483,4.1091,4.0026,4.0239,4.0096,3.8827,3.9283,3.9502,3.8907,3.9201,3.9334,3.8867,3.9113,3.9239,3.912,3.9382,3.9569,3.9788,3.9956,3.9323,3.7867,3.8037,3.764,3.6417,3.6405,3.6377,3.6332,3.6297,3.5949,3.5331,3.5241,3.5309,3.546,3.5423,3.5521,3.5695,3.5626,3.5436,3.5218,3.5474,3.509,3.4509,3.5655,3.4748,3.2989,0.0,0.0,0.0,0.0,0.0,0.0,0.0,0.0,0.0,0.0,0.0,1.65,1.65,1.6951,1.7271,1.7312,1.7271,1.7504,1.8066,1.908,1.9672,1.9708,1.9708,0.0,1.9708,1.9029,1.8999,1.9708,1.8969,2.0344,2.3655,2.361,2.5016,2.757,2.6806,2.5084,2.2634,2.0871,2.0112,2.0246,2.1583,2.2394,2.3215,2.7382,2.9208,2.9108,2.5463,2.4133,2.3601,2.009,1.886,1.8843,1.8888,1.8369,1.7597,0.0,0.0,0.0,2.039,2.2192,2.4555,3.2217,3.6358,3.9323,4.2228,4.3998,4.4625,4.3378,4.3096,4.244,4.0406,4.057,4.0504,3.8944,3.8572,3.8324,3.7991,3.8417,3.8791,3.881,3.9065,3.9411,3.9982,3.9608,3.9505,3.9981,4.0058,4.007,4.007,3.9841,3.9279,3.8385,3.7914,3.7248,3.6417,3.6405,3.6328,3.6235,3.6197,3.5865,3.5214,3.5187,3.5171,3.5125,3.5331,3.5831,3.6468,3.5267,3.528,3.6056,3.6082,3.4924,3.3665,3.6755,3.5511,3.2605,0.0,0.0,0.0,0.0,0.0,0.0,0.0,0.0,0.0,0.0,0.0,0.0,0.0,1.6972,1.7312,1.7312,1.7605,1.7862,1.7969,1.8324,1.8505,1.8431,1.8837,1.9061,1.9061,1.8386,1.8386,1.9061,1.7953,1.9119,2.2383,2.2817,2.3751,2.5024,2.4777,2.4148,2.3107,2.0391,1.9237,1.9429,2.1704,2.4293,2.6954,2.8293,3.1108,3.376,2.9438,2.7016,2.564,2.4204,2.158,1.8894,1.8894,1.7743,1.6153,1.4928,1.4877,1.5923,1.924,2.1223,2.3712,2.9359,3.3273,3.6479,3.9469,4.1966,4.3422,4.2648,4.262,4.2301,4.0757,4.0526,4.0092,3.8628,3.8349,3.8205,3.7946,3.8184,3.8519,3.8761,3.9015,3.9171,3.8993,3.8814,3.8967,3.9462,3.9373,3.9588,4.0326,4.045,3.9761,3.8188,3.8303,3.7687,3.6273,3.6432,3.6321,3.5859,3.5851,3.5548,3.499,3.4783,3.4857,3.5086,3.5195,3.5666,3.641,3.6351,3.6227,3.6133,3.6537,3.5846,3.4812,3.6013,3.5583,3.434,0.0,0.0,0.0,0.0,0.0,0.0,0.0,0.0,1.65,1.65,0.0,0.0,0.0,0.0,1.7646,1.7827,1.8341,1.8432,1.7931,1.8064,1.8015,1.7712,1.8132,1.8356,1.8356,1.7697,1.7699,1.8356,1.7249,1.8192,2.1036,2.1695,2.2473,2.3266,2.2832,2.2877,2.3131,2.0722,1.9585,1.9659,2.31,2.5856,2.8167,3.0901,3.3635,3.5626,3.295,3.0747,2.8994,2.8121,2.5491,2.2253,2.0538,1.7811,1.4986,1.376,1.4268,1.5608,1.7359,1.9153,2.1679,2.643,2.9312,3.222,3.7119,3.9483,4.0836,4.1426,4.198,4.1934,4.0625,4.0462,4.0166,3.9,3.8681,3.8381,3.7861,3.8044,3.8376,3.8664,3.8916,3.9007,3.884,3.8627,3.8843,3.9588,3.9385,3.9688,4.0732,4.0959,4.0166,3.8336,3.8077,3.7406,3.6197,3.6399,3.6205,3.5661,3.5466,3.5098,3.4602,3.4224,3.4375,3.4895,3.5163,3.5725,3.6449,3.656,3.6393,3.6225,3.6732,3.6232,3.5332,3.5948,3.5723,3.4969,0.0,0.0,0.0,0.0,0.0,0.0,0.0,0.0,1.6525,1.655,0.0,0.0,0.0,0.0,0.0,1.895,1.9465,1.9223,1.7971,1.8381,1.8356,1.7669,0.0,0.0,1.7667,1.7024,1.7025,1.7667,1.7025,1.7713,1.9633,2.0318,2.1335,2.2523,2.1246,2.138,2.2538,2.1879,2.1265,2.1154,2.5813,2.6877,2.6584,3.5531,3.7094,3.4733,3.603,3.5512,3.39,3.1704,3.0365,2.8791,2.3643,1.8561,1.4351,1.3625,1.3938,1.452,0.0,0.0,0.0,2.3142,2.441,2.6635,3.521,3.6509,3.6758,3.9681,4.097,4.1149,3.987,4.0341,4.0722,4.0027,3.9493,3.876,3.7701,3.7989,3.8367,3.8407,3.8667,3.9069,3.9622,3.9157,3.926,4.0389,4.0253,4.0437,4.1285,4.1235,4.0488,3.88,3.721,3.6281,3.6151,3.6159,3.5922,3.5526,3.5109,3.4584,3.4048,3.3621,3.374,3.4415,3.5203,3.6017,3.6689,3.5767,3.5778,3.6338,3.663,3.5994,3.513,3.6709,3.5928,3.4267,0.0,0.0,0.0,0.0,0.0,1.7275,1.7677,1.74,1.7287,0.0,0.0,0.0,1.7683,1.9148,2.033,2.0877,2.1048,2.0188,1.7901,1.7885,1.7474,1.6368,1.6742,1.698,1.698,1.6786,1.6786,1.698,1.6786,1.698,1.7564,1.8715,1.945,1.9809,1.9929,1.9914,1.9768,1.9355,2.0297,2.2282,2.4674,2.7707,3.1297,3.5566,3.8678,4.0749,4.0922,3.9439,3.731,3.6914,3.2311,2.5756,2.0023,1.6507,1.4351,1.3625,1.4302,1.5054,1.3997,0.0,0.0,0.0,0.0,0.0,2.7798,2.9229,3.1075,3.6458,3.6479,3.6604,4.0191,4.0472,4.0287,4.069,4.0191,3.9425,3.852,3.9051,3.9241,3.8496,3.902,3.9358,3.912,3.9171,3.9385,3.9889,4.0033,4.0437,4.1285,4.0156,3.9025,3.7983,3.6169,3.5253,3.5319,3.5077,3.4668,3.4007,3.4382,3.4116,3.3314,3.3174,3.3305,3.3715,3.4318,3.4837,3.5319,3.6909,3.7373,3.7217,3.7863,3.7928,3.7642,3.7833,3.7262,3.6288,0.0,0.0,1.7061,1.7626,1.8091,1.8505,1.8819,1.8593,1.843,0.0,0.0,0.0,1.8481,1.988,2.0795,2.0856,2.0877,1.9967,1.7847,1.7713,1.7116,1.5858,1.6383,1.6696,1.6696,1.6696,1.6696,1.6696,1.6443,1.6189,1.595,1.725,1.7728,1.7521,1.7896,1.815,1.821,1.7057,1.8377,2.1639,2.5765,2.885,3.1492,3.6172,3.879,4.0159,4.1882,4.0941,3.9071,4.0446,3.4851,2.6608,2.2553,1.8804,1.567,1.4623,1.5358,1.6255,1.508,1.5716,1.6834,1.7348,0.0,0.0,2.5685,2.6912,2.8677,3.5082,3.5899,3.6414,3.9623,4.0007,4.0079,4.0818,4.0547,3.9946,3.9023,3.9494,3.955,3.8509,3.926,3.9676,3.9133,3.9133,3.9423,4.0142,3.9936,3.9999,4.0597,3.9167,3.7889,3.6967,3.5636,3.4751,3.4335,3.4274,3.3924,3.3407,3.358,3.3366,3.2687,3.2541,3.2834,3.3482,3.411,3.457,3.4962,3.7266,3.7807,3.727,3.8116,3.8428,3.8353,3.7879,3.7377,3.6778,0.0,0.0,1.7624,1.8267,1.9221,1.9962,2.015,2.0075,1.9861,0.0,1.9044,1.8971,1.9598,2.0419,2.0707,2.0244,2.0039,1.9324,1.7888,1.7743,1.7116,1.5858,1.6383,1.6696,1.6696,1.6696,1.6696,1.6696,1.6099,1.5499,1.4946,1.6069,1.6263,1.5694,1.5694,1.6278,1.7146,1.5393,1.6594,2.0314,2.7379,2.9715,2.9722,3.6988,3.8254,3.6684,4.0764,4.1061,3.9873,4.1979,3.7252,3.0177,2.8045,2.3498,1.8535,1.6443,1.706,1.8176,1.7108,1.6874,1.7382,1.9261,1.7828,0.0,2.5776,2.6572,2.7402,3.3539,3.5848,3.6946,3.744,3.8166,3.8855,3.9357,3.9744,3.9776,3.921,3.9672,3.9673,3.8617,3.9499,3.9995,3.9474,3.9222,3.9613,4.0756,3.9941,3.9459,3.9618,3.8301,3.7039,3.5941,3.526,3.439,3.3301,3.3517,3.3516,3.3226,3.2934,3.263,3.2405,3.2014,3.2535,3.3687,3.4379,3.4893,3.5268,3.6996,3.7325,3.6839,3.7652,3.7986,3.7926,3.7457,3.6904,3.6237,1.65,1.6986,1.785,1.9246,2.0075,2.0968,2.2255,2.1732,2.1443,2.2205,2.2214,2.2591,2.3785,2.3272,2.3,2.3363,2.2128,2.0503,1.8621,1.7997,1.7116,1.5858,1.6383,1.6696,1.6696,1.6696,1.6696,1.6696,1.6099,1.5739,1.5619,1.5859,1.5619,1.5005,1.5005,1.4827,1.4659,1.6155,1.8582,2.1613,2.3904,2.8075,3.3254,3.6737,3.9284,4.1139,4.2575,4.2523,4.1464,3.8927,3.7099,3.4651,2.758,2.5658,2.4872,1.9074,1.9676,2.1549,1.8422,1.8014,1.8296,1.7551,1.7805,0.0,1.8947,1.9184,2.0466,2.4584,2.5095,2.5897,2.9575,3.0718,3.1235,3.155,3.3638,3.6223,3.9039,4.0313,4.0469,3.9204,4.0048,4.0605,4.0299,4.0426,4.0528,4.0593,4.0129,3.97,3.9298,3.7804,3.644,3.5381,3.3793,3.2805,3.2603,3.2566,3.2374,3.2036,3.2932,3.3251,3.3024,3.2961,3.3521,3.4582,3.4702,3.5053,3.5562,3.6337,3.6611,3.6561,3.7613,3.7986,3.7974,3.7866,3.7112,3.6132,1.655,1.7426,1.8631,2.0025,2.1154,2.2372,2.3735,2.3471,2.3351,2.3873,2.4189,2.4277,2.4129,2.3579,2.2936,2.2136,2.1263,2.0046,1.8402,1.7924,1.728,1.6278,1.6547,1.686,1.7189,1.686,1.6696,1.6696,1.577,1.4959,1.4315,1.4646,1.5521,1.6702,1.4689,1.5091,1.7201,1.5732,1.7061,2.062,2.59,3.1164,3.6237,3.9622,4.2068,4.3575,4.3284,4.316,4.2698,3.9828,3.7653,3.5475,3.1571,2.9188,2.6975,2.2589,2.2762,2.3692,2.04,1.9469,1.9367,1.9024,1.8652,0.0,0.0,1.9358,2.0129,2.3916,2.3946,2.4131,2.6903,2.7772,2.8106,2.806,3.1371,3.3888,3.3726,3.7266,3.9568,3.8668,3.9699,4.0199,3.9545,4.0205,4.0643,4.0504,4.0216,3.9537,3.8336,3.7206,3.5758,3.3857,3.3001,3.2359,3.1823,3.2012,3.2016,3.1715,3.2732,3.3212,3.3212,3.349,3.417,3.5194,3.518,3.5426,3.5864,3.6396,3.6507,3.645,3.7148,3.7569,3.7738,3.736,3.6606,3.5779,1.6613,1.7766,1.9183,2.0201,2.1807,2.3296,2.4311,2.4562,2.4713,2.4946,2.5744,2.5848,2.4709,2.4709,2.4111,2.2485,2.1991,2.1032,1.9241,1.8859,1.8439,1.7787,1.7079,1.7336,1.8698,1.7292,1.6532,1.6532,1.5246,1.4049,1.2999,1.3555,1.5242,1.7726,1.5081,1.6031,1.9416,1.5784,1.6501,2.0734,2.9016,3.3681,3.6179,4.0913,4.2986,4.334,4.2867,4.2991,4.3025,4.0847,3.7973,3.5195,3.454,3.2022,2.8702,2.5525,2.5629,2.6038,2.2731,2.1465,2.1096,2.1173,2.0141,1.9521,0.0,0.0,0.0,2.4036,2.4095,2.3865,2.45,2.4824,2.4926,2.471,2.842,3.024,2.7227,3.2162,3.6095,3.6196,3.8342,3.928,3.7892,3.8622,3.955,4.0425,3.9485,3.8466,3.7494,3.6727,3.5168,3.2622,3.2661,3.2319,3.1373,3.1874,3.209,3.2047,3.2851,3.3396,3.3808,3.4257,3.5016,3.5968,3.5859,3.5973,3.6245,3.6662,3.6812,3.6715,3.6846,3.7134,3.7453,3.6627,3.6027,3.5487,1.6613,1.7476,1.8469,1.9083,2.0951,2.2581,2.3195,2.3766,2.4431,2.5385,2.743,2.9071,2.9852,3.05,3.1032,3.1378,2.9919,2.7448,2.3745,2.2797,2.2163,2.1597,1.8436,1.8495,2.2316,1.8128,1.5889,1.5889,1.4573,1.384,1.369,1.3752,1.3998,1.4468,1.6806,1.6961,1.5669,1.8372,2.1979,2.613,2.9303,2.9687,2.903,3.4756,3.739,3.8266,4.0535,4.1516,4.1328,3.8406,3.7121,3.5811,3.0337,3.1619,3.3668,2.6044,2.741,3.0292,2.5428,2.4541,2.4374,2.1833,2.2477,2.262,1.8353,0.0,1.9558,1.7748,0.0,1.8051,1.7547,0.0,0.0,1.7279,1.9776,2.1947,2.2734,2.5235,2.7786,2.995,3.5531,3.82,3.5637,3.4844,3.6109,4.0103,3.6716,3.5443,3.7789,3.6702,3.5119,3.3174,3.2734,3.2331,3.1924,3.224,3.2773,3.3415,3.3966,3.4875,3.6033,3.6083,3.656,3.736,3.6887,3.6831,3.7045,3.7096,3.7341,3.7692,3.7294,3.7167,3.7155,3.6344,3.5819,3.5462,1.655,1.7666,1.8732,1.8958,2.0326,2.1757,2.292,2.4707,2.595,2.6109,2.7551,2.8823,2.9512,2.9302,2.968,3.1046,3.0471,2.8378,2.4521,2.3879,2.2475,1.9831,1.7547,1.7478,1.987,1.6913,1.5301,1.5215,1.3882,1.3017,1.2643,1.2643,1.4309,1.7333,1.8574,2.0486,2.2714,2.2058,2.2756,2.4455,2.6062,2.5912,2.5803,3.5886,3.9532,3.9399,4.0528,4.1199,4.1279,3.942,3.7311,3.5421,3.5354,3.3652,3.128,2.9544,2.9381,2.901,2.546,2.5535,2.5867,2.2925,2.305,2.2895,1.893,1.7909,1.7733,1.7518,0.0,0.0,0.0,0.0,0.0,0.0,1.7885,1.9647,1.7306,2.1627,2.5717,2.7538,3.0325,3.2759,3.45,3.4376,3.5982,4.0303,3.6645,3.5057,3.7047,3.6134,3.4575,3.2583,3.2482,3.2493,3.2443,3.2807,3.3258,3.3843,3.4507,3.5378,3.6411,3.6563,3.7006,3.7582,3.7363,3.7023,3.6722,3.7123,3.7197,3.6963,3.7114,3.7144,3.6971,3.6022,3.5357,3.4929,1.65,1.7603,1.8556,1.8556,1.961,2.1041,2.2832,2.472,2.6084,2.6449,2.7493,2.8605,2.9797,3.0041,3.0813,3.2604,3.3156,3.1668,2.7671,2.6231,2.4638,2.2602,1.8407,1.7511,2.0514,1.6739,1.466,1.4528,1.3178,1.237,1.2059,1.188,1.4117,1.8331,1.9503,2.2514,2.6539,2.5055,2.496,2.5882,2.6635,2.7224,2.8503,3.6893,4.015,4.0223,4.0174,4.0478,4.0705,3.9244,3.6964,3.5139,3.767,3.4834,3.0829,3.2497,3.1754,2.9725,2.6696,2.6929,2.7103,2.3314,2.2751,2.23,1.9115,1.7753,1.734,1.7964,1.7087,0.0,0.0,0.0,1.492,1.3985,0.0,1.7545,1.3727,1.7884,2.19,2.3434,2.488,2.7445,3.1772,3.1565,3.3196,3.8082,3.4844,3.3621,3.5815,3.5565,3.4308,3.2212,3.2493,3.2807,3.3058,3.3281,3.3807,3.4563,3.5141,3.5908,3.6729,3.7085,3.7337,3.75,3.7456,3.7111,3.6559,3.6964,3.6988,3.6735,3.6883,3.6909,3.6747,3.5724,3.5027,3.4594,1.65,1.7011,1.7461,1.7461,1.8756,2.0577,2.2769,2.2732,2.3427,2.6147,2.7601,2.9539,3.264,3.5811,3.8366,3.9849,4.1325,4.0195,3.5523,3.1463,3.0717,3.4034,2.2561,1.9795,2.7683,1.8774,1.398,1.3827,1.2493,1.216,1.2756,1.21,1.2731,1.4581,1.912,2.1432,2.2218,2.6618,3.071,3.4212,3.4175,3.6276,3.9091,3.5592,3.6188,3.8802,3.8594,3.8802,3.8863,3.623,3.5496,3.5266,3.3064,3.3993,3.5513,3.3723,3.4577,3.5142,3.0659,2.9609,2.8415,2.2526,2.1599,2.1215,1.7681,1.8268,1.9167,1.7644,1.8763,1.9539,1.7961,1.6896,1.589,1.4838,1.4419,0.0,0.0,1.2981,1.3559,1.561,1.9875,2.3676,2.6291,2.4111,2.5281,3.1971,2.9481,2.9673,3.4322,3.5196,3.4639,3.2527,3.3019,3.3381,3.3679,3.3679,3.4469,3.5943,3.5955,3.6549,3.7582,3.8044,3.7879,3.7211,3.7095,3.7028,3.7031,3.6378,3.6828,3.7763,3.6885,3.6537,3.6393,3.5474,3.5014,3.4796,1.7087,1.7539,1.7689,1.6936,1.789,1.9497,2.1707,2.3138,2.4855,2.7383,2.8386,3.0095,3.333,3.5075,3.6833,3.8934,3.9948,3.8756,3.4594,3.1612,2.9989,2.9993,2.2309,2.0113,2.4654,1.8993,1.5695,1.5125,1.4214,1.3675,1.3451,1.3241,1.389,1.5459,2.0343,2.4038,2.6763,2.9153,3.1695,3.4101,3.3671,3.5197,3.7719,3.8034,3.8201,3.8249,3.8475,3.8607,3.8572,3.7809,3.6586,3.5561,3.6694,3.5273,3.3565,3.5365,3.4897,3.3527,3.2515,3.3064,3.2431,2.6209,2.5081,2.4114,1.8644,1.8747,1.951,1.768,1.9194,2.0281,1.8373,1.6973,1.5902,1.5319,1.4438,1.3409,0.0,1.1906,1.2151,1.3314,1.7737,2.1021,2.1795,2.3444,2.6304,3.0748,2.9816,3.0702,3.449,3.4429,3.3891,3.2998,3.3202,3.3319,3.3424,3.3813,3.4586,3.5721,3.5924,3.6428,3.7246,3.707,3.6737,3.629,3.625,3.6012,3.5651,3.5978,3.6123,3.6162,3.621,3.6104,3.5874,3.5401,3.508,3.4811,1.7714,1.7802,1.7739,1.7212,1.8204,1.9761,2.1769,2.364,2.578,2.8538,2.9136,3.0669,3.4164,3.5367,3.6719,3.8856,3.9964,3.8956,3.5183,3.2933,3.1308,3.0429,2.4778,2.3165,2.6342,2.1476,1.8487,1.7681,1.5995,1.4931,1.4498,1.4021,1.4444,1.5773,1.9902,2.411,2.8188,3.0157,3.2891,3.5884,3.6102,3.6848,3.8055,4.0132,3.9263,3.715,3.8391,3.8627,3.8424,3.9028,3.808,3.6992,3.922,3.7485,3.5181,3.7674,3.6867,3.5063,3.4734,3.5332,3.4747,2.9286,2.8173,2.6832,2.0741,2.0729,2.1554,1.9922,2.0235,2.1233,2.2612,1.9513,1.693,1.7507,1.5631,1.3435,0.0,1.1481,1.1749,1.2074,1.5427,1.827,1.9689,2.0761,2.3763,2.9549,2.8333,2.9301,3.385,3.361,3.3245,3.3038,3.3028,3.3158,3.3424,3.3752,3.454,3.5758,3.5807,3.6161,3.6837,3.6508,3.6184,3.5807,3.5732,3.5557,3.5345,3.5465,3.5577,3.5716,3.5663,3.5749,3.5861,3.5536,3.5263,3.5114,1.8317,1.7876,1.775,1.8304,1.9661,2.1232,2.2932,2.4155,2.6151,2.9689,3.0045,3.1418,3.5234,3.6906,3.8338,3.9773,4.1407,4.0893,3.7399,3.5391,3.4664,3.5468,2.9841,2.8538,3.2546,2.5915,2.1973,2.1189,1.7624,1.5858,1.5769,1.4498,1.4353,1.5291,1.7894,2.1747,2.6476,2.9729,3.4371,3.9694,4.1248,4.1137,4.0232,4.1482,3.9185,3.5708,3.8262,3.8822,3.8506,3.9592,3.9669,3.9398,4.0159,4.03,4.0173,4.0364,4.0275,3.9573,3.7323,3.6534,3.543,3.1735,3.0794,2.9348,2.3973,2.4271,2.5384,2.4274,2.2335,2.2909,2.9743,2.4102,1.903,2.09,1.7592,1.3887,1.1244,1.1535,1.1958,1.1746,1.3116,1.5602,1.9404,1.6309,1.8075,2.7847,2.5088,2.5821,3.2424,3.2686,3.2675,3.2812,3.2621,3.2823,3.3525,3.3563,3.4341,3.5904,3.5599,3.5784,3.6267,3.6383,3.6192,3.5737,3.5585,3.5723,3.5926,3.4842,3.5191,3.6326,3.5231,3.5468,3.6379,3.5825,3.5584,3.5584,1.8317,1.9083,2.0151,2.1091,2.0577,2.1016,2.391,2.5409,2.7602,3.1492,3.3147,3.4988,3.7706,3.8362,3.8557,3.8452,3.8696,3.8362,3.7144,3.5234,3.5074,3.716,3.1987,3.0385,3.3279,2.6778,2.3069,2.2513,1.8957,1.6727,1.5784,1.5454,1.5152,1.5006,1.7475,2.1691,2.7053,2.9029,3.3845,4.0161,4.0046,3.9574,3.9085,4.0594,3.9063,3.6483,3.9077,3.9662,3.9285,3.962,3.9754,3.9743,3.9571,3.9812,4.0045,3.9865,3.9804,3.9752,3.9526,3.9429,3.8731,3.5965,3.4646,3.3165,2.9785,3.0169,3.0783,2.9226,2.9956,3.0018,2.7216,2.4507,2.1748,1.8834,1.6407,1.4497,1.3385,1.2686,1.2589,1.3372,1.5391,1.5951,1.3999,1.7841,2.1035,2.2502,2.5017,2.8329,3.2513,3.0788,3.0802,3.3243,3.2902,3.2544,3.2181,3.2769,3.3525,3.4441,3.4898,3.5443,3.6,3.5683,3.5348,3.5037,3.4811,3.474,3.4816,3.4515,3.4884,3.5568,3.528,3.546,3.5825,3.5637,3.5584,3.5561,1.9698,2.0978,2.2489,2.3565,2.3187,2.3573,2.6017,2.6493,2.8108,3.2219,3.3723,3.5241,3.7382,3.8782,3.9298,3.8613,3.8557,3.7749,3.5853,3.5684,3.5687,3.5853,3.3916,3.3578,3.5068,3.0467,2.706,2.4997,2.166,1.875,1.627,1.595,1.5439,1.4914,1.7315,2.0734,2.491,2.9389,3.4055,3.8526,3.9338,3.9782,0.0,4.0804,4.0054,3.8745,4.003,3.9999,3.9454,3.9952,4.0076,3.998,3.9964,4.0079,4.0224,4.0056,3.9917,3.988,4.0183,4.024,3.9875,3.8444,3.7665,3.6465,3.3247,3.3042,3.3403,3.296,3.2548,3.2417,3.2951,2.8067,2.2334,1.7401,1.5452,1.4437,1.4141,1.3556,1.3206,1.3384,1.5019,1.5042,1.2249,1.8105,2.172,2.0951,2.3624,2.6684,2.9836,2.9308,3.0075,3.2555,3.2308,3.2094,3.2005,3.2452,3.3262,3.4401,3.4875,3.5444,3.6154,3.5605,3.5447,3.5508,3.5021,3.4891,3.4985,3.4852,3.5142,3.5678,3.5795,3.5867,3.597,3.5591,3.5499,3.5574,2.1694,2.305,2.4506,2.5435,2.6391,2.7497,2.8856,2.8204,2.8957,3.2855,3.384,3.4819,3.6427,3.8852,4.0093,3.9493,3.9578,3.8224,3.4808,3.6552,3.6549,3.3919,3.5762,3.6898,3.7105,3.4766,3.1523,2.7477,2.4328,2.0631,1.6467,1.586,1.5206,1.4629,1.7088,1.9708,2.2786,3.0365,3.4681,3.6634,3.901,4.0668,4.1681,4.1453,4.132,4.1141,4.0889,4.0208,3.9527,4.0403,4.0481,4.0255,4.0642,4.0611,4.0412,4.0385,4.0162,3.9925,3.9975,3.9987,3.9942,3.979,3.9907,3.919,3.5792,3.4883,3.5083,3.6238,3.3463,3.3165,4.0914,3.2486,2.2704,1.7555,1.6043,1.5665,1.6097,1.5653,1.4895,1.384,1.4908,0.0,1.2788,1.7557,2.0851,2.1069,2.1417,2.3155,2.6622,2.8053,2.968,3.1624,3.1663,3.181,3.2207,3.2402,3.3236,3.4775,3.5115,3.5736,3.6482,3.5973,3.6009,3.6458,3.5699,3.5561,3.5784,3.5526,3.5691,3.6105,3.6354,3.6388,3.627,3.5568,3.5362,3.5423,2.2732,2.418,2.5372,2.5561,2.7699,3.0141,3.2337,3.2976,3.3929,3.6071,3.8104,3.9508,3.9844,3.9901,3.9873,3.9746,3.9131,3.8294,3.7312,3.7945,3.7946,3.713,3.733,3.7552,3.7737,3.4373,3.0745,2.6876,2.3366,1.9132,1.4271,1.4356,1.3927,1.3178,1.5817,2.0909,2.7731,3.1414,3.5346,3.9105,3.8841,3.9656,4.1059,4.1266,4.0797,4.0138,4.1032,4.1106,4.0771,4.0492,4.067,4.0861,4.0187,4.0005,3.9948,3.9651,3.9607,3.962,3.9847,4.0068,4.0287,4.0475,4.0723,4.0721,4.0037,3.9829,3.9961,4.0372,3.9902,3.8901,3.7397,3.2669,2.7529,2.2949,2.2613,2.3891,2.6659,2.3848,2.1223,2.0347,2.2625,2.1317,1.3803,1.6693,1.8987,1.886,1.9026,2.1895,2.8218,2.6633,2.7645,3.2356,3.317,3.2742,3.1105,3.2291,3.3122,3.3524,3.5094,3.6117,3.656,3.6583,3.6552,3.6484,3.6105,3.5913,3.581,3.5931,3.6018,3.6109,3.6153,3.5922,3.5473,3.5338,3.5028,3.4596,2.5635,2.6493,2.755,2.8572,3.0228,3.2313,3.5017,3.6488,3.7155,3.6751,3.7688,3.8407,3.8407,3.9536,4.0126,3.9816,3.941,3.8879,3.8249,3.8378,3.8379,3.8086,3.8072,3.7974,3.7733,3.6101,3.2451,2.6763,2.4694,2.0436,1.4225,1.4275,1.3724,1.2886,1.6959,2.1671,2.6809,3.1373,3.5087,3.805,3.8733,3.9949,4.1294,4.0819,4.0435,4.0152,3.9963,4.0236,4.0683,4.0569,4.0615,4.0653,4.0374,4.0201,4.0126,4.0067,3.9787,3.948,3.962,3.9595,3.9599,3.9612,3.9795,3.9978,4.0128,4.0083,4.015,4.0855,4.1014,4.0001,3.6606,3.2799,2.9517,2.755,2.5234,2.5045,2.8812,2.7229,2.5233,2.3979,2.4996,2.3418,1.7455,1.8044,1.831,0.0,1.8129,2.1301,2.7035,2.6227,2.7602,3.1976,3.3335,3.3313,3.1945,3.2844,3.361,3.4198,3.5636,3.6573,3.7065,3.7047,3.7095,3.7095,3.6598,3.63,3.6224,3.63,3.6251,3.607,3.5796,3.5534,3.526,3.4946,3.4646,3.4397,2.8924,2.9323,3.0166,3.1818,3.2939,3.4407,3.6755,3.8755,3.9326,3.7479,3.7258,3.7258,3.7258,3.9313,4.0505,4.0013,3.9943,3.9592,3.8727,3.8672,3.8505,3.82,3.8367,3.8158,3.76,3.776,3.452,2.7714,2.6449,2.2265,1.5451,1.4813,1.4554,1.4819,1.9103,2.307,2.6886,3.1784,3.5135,3.7263,3.8992,4.0498,4.1605,4.065,4.0432,4.048,3.9424,3.939,3.9916,4.0418,4.0475,4.0321,4.042,4.0287,4.0161,4.0426,3.9951,3.9379,3.9379,3.9181,3.8966,3.8769,3.889,3.9056,3.9247,3.9158,3.9235,4.0154,4.0454,3.9619,3.6361,3.4106,3.2273,3.0808,2.7887,2.6832,2.9912,2.944,2.8372,2.7283,2.5755,2.3922,2.1769,1.9321,1.7761,1.7568,1.8406,2.0888,2.5418,2.5838,2.7533,3.0977,3.244,3.2788,3.1984,3.3232,3.4295,3.5168,3.6153,3.6939,3.7518,3.7484,3.7571,3.7603,3.6992,3.6593,3.6463,3.6359,3.6168,3.5874,3.5325,3.5103,3.5051,3.4567,3.4476,3.4567,3.1738,3.2327,3.2837,3.3331,3.5246,3.6783,3.7057,3.9103,4.0547,4.0336,4.0308,4.0308,4.0308,4.0518,4.0674,4.0617,4.0474,4.0037,3.9354,3.9143,3.8766,3.8214,3.82,3.8034,3.76,3.7627,3.5346,3.0696,2.7467,2.3175,1.7903,1.5588,1.6801,2.0974,2.1727,2.635,3.3592,3.4121,3.6429,3.9743,3.9887,4.0498,4.133,4.1218,4.0938,4.0644,4.1069,4.0055,3.8762,3.9888,4.0223,4.0187,3.9895,3.9629,3.9423,3.9718,3.9574,3.9297,3.9297,3.9301,3.9247,3.9261,3.9261,3.9247,3.9292,3.9292,3.9319,3.9417,4.0105,3.9417,3.5152,3.8247,3.8997,3.1629,3.3465,3.5652,3.515,3.2658,3.1228,3.2122,2.6987,2.3997,2.5597,1.8675,1.665,2.2774,2.0219,2.0349,2.492,2.4694,2.5921,2.9236,3.0363,3.0168,2.8564,3.2571,3.4869,3.5372,3.6331,3.7087,3.7674,3.7992,3.7906,3.7481,3.713,3.664,3.6105,3.5609,3.5374,3.5312,3.4711,3.4476,3.4476,3.441,3.4737,3.5142,3.5221,3.4936,3.5314,3.7044,3.7236,3.7869,4.0078,4.1217,4.1826,4.1826,4.1165,4.0702,4.0702,4.0702,4.0659,4.0515,4.0442,4.0244,3.9794,3.9348,3.9153,3.9277,3.8932,3.8505,3.7979,3.7965,3.582,3.1413,2.7931,2.4037,1.9777,1.9015,2.1111,2.563,2.8229,3.1152,3.4219,3.6414,3.8197,3.9662,4.0223,4.0864,4.1611,4.2095,4.1954,4.1481,4.0876,4.0241,3.9646,3.9254,3.9129,3.92,3.9571,3.9264,3.882,3.9081,3.8692,3.8204,3.8074,3.8374,3.8732,3.86,3.8945,3.9305,3.9305,3.9305,3.9305,3.9305,3.9744,3.9757,3.8371,3.8081,3.7912,3.7629,3.6624,3.6488,3.8214,3.7413,3.6578,3.634,3.3621,3.1442,3.0587,2.4408,2.1355,2.3547,1.8215,1.7545,2.3675,2.4563,2.554,2.7022,3.1648,3.2768,2.9934,3.3752,3.5743,3.5964,3.689,3.7453,3.7692,3.7904,3.7573,3.6753,3.6194,3.5748,3.5371,3.5335,3.509,3.4737,3.4489,3.4397,3.4397,3.4397,3.4554,3.4776,3.822,3.7675,3.7985,4.0326,3.9658,3.9632,4.2203,4.2584,4.2584,4.2584,4.1885,4.1252,4.0983,4.0814,4.063,4.0399,4.0342,4.0198,3.9996,3.9343,3.9317,4.0041,3.9293,3.8796,3.8686,3.8422,3.6842,3.3831,3.0262,2.7107,2.4335,2.3392,2.5336,2.9696,3.261,3.4552,3.573,3.858,3.9881,4.0134,4.0944,4.1673,4.2366,4.2879,4.2854,4.2384,4.1085,4.0501,4.0179,3.9054,3.845,3.826,3.906,3.8907,3.8383,3.8421,3.7995,3.7443,3.7329,3.7668,3.8076,3.8165,3.856,3.9,3.9264,3.9305,3.9257,3.9209,3.9481,3.9813,4.0261,3.8193,3.7302,3.9947,3.8407,3.7249,3.8525,3.8903,3.8549,3.7217,3.4737,3.3263,3.356,2.7632,2.4565,2.6502,2.0577,1.9125,2.4336,2.4737,2.551,2.7,3.2005,3.3328,3.0596,3.4203,3.61,3.6371,3.7126,3.7502,3.7471,3.7246,3.6677,3.5782,3.5292,3.4925,3.4671,3.4855,3.4747,3.4397,3.4397,3.4397,3.4397,3.4397,3.446,3.4601,4.0463,4.0589,4.0952,4.257,4.2693,4.2528,4.257,4.2584,4.2584,4.2584,4.2766,4.2556,4.1671,4.1067,4.063,4.0399,4.0154,3.9996,3.9996,3.917,3.9188,4.023,3.8962,3.87,3.976,3.8922,3.871,3.9116,3.5218,3.3119,3.2673,2.8565,2.9021,3.3248,3.3302,3.5688,3.9769,4.0552,4.1225,4.1837,4.2362,4.3043,4.3746,4.3561,4.3515,4.3357,4.2268,4.0956,3.9659,3.938,3.8518,3.7607,3.8247,3.8423,3.8301,3.7675,3.7499,3.7485,3.7485,3.7371,3.7391,3.8187,3.8249,3.8324,3.9125,3.9305,3.9244,3.9031,3.9243,3.9429,3.9503,3.9712,3.8939,3.6158,3.8745,3.9641,3.5473,3.5562,3.5393,3.3581,2.7163,2.5878,3.3549,2.6152,2.4512,3.341,2.9645,2.7148,2.7628,2.5135,2.5735,3.0135,3.0252,2.9992,2.9332,3.3315,3.5703,3.6484,3.6857,3.6998,3.6985,3.5935,3.5148,3.4622,3.4597,3.4405,3.4131,3.4131,3.4243,3.4397,3.4397,3.4397,3.4397,3.4397,3.4595,3.4839,4.2602,4.2457,4.2534,4.3482,4.3424,4.3343,4.3764,4.3973,4.4111,4.4111,4.3896,4.3519,4.2849,4.2049,4.1238,4.0414,4.0314,4.0198,3.9996,3.9644,3.9872,4.0745,3.9817,3.9452,3.9774,3.9074,3.8657,3.8532,3.5145,3.3628,3.3894,3.2846,3.4299,3.7755,3.8364,3.9065,3.9868,4.0787,4.1165,4.127,4.2374,4.3178,4.382,4.4165,4.43,4.4252,4.3012,4.2331,4.1914,4.13,4.0825,4.0467,4.0247,3.947,3.8517,3.7747,3.7898,3.8215,3.7479,3.7371,3.7549,3.8057,3.8249,3.8485,3.9169,3.9305,3.9212,3.897,3.901,3.8973,3.8681,3.8846,3.8724,3.7807,3.9165,3.987,3.8643,3.9189,3.9336,3.8385,3.651,3.6129,3.82,3.3359,3.0555,3.1744,2.6791,2.477,2.7116,2.849,2.865,2.7468,3.1369,3.2491,3.0399,3.4008,3.5983,3.6236,3.6603,3.6579,3.6163,3.5241,3.5056,3.5399,3.4968,3.4667,3.4457,3.4573,3.4468,3.4202,3.4202,3.4272,3.4397,3.4397,3.4389,3.4322,4.3088,4.2931,4.2997,4.3857,4.3747,4.3715,4.4308,4.4551,4.4644,4.4644,4.4322,4.3863,4.3324,4.2551,4.1695,4.0659,4.0602,4.0573,4.0372,4.0112,4.0294,4.1113,4.0138,3.9745,4.0112,3.9436,3.9015,3.899,3.6948,3.6035,3.6248,3.6302,3.742,3.939,4.0321,4.0313,3.9721,4.1308,4.1744,4.1515,4.2803,4.3607,4.4037,4.4416,4.4627,4.4656,4.3426,4.3027,4.299,4.2177,4.174,4.1491,4.1118,4.0576,3.9867,3.8783,3.8839,3.909,3.8073,3.7824,3.7948,3.8285,3.8366,3.8602,3.9376,3.9557,3.9513,3.922,3.9162,3.8975,3.8372,3.8332,3.8421,3.8403,3.9253,3.9937,4.0023,4.0681,4.0422,3.8365,3.8131,3.8168,3.8189,3.5972,3.4632,3.4967,3.1462,3.003,3.1673,3.0591,2.9764,2.9378,3.3059,3.3964,3.1593,3.4195,3.5548,3.553,3.5981,3.5823,3.5228,3.4881,3.4907,3.5228,3.5144,3.492,3.4597,3.4714,3.4508,3.4118,3.4118,3.4243,3.4397,3.4314,3.4147,3.3937,4.2311,4.2302,4.256,4.3709,4.3784,4.3812,4.427,4.4411,4.4411,4.4411,4.4079,4.3669,4.3236,4.2667,4.1981,4.1128,4.1043,4.1043,4.1043,4.0504,4.0572,4.1367,4.0103,3.9785,4.0716,3.9885,3.9715,4.0215,4.0025,3.9733,3.9305,3.8867,3.8701,3.8772,3.9821,3.9979,3.9557,4.2052,4.2715,4.2252,4.3422,4.4078,4.434,4.4298,4.448,4.4606,4.3542,4.3175,4.3129,4.2403,4.1758,4.1287,4.1287,4.1768,4.2043,4.06,4.0207,4.0081,3.9131,3.871,3.854,3.8712,3.864,3.876,3.9784,3.9996,3.9952,3.9692,3.9577,3.9328,3.8494,3.8155,3.7997,3.7997,3.8984,3.9731,3.9703,4.0291,3.9169,3.4938,3.392,3.3959,3.4968,3.5061,3.6859,4.1184,4.0978,4.0199,3.9268,3.158,2.9587,3.4743,3.5024,3.4405,3.2903,3.4025,3.4622,3.4704,3.5098,3.4982,3.4412,3.4778,3.4761,3.4545,3.5263,3.5218,3.4648,3.4648,3.4418,3.4034,3.4076,3.4202,3.4314,3.416,3.3907,3.3641,4.2079,4.2623,4.2995,4.2858,4.3642,4.4166,4.3826,4.4303,4.4705,4.4705,4.455,4.4131,4.3368,4.3027,4.2464,4.162,4.1409,4.1297,4.1297,4.1308,4.1419,4.1619,4.1152,4.0914,4.0916,4.0247,3.9757,3.9557,3.9469,3.9394,3.9305,3.9451,3.9621,3.9875,4.0946,4.1103,4.0622,4.2074,4.2326,4.1777,4.2398,4.3044,4.3666,4.3387,4.3765,4.442,4.3818,4.412,4.4766,4.4578,4.4391,4.4265,4.4265,4.4088,4.3486,4.139,4.1543,4.1963,4.0027,3.9111,3.8669,3.854,3.8937,3.9495,3.9938,3.9996,3.9996,3.9908,3.9536,3.8898,3.7898,3.7296,3.6984,3.7151,3.782,3.8634,3.9562,3.9971,3.9788,3.8728,3.8367,3.8327,3.8562,3.8741,3.7976,3.5913,3.5852,3.539,3.4262,3.2514,3.2836,3.5683,3.4852,3.4456,3.4585,3.4433,3.4771,3.552,3.518,3.5163,3.5445,3.5357,3.5734,3.6339,3.6392,3.5987,3.5282,3.5282,3.4605,3.3569,3.3725,3.3797,3.3894,3.4034,3.3823,3.3534,4.204,4.2369,4.2581,4.2654,4.3174,4.358,4.3608,4.3946,4.435,4.4597,4.4081,4.3564,4.3295,4.2654,4.2175,4.1926,4.1773,4.1704,4.1704,4.1814,4.18,4.1577,4.148,4.1185,4.0744,4.0371,4.0053,3.9763,3.9689,3.9751,4.0011,3.9784,3.9871,4.0246,4.1149,4.1224,4.0697,4.1895,4.2102,4.1627,4.2035,4.2482,4.294,4.3096,4.349,4.3989,4.4058,4.4603,4.5234,4.5001,4.5099,4.5234,4.5001,4.4678,4.4111,4.2607,4.2677,4.2914,4.1304,4.0189,3.9428,3.8967,3.911,3.9518,4.0189,4.0091,3.998,4.0244,3.9912,3.9243,3.8269,3.7621,3.7124,3.6848,3.6962,3.7647,3.9255,3.9311,3.9533,4.0423,3.9945,3.9617,3.9931,3.9778,3.8866,3.6835,3.6579,3.6196,3.5452,3.5198,3.5412,3.6035,3.5417,3.4962,3.4693,3.4652,3.4875,3.5383,3.5418,3.5504,3.5651,3.5775,3.6206,3.6845,3.6877,3.658,3.6025,3.5634,3.4961,3.4054,3.3785,3.3755,3.3894,3.3894,3.3849,3.3774,4.1938,4.1968,4.201,4.2544,4.264,4.2871,4.3389,4.3531,4.3712,4.4224,4.3248,4.2653,4.2978,4.2124,4.1662,4.2009,4.2051,4.2051,4.2092,4.2092,4.1885,4.1438,4.1438,4.1142,4.0515,4.0612,4.0639,4.0667,4.0433,4.0537,4.0938,4.0261,4.008,4.0413,4.1182,4.1128,4.0554,4.1702,4.1903,4.1473,4.1812,4.1987,4.2185,4.2982,4.3424,4.3708,4.4294,4.4967,4.5473,4.4902,4.5043,4.5366,4.4748,4.4481,4.4312,4.3793,4.3497,4.3069,4.2018,4.0843,3.9756,3.9256,3.9033,3.9227,4.0322,4.0224,4.0112,4.0675,4.035,3.9728,3.904,3.8323,3.7431,3.6325,3.6438,3.7057,3.8342,3.8496,3.9096,4.0752,3.9987,3.9509,3.9915,3.9509,3.9363,3.9784,3.931,3.8943,3.8736,3.7987,3.7134,3.6189,3.6152,3.5447,3.4092,3.4717,3.5048,3.5015,3.5699,3.5895,3.5654,3.6056,3.6378,3.667,3.6962,3.6893,3.6522,3.5852,3.5272,3.4749,3.3986,3.3861,3.4049,3.3956,3.4125,3.4426,4.1378,4.197,4.2279,4.1671,4.2644,4.3381,4.3052,4.3105,4.3301,4.3592,4.2855,4.2308,4.2207,4.2051,4.1912,4.1785,4.1744,4.1841,4.2092,4.2092,4.1885,4.1438,4.1535,4.1395,4.093,4.1467,4.1903,4.2233,4.1965,4.1667,4.1218,4.1412,4.1353,4.1185,4.2207,4.2183,4.1431,4.1846,4.1578,4.0856,4.0709,4.1102,4.1737,4.2203,4.3188,4.4308,4.4749,4.5762,4.6827,4.6209,4.6069,4.6026,4.5394,4.4832,4.4397,4.4298,4.3374,4.2004,4.0085,3.853,3.7497,3.781,3.8629,3.9438,3.9845,4.0252,4.0717,4.1198,4.0261,3.9341,3.9375,3.8303,3.6555,3.398,3.6197,3.7554,3.5599,3.7897,3.9935,4.0234,4.0075,3.9799,3.9378,3.9247,3.9,3.8536,3.8245,3.7997,3.7806,3.7514,3.7173,3.6861,3.5816,3.4834,3.3917,3.4888,3.5366,3.5428,3.5549,3.584,3.6247,3.6335,3.642,3.6467,3.6883,3.6695,3.6029,3.5826,3.5228,3.4341,3.3871,3.3806,3.3997,3.4654,3.5039,3.5416,4.1651,4.2095,4.2282,4.2034,4.2581,4.2931,4.2624,4.2614,4.2745,4.3003,4.2501,4.228,4.2665,4.2222,4.2028,4.2346,4.1973,4.18,4.2092,4.1939,4.1861,4.1895,4.1749,4.172,4.1711,4.2124,4.2581,4.2988,4.2382,4.2064,4.1929,4.1449,4.1402,4.1792,4.2078,4.2058,4.1804,4.1673,4.1307,4.0873,4.0864,4.1098,4.1521,4.2199,4.3162,4.426,4.4807,4.5665,4.642,4.5936,4.5691,4.5496,4.4995,4.4635,4.4355,4.4017,4.3181,4.1901,3.945,3.8408,3.7921,3.7789,3.8179,3.8822,3.9634,4.0013,4.0294,4.0631,4.0003,3.929,3.9143,3.8365,3.7361,3.6002,3.6916,3.7723,3.758,3.8355,3.9395,4.0514,4.0031,3.9509,3.9233,3.887,3.8536,3.8217,3.8089,3.7915,3.7625,3.7625,3.7419,3.7017,3.6302,3.5609,3.4917,3.5595,3.581,3.5495,3.5843,3.6119,3.6405,3.6086,3.6133,3.6392,3.6277,3.6172,3.5991,3.5403,3.5151,3.5007,3.4288,3.4463,3.5219,3.5453,3.6087,3.6921,4.1585,4.1908,4.2037,4.2132,4.2318,4.2393,4.2343,4.2328,4.2411,4.2761,4.2499,4.255,4.3166,4.2553,4.232,4.2794,4.2206,4.1791,4.1829,4.1819,4.1965,4.2353,4.2194,4.2208,4.2453,4.2869,4.3228,4.3614,4.2962,4.2697,4.277,4.1827,4.1611,4.2063,4.1781,4.1705,4.1665,4.1374,4.1178,4.1056,4.1227,4.1344,4.1505,4.2283,4.3261,4.4327,4.492,4.5497,4.5916,4.5573,4.5091,4.459,4.4382,4.4266,4.4144,4.3807,4.3174,4.202,3.9382,3.8712,3.8694,3.8257,3.8229,3.8594,3.9564,3.9901,4.0125,4.0487,4.0126,3.9742,3.9605,3.8995,3.8269,3.7548,3.7524,3.7886,3.8698,3.8735,3.9213,4.0677,4.0108,3.9445,3.9233,3.8739,3.8376,3.8217,3.8179,3.7991,3.7701,3.7739,3.7586,3.7148,3.6836,3.636,3.5712,3.6057,3.5968,3.551,3.5874,3.6073,3.6181,3.5656,3.5656,3.5988,3.5547,3.5638,3.6065,3.5105,3.5166,3.5717,3.4787,3.5124,3.6106,3.6016,3.6917,3.8076,4.0527,4.1192,4.1538,4.1014,4.1612,4.2172,4.2371,4.2342,4.2549,4.3336,4.3284,4.3122,4.2929,4.3269,4.3171,4.2424,4.2109,4.1724,4.1128,4.1653,4.2181,4.2639,4.3012,4.3128,4.295,4.3717,4.4215,4.4496,4.4544,4.4302,4.3704,4.3406,4.2711,4.1641,4.1862,4.1523,4.0815,4.0958,4.111,4.1279,4.129,4.1505,4.1801,4.2189,4.3415,4.4996,4.5322,4.5832,4.6245,4.5944,4.4881,4.3676,4.3915,4.3831,4.3666,4.4186,4.3512,4.2074,3.9712,3.8811,3.8573,3.8805,3.9268,3.9662,3.976,4.0224,4.0873,4.1684,4.1194,4.0882,4.1691,4.0527,3.8454,3.5611,3.735,3.8092,3.5403,3.8241,4.0504,4.0195,4.0495,4.027,3.9281,3.916,3.887,3.8246,3.8028,3.7891,3.7891,3.7534,3.7419,3.7534,3.7002,3.6305,3.5424,3.5573,3.5644,3.5607,3.515,3.5175,3.5668,3.5126,3.4884,3.4945,3.4864,3.5291,3.5959,3.5317,3.5371,3.5816,3.5238,3.5267,3.5604,3.6166,3.7203,3.8434,4.0344,4.109,4.1631,4.1406,4.1785,4.2172,4.2296,4.2342,4.2471,4.304,4.3233,4.3454,4.3884,4.3531,4.3256,4.3344,4.2281,4.1596,4.1451,4.1782,4.2181,4.261,4.3427,4.3729,4.3401,4.393,4.4381,4.4704,4.4365,4.3786,4.3043,4.2559,4.2078,4.1615,4.1702,4.1576,4.1292,4.1597,4.1549,4.133,4.1736,4.1993,4.2161,4.2542,4.3437,4.4497,4.4669,4.48,4.501,4.5059,4.4137,4.3064,4.3347,4.3449,4.3494,4.3566,4.3139,4.2301,4.0843,3.9898,3.9242,3.8959,3.9366,3.9858,4.0135,4.0674,4.1225,4.1552,4.1342,4.1146,4.1292,4.0766,3.9742,3.8038,3.9037,3.9344,3.7537,3.8654,3.9513,3.9201,3.8978,3.8667,3.827,3.8572,3.8529,3.7882,3.8237,3.8241,3.7754,3.7672,3.7825,3.8142,3.8036,3.7416,3.6358,3.6067,3.5912,3.5835,3.5464,3.5416,3.5572,3.503,3.4775,3.4799,3.4782,3.493,3.5159,3.4936,3.5176,3.5609,3.5407,3.5932,3.6833,3.7048,3.7894,3.8987,4.0095,4.0923,4.1544,4.1459,4.1677,4.1977,4.2296,4.2412,4.2714,4.3265,4.3489,4.384,4.4483,4.3847,4.3517,4.3803,4.2738,4.2023,4.1981,4.2306,4.2562,4.2783,4.3824,4.411,4.3515,4.3977,4.4336,4.4486,4.4153,4.3624,4.2986,4.2446,4.2038,4.1716,4.1781,4.1679,4.1539,4.19,4.1904,4.1661,4.2093,4.2404,4.2528,4.2772,4.3448,4.4212,4.4212,4.4123,4.4049,4.4387,4.349,4.2339,4.2819,4.3082,4.3157,4.2887,4.2558,4.2146,4.1549,4.087,4.0181,3.9799,4.008,4.0544,4.082,4.1261,4.1629,4.1792,4.181,4.1758,4.1607,4.1316,4.0807,4.0044,4.0008,3.9756,3.8717,3.8673,3.8638,3.8321,3.7976,3.7762,3.7601,3.7957,3.8043,3.7615,3.8112,3.8208,3.7701,3.8088,3.8492,3.8898,3.8946,3.8655,3.8073,3.7135,3.6534,3.6203,3.5978,3.5943,3.6038,3.5548,3.5211,3.5042,3.4817,3.4777,3.4852,3.4881,3.5211,3.5805,3.5932,3.6653,3.7584,3.7584,3.8344,3.9427,3.9625,4.054,4.1191,4.0847,4.108,4.1561,4.229,4.2699,4.3273,4.427,4.4276,4.4257,4.4373,4.4308,4.4015,4.3529,4.3497,4.3231,4.2626,4.316,4.3398,4.3222,4.4209,4.4294,4.3251,4.4008,4.4194,4.3834,4.4194,4.4166,4.3806,4.3607,4.2958,4.2006,4.2155,4.1876,4.1302,4.1643,4.2007,4.2281,4.2281,4.2522,4.2887,4.2887,4.3448,4.4212,4.4198,4.3946,4.3649,4.4041,4.2904,4.1483,4.2403,4.2652,4.2525,4.2272,4.1915,4.1615,4.1615,4.1525,4.1396,4.1396,4.1688,4.199,4.199,4.199,4.2129,4.2607,4.2688,4.2809,4.321,4.2451,4.1524,4.0914,3.992,3.8895,3.803,3.8231,3.8271,3.7658,3.7973,3.8008,3.7629,3.7586,3.7586,3.7586,3.7625,3.7687,3.7901,3.8735,3.9405,3.9799,3.9599,3.9886,4.0596,3.8685,3.7376,3.6709,3.6499,3.664,3.7062,3.6593,3.6133,3.5584,3.5065,3.495,3.5174,3.5194,3.5669,3.6452,3.6922,3.7313,3.7584,3.7584,3.849,3.9708,4.0109,4.0788,4.1259,4.1188,4.1256,4.1644,4.2595,4.2827,4.3321,4.4504,4.4674,4.4538,4.4283,4.4205,4.3965,4.3403,4.3182,4.3116,4.3202,4.3399,4.3656,4.4033,4.4353,4.4263,4.3655,4.4128,4.4406,4.45,4.4606,4.4245,4.345,4.3405,4.289,4.1978,4.1856,4.1828,4.1942,4.2113,4.2224,4.2309,4.2631,4.2772,4.2887,4.2887,4.3044,4.3291,4.3485,4.3506,4.343,4.3526,4.2835,4.1931,4.1937,4.1917,4.198,4.2549,4.2328,4.192,4.2065,4.2079,4.2022,4.1702,4.1813,4.2073,4.243,4.247,4.2592,4.305,4.313,4.317,4.329,4.3046,4.2357,4.1026,4.0533,3.9711,3.7921,3.7782,3.7709,3.724,3.7264,3.7307,3.7201,3.7568,3.7653,3.7215,3.8025,3.877,3.94,4.0161,4.063,4.0896,4.1314,4.1228,4.061,3.9606,3.882,3.8219,3.7978,3.7474,3.6815,3.6345,3.593,3.5608,3.5614,3.5484,3.5259,3.5981,3.6194,3.6156,3.6828,3.7313,3.7632,3.7763,3.8235,3.8874,4.0305,4.0906,4.1311,4.1311,4.1311,4.166,4.2741,4.2887,4.3321,4.4504,4.4525,4.4358,4.4308,4.4157,4.3958,4.374,4.3605,4.3578,4.3835,4.3863,4.4031,4.4397,4.4411,4.4275,4.4019,4.44,4.4644,4.4797,4.4876,4.4359,4.3311,4.3165,4.2735,4.1992,4.1882,4.2032,4.2431,4.2593,4.265,4.2549,4.2786,4.2887,4.2887,4.3032,4.308,4.308,4.3355,4.3437,4.3437,4.3437,4.2887,4.2112,4.1605,4.1504,4.1594,4.1918,4.198,4.1896,4.2024,4.2228,4.2392,4.2225,4.2389,4.2578,4.289,4.293,4.301,4.325,4.329,4.329,4.329,4.325,4.2748,4.1396,4.1101,4.0422,3.8691,3.8392,3.8236,3.7935,3.7961,3.8,3.8,3.8499,3.8674,3.8406,3.9087,3.9823,4.0471,4.1109,4.1596,4.1811,4.2402,4.2401,4.1679,4.1299,4.0561,3.9431,3.9343,3.893,3.8211,3.7461,3.7023,3.6756,3.6427,3.6061,3.574,3.6534,3.6675,3.6512,3.7271,3.7753,3.8097,3.835,3.8685,3.9119,4.0174,4.0783,4.1211,4.1311,4.1311,4.166,4.2693,4.2887,4.3211,4.4209,4.4029,4.3966,4.427,4.4047,4.398,4.4284,4.4383,4.4411,4.4411,4.4411,4.4411,4.4411,4.4411,4.4411,4.4411,4.4644,4.4783,4.483,4.5,4.451,4.3382,4.3162,4.2716,4.2162,4.2253,4.249,4.2821,4.3183,4.3177,4.2984,4.2984,4.2984,4.2984,4.3211,4.3307,4.3355,4.3566,4.3648,4.3648,4.3592,4.2999,4.2137,4.1558,4.1394,4.134,4.093,4.1241,4.1688,4.1744,4.209,4.25,4.2915,4.3155,4.329,4.329,4.329,4.329,4.329,4.329,4.329,4.329,4.3155,4.2733,4.1873,4.1557,4.1044,3.9982,3.9656,3.9456,3.9242,3.9415,3.9522,3.9482,3.9935,4.0304,4.051,4.0568,4.0807,4.1184,4.1846,4.2306,4.2485,4.3015,4.329,4.329,4.329,4.233,4.0376,4.0618,4.0689,4.0504,3.9414,3.876,3.8419,3.7256,3.6628,3.6452,3.6968,3.7155,3.7172,3.7985,3.8518,3.8853,3.9105,3.955,4.0083,3.9474,3.9892,4.03,4.1435,4.1461,4.161,4.2449,4.279,4.3115,4.3709,4.4083,4.412,4.3736,4.405,4.4106,4.3722,4.4144,4.4411,4.4411,4.4411,4.4411,4.4411,4.4597,4.4597,4.4411,4.4457,4.469,4.5032,4.5078,4.4829,4.4307,4.4263,4.3924,4.3423,4.3248,4.3333,4.3699,4.3573,4.3519,4.3471,4.3471,4.3471,4.3471,4.3519,4.3519,4.3566,4.3818,4.3926,4.3857,4.3617,4.3097,4.2496,4.2024,4.1705,4.1537,4.151,4.1577,4.1785,4.2131,4.2459,4.2688,4.2955,4.3155,4.329,4.329,4.329,4.329,4.329,4.329,4.329,4.329,4.325,4.2962,4.2125,4.1809,4.1297,4.0274,3.9895,3.9616,3.9242,3.955,3.9736,3.9522,3.9935,4.0344,4.0733,4.1229,4.1681,4.2124,4.2697,4.3041,4.308,4.3215,4.329,4.329,4.329,4.2739,4.163,4.1686,4.1197,4.0261,3.9312,3.876,3.8464,3.7651,3.7062,3.6675,3.7413,3.7459,3.7172,3.7985,3.8518,3.8853,3.9105,3.9462,3.9788,3.854,3.9235,3.9853,4.0743,4.1134,4.156,4.2364,4.2741,4.3067,4.3553,4.4054,4.4284,4.3961,4.4214,4.4284,4.3961,4.4228,4.4411,4.4411,4.4411,4.4411,4.4411,4.4347,4.4333,4.4411,4.4347,4.4564,4.5124,4.5216,4.5037,4.4612,4.4612,4.433,4.3774,4.3638,4.3408,4.306,4.3566,4.3362,4.2695,4.3348,4.36,4.36,4.3757,4.377,4.3818,4.4068,4.4176,4.4167,4.3999,4.363,4.3174,4.2921,4.265,4.2396,4.2207,4.2198,4.224,4.2459,4.2622,4.2769,4.309,4.321,4.329,4.329,4.329,4.329,4.329,4.329,4.329,4.329,4.329,4.3145,4.2604,4.2426,4.2069,4.1346,4.1007,4.0804,4.0737,4.094,4.1168,4.1299,4.1513,4.1765,4.1961,4.2312,4.2624,4.2821,4.315,4.329,4.329,4.329,4.329,4.329,4.329,4.309,4.2618,4.2618,4.2304,4.1629,4.0632,3.9855,3.9271,3.8387,3.7651,3.7108,3.7551,3.7673,3.7724,3.8302,3.8723,3.9052,3.9348,3.9548,3.9697,3.75,3.8388,3.9171,3.9623,4.0275,4.1021,4.1931,4.2275,4.2714,4.3375,4.396,4.4317,4.4411,4.4411,4.4411,4.4411,4.4411,4.4411,4.4457,4.4457,4.4462,4.4349,4.4103,4.4018,4.418,4.4229,4.4541,4.5124,4.5367,4.523,4.4771,4.4592,4.4262,4.3747,4.355,4.2854,4.1985,4.3012,4.266,4.1604,4.2889,4.3444,4.3491,4.3926,4.4082,4.4176,4.4317,4.4411,4.4457,4.4504,4.4291,4.3962,4.3939,4.3645,4.3277,4.2908,4.2765,4.2688,4.2729,4.2769,4.285,4.321,4.329,4.329,4.329,4.329,4.329,4.329,4.329,4.329,4.329,4.329,4.325,4.3076,4.3036,4.2915,4.2581,4.2322,4.224,4.2459,4.2541,4.2784,4.3344,4.3384,4.3344,4.329,4.329,4.329,4.329,4.329,4.329,4.329,4.329,4.329,4.329,4.329,4.329,4.329,4.329,4.329,4.325,4.2167,4.1253,4.0462,3.9329,3.8432,3.7815,3.809,3.8232,3.8377,3.8939,3.9186,3.9221,3.9586,3.9697,3.9697,3.6208,3.6545,3.7073,3.8323,3.8428,3.8795,4.0147,4.0566,4.1282,4.2825,4.3423,4.3899,4.4364,4.4411,4.4411,4.4411,4.4411,4.4504,4.4751,4.4751,4.4588,4.4248,4.4373,4.4115,4.3391,4.4145,4.4735,4.5124,4.5367,4.5461,4.5374,4.4474,4.3901,4.3571,4.2415,4.1821,4.1654,4.1343,4.1093,4.0993,4.2119,4.2655,4.2944,4.3946,4.4504,4.4644,4.4457,4.4551,4.4783,4.4954,4.4851,4.4663,4.4516,4.4035,4.343,4.3251,4.2957,4.2729,4.2915,4.2955,4.2996,4.325,4.329,4.329,4.329,4.329,4.329,4.329,4.329,4.329,4.329,4.329,4.329,4.325,4.3115,4.3036,4.317,4.2996,4.2875,4.2915,4.3061,4.3314,4.3596,4.3651,4.3557,4.3329,4.329,4.329,4.329,4.329,4.329,4.329,4.329,4.329,4.329,4.329,4.329,4.329,4.329,4.329,4.325,4.236,4.1893,4.1713,4.0731,3.9812,3.9073,4.0465,3.9947,3.845,4.0136,4.0122,3.9221,3.9586,3.9697,3.9697,3.5224,3.5751,3.6437,3.721,3.769,3.8364,3.9764,4.0249,4.0882,4.2275,4.3136,4.3695,4.396,4.4209,4.4504,4.4769,4.469,4.4737,4.4954,4.4627,4.4405,4.421,4.373,4.3558,4.3767,4.4078,4.4613,4.5307,4.5458,4.5261,4.4805,4.4387,4.3715,4.2902,4.2306,4.1455,4.0503,4.0856,4.049,3.9777,4.1143,4.2119,4.28,4.3634,4.4383,4.4954,4.5,4.5,4.5046,4.5413,4.5367,4.5187,4.5277,4.4675,4.3935,4.3716,4.314,4.2581,4.2769,4.2835,4.293,4.321,4.329,4.329,4.329,4.329,4.329,4.329,4.329,4.329,4.329,4.329,4.3344,4.3518,4.3463,4.3423,4.3448,4.3394,4.3354,4.3354,4.363,4.3938,4.4172,4.3901,4.3747,4.3853,4.3499,4.329,4.329,4.329,4.329,4.329,4.329,4.329,4.329,4.329,4.329,4.329,4.329,4.329,4.329,4.2915,4.24,4.174,4.1351,4.0815,4.038,4.1084,4.1211,4.0917,4.105,4.0431,3.9499,3.9661,3.9697,3.9788]}]]